<?xml version="1.0" encoding="UTF-8" standalone="no" ?>
<gpx xmlns="http://www.topografix.com/GPX/1/1" xmlns:xsi="http://www.w3.org/2001/XMLSchema-instance" xsi:schemaLocation="http://www.topografix.com/GPX/1/1 http://www.topografix.com/GPX/1/1/gpx.xsd" version="1.1" creator="VisuGPX - https://www.visugpx.com">
  <metadata>
    <name>Dròme 24-2</name>
    <desc><![CDATA[... avec parcours de François "Valouse"]]></desc>
  </metadata>
  <trk>
    <name><![CDATA[S-Gumiane-Valouse-18498435]]></name>
    <extensions>
      <line xmlns="http://www.topografix.com/GPX/gpx_style/0/2">
        <color>ff0000</color>
        <opacity>0.8</opacity>
        <width>3</width>
      </line>
    </extensions>
    <trkseg>
      <trkpt lat="44.53869" lon="4.96045">
        <ele>239</ele>
        <time>2024-08-15T11:22:58Z</time>
      </trkpt>
      <trkpt lat="44.53886" lon="4.96002">
        <ele>238</ele>
        <time>2024-08-15T11:23:04Z</time>
      </trkpt>
      <trkpt lat="44.53883" lon="4.95999">
        <ele>238</ele>
        <time>2024-08-15T11:23:05Z</time>
      </trkpt>
      <trkpt lat="44.53881" lon="4.95996">
        <ele>238</ele>
        <time>2024-08-15T11:23:05Z</time>
      </trkpt>
      <trkpt lat="44.53871" lon="4.96018">
        <ele>238</ele>
        <time>2024-08-15T11:23:09Z</time>
      </trkpt>
      <trkpt lat="44.5386" lon="4.96057">
        <ele>239</ele>
        <time>2024-08-15T11:23:14Z</time>
      </trkpt>
      <trkpt lat="44.53855" lon="4.96096">
        <ele>239</ele>
        <time>2024-08-15T11:23:19Z</time>
      </trkpt>
      <trkpt lat="44.53843" lon="4.96164">
        <ele>241</ele>
        <time>2024-08-15T11:23:28Z</time>
      </trkpt>
      <trkpt lat="44.53831" lon="4.96209">
        <ele>246</ele>
        <time>2024-08-15T11:23:34Z</time>
      </trkpt>
      <trkpt lat="44.53808" lon="4.96251">
        <ele>249</ele>
        <time>2024-08-15T11:23:41Z</time>
      </trkpt>
      <trkpt lat="44.53781" lon="4.96282">
        <ele>251</ele>
        <time>2024-08-15T11:23:47Z</time>
      </trkpt>
      <trkpt lat="44.53763" lon="4.96299">
        <ele>249</ele>
        <time>2024-08-15T11:23:51Z</time>
      </trkpt>
      <trkpt lat="44.53704" lon="4.96346">
        <ele>248</ele>
        <time>2024-08-15T11:24:03Z</time>
      </trkpt>
      <trkpt lat="44.53657" lon="4.96376">
        <ele>248</ele>
        <time>2024-08-15T11:24:12Z</time>
      </trkpt>
      <trkpt lat="44.53565" lon="4.96416">
        <ele>245</ele>
        <time>2024-08-15T11:24:29Z</time>
      </trkpt>
      <trkpt lat="44.53536" lon="4.96433">
        <ele>246</ele>
        <time>2024-08-15T11:24:35Z</time>
      </trkpt>
      <trkpt lat="44.53511" lon="4.96454">
        <ele>247</ele>
        <time>2024-08-15T11:24:40Z</time>
      </trkpt>
      <trkpt lat="44.53485" lon="4.96487">
        <ele>249</ele>
        <time>2024-08-15T11:24:46Z</time>
      </trkpt>
      <trkpt lat="44.53446" lon="4.96546">
        <ele>253</ele>
        <time>2024-08-15T11:24:56Z</time>
      </trkpt>
      <trkpt lat="44.53416" lon="4.96584">
        <ele>255</ele>
        <time>2024-08-15T11:25:04Z</time>
      </trkpt>
      <trkpt lat="44.53398" lon="4.96601">
        <ele>259</ele>
        <time>2024-08-15T11:25:08Z</time>
      </trkpt>
      <trkpt lat="44.53178" lon="4.96719">
        <ele>266</ele>
        <time>2024-08-15T11:25:49Z</time>
      </trkpt>
      <trkpt lat="44.53154" lon="4.9674">
        <ele>266</ele>
        <time>2024-08-15T11:25:54Z</time>
      </trkpt>
      <trkpt lat="44.53139" lon="4.96756">
        <ele>267</ele>
        <time>2024-08-15T11:25:58Z</time>
      </trkpt>
      <trkpt lat="44.53118" lon="4.96782">
        <ele>267</ele>
        <time>2024-08-15T11:26:03Z</time>
      </trkpt>
      <trkpt lat="44.53095" lon="4.96819">
        <ele>265</ele>
        <time>2024-08-15T11:26:09Z</time>
      </trkpt>
      <trkpt lat="44.53054" lon="4.96887">
        <ele>263</ele>
        <time>2024-08-15T11:26:20Z</time>
      </trkpt>
      <trkpt lat="44.53049" lon="4.96897">
        <ele>264</ele>
        <time>2024-08-15T11:26:22Z</time>
      </trkpt>
      <trkpt lat="44.52629" lon="4.9755">
        <ele>264</ele>
        <time>2024-08-15T11:28:13Z</time>
      </trkpt>
      <trkpt lat="44.52591" lon="4.97627">
        <ele>264</ele>
        <time>2024-08-15T11:28:25Z</time>
      </trkpt>
      <trkpt lat="44.52569" lon="4.97697">
        <ele>265</ele>
        <time>2024-08-15T11:28:35Z</time>
      </trkpt>
      <trkpt lat="44.52557" lon="4.97767">
        <ele>265</ele>
        <time>2024-08-15T11:28:44Z</time>
      </trkpt>
      <trkpt lat="44.52555" lon="4.97823">
        <ele>266</ele>
        <time>2024-08-15T11:28:51Z</time>
      </trkpt>
      <trkpt lat="44.52555" lon="4.97995">
        <ele>272</ele>
        <time>2024-08-15T11:29:13Z</time>
      </trkpt>
      <trkpt lat="44.52557" lon="4.98063">
        <ele>274</ele>
        <time>2024-08-15T11:29:22Z</time>
      </trkpt>
      <trkpt lat="44.52556" lon="4.981">
        <ele>275</ele>
        <time>2024-08-15T11:29:26Z</time>
      </trkpt>
      <trkpt lat="44.52558" lon="4.98139">
        <ele>275</ele>
        <time>2024-08-15T11:29:31Z</time>
      </trkpt>
      <trkpt lat="44.52562" lon="4.98167">
        <ele>276</ele>
        <time>2024-08-15T11:29:35Z</time>
      </trkpt>
      <trkpt lat="44.52585" lon="4.98241">
        <ele>275</ele>
        <time>2024-08-15T11:29:45Z</time>
      </trkpt>
      <trkpt lat="44.52588" lon="4.98252">
        <ele>275</ele>
        <time>2024-08-15T11:29:47Z</time>
      </trkpt>
      <trkpt lat="44.52683" lon="4.98562">
        <ele>282</ele>
        <time>2024-08-15T11:30:30Z</time>
      </trkpt>
      <trkpt lat="44.52702" lon="4.98609">
        <ele>283</ele>
        <time>2024-08-15T11:30:36Z</time>
      </trkpt>
      <trkpt lat="44.52726" lon="4.98649">
        <ele>284</ele>
        <time>2024-08-15T11:30:43Z</time>
      </trkpt>
      <trkpt lat="44.52971" lon="4.98966">
        <ele>286</ele>
        <time>2024-08-15T11:31:42Z</time>
      </trkpt>
      <trkpt lat="44.5299" lon="4.98995">
        <ele>286</ele>
        <time>2024-08-15T11:31:47Z</time>
      </trkpt>
      <trkpt lat="44.53005" lon="4.9902">
        <ele>287</ele>
        <time>2024-08-15T11:31:51Z</time>
      </trkpt>
      <trkpt lat="44.53023" lon="4.99056">
        <ele>288</ele>
        <time>2024-08-15T11:31:57Z</time>
      </trkpt>
      <trkpt lat="44.53052" lon="4.99124">
        <ele>287</ele>
        <time>2024-08-15T11:32:07Z</time>
      </trkpt>
      <trkpt lat="44.53063" lon="4.9916">
        <ele>285</ele>
        <time>2024-08-15T11:32:12Z</time>
      </trkpt>
      <trkpt lat="44.5323" lon="4.99784">
        <ele>291</ele>
        <time>2024-08-15T11:33:37Z</time>
      </trkpt>
      <trkpt lat="44.53239" lon="4.99833">
        <ele>292</ele>
        <time>2024-08-15T11:33:43Z</time>
      </trkpt>
      <trkpt lat="44.53247" lon="4.9989">
        <ele>293</ele>
        <time>2024-08-15T11:33:50Z</time>
      </trkpt>
      <trkpt lat="44.53248" lon="4.99946">
        <ele>294</ele>
        <time>2024-08-15T11:33:57Z</time>
      </trkpt>
      <trkpt lat="44.53243" lon="5.00026">
        <ele>295</ele>
        <time>2024-08-15T11:34:08Z</time>
      </trkpt>
      <trkpt lat="44.53234" lon="5.0008">
        <ele>296</ele>
        <time>2024-08-15T11:34:15Z</time>
      </trkpt>
      <trkpt lat="44.5319" lon="5.00271">
        <ele>299</ele>
        <time>2024-08-15T11:34:40Z</time>
      </trkpt>
      <trkpt lat="44.53166" lon="5.00398">
        <ele>299</ele>
        <time>2024-08-15T11:34:57Z</time>
      </trkpt>
      <trkpt lat="44.53159" lon="5.00453">
        <ele>300</ele>
        <time>2024-08-15T11:35:04Z</time>
      </trkpt>
      <trkpt lat="44.53119" lon="5.00837">
        <ele>308</ele>
        <time>2024-08-15T11:35:53Z</time>
      </trkpt>
      <trkpt lat="44.53108" lon="5.00981">
        <ele>308</ele>
        <time>2024-08-15T11:36:11Z</time>
      </trkpt>
      <trkpt lat="44.53107" lon="5.01033">
        <ele>309</ele>
        <time>2024-08-15T11:36:18Z</time>
      </trkpt>
      <trkpt lat="44.53101" lon="5.01083">
        <ele>310</ele>
        <time>2024-08-15T11:36:25Z</time>
      </trkpt>
      <trkpt lat="44.53081" lon="5.01199">
        <ele>311</ele>
        <time>2024-08-15T11:36:40Z</time>
      </trkpt>
      <trkpt lat="44.53069" lon="5.01253">
        <ele>313</ele>
        <time>2024-08-15T11:36:47Z</time>
      </trkpt>
      <trkpt lat="44.53047" lon="5.01329">
        <ele>314</ele>
        <time>2024-08-15T11:36:57Z</time>
      </trkpt>
      <trkpt lat="44.53027" lon="5.0141">
        <ele>315</ele>
        <time>2024-08-15T11:37:08Z</time>
      </trkpt>
      <trkpt lat="44.52988" lon="5.01548">
        <ele>313</ele>
        <time>2024-08-15T11:37:27Z</time>
      </trkpt>
      <trkpt lat="44.52985" lon="5.01559">
        <ele>313</ele>
        <time>2024-08-15T11:37:28Z</time>
      </trkpt>
      <trkpt lat="44.52958" lon="5.0166">
        <ele>312</ele>
        <time>2024-08-15T11:37:42Z</time>
      </trkpt>
      <trkpt lat="44.52954" lon="5.01681">
        <ele>312</ele>
        <time>2024-08-15T11:37:45Z</time>
      </trkpt>
      <trkpt lat="44.52963" lon="5.01974">
        <ele>313</ele>
        <time>2024-08-15T11:38:22Z</time>
      </trkpt>
      <trkpt lat="44.52965" lon="5.02099">
        <ele>316</ele>
        <time>2024-08-15T11:38:38Z</time>
      </trkpt>
      <trkpt lat="44.52964" lon="5.0211">
        <ele>316</ele>
        <time>2024-08-15T11:38:39Z</time>
      </trkpt>
      <trkpt lat="44.52958" lon="5.02354">
        <ele>323</ele>
        <time>2024-08-15T11:39:10Z</time>
      </trkpt>
      <trkpt lat="44.52954" lon="5.02417">
        <ele>325</ele>
        <time>2024-08-15T11:39:18Z</time>
      </trkpt>
      <trkpt lat="44.52945" lon="5.02455">
        <ele>326</ele>
        <time>2024-08-15T11:39:23Z</time>
      </trkpt>
      <trkpt lat="44.52934" lon="5.02489">
        <ele>326</ele>
        <time>2024-08-15T11:39:28Z</time>
      </trkpt>
      <trkpt lat="44.5291" lon="5.02533">
        <ele>327</ele>
        <time>2024-08-15T11:39:35Z</time>
      </trkpt>
      <trkpt lat="44.52883" lon="5.02574">
        <ele>327</ele>
        <time>2024-08-15T11:39:42Z</time>
      </trkpt>
      <trkpt lat="44.5289" lon="5.02578">
        <ele>327</ele>
        <time>2024-08-15T11:39:44Z</time>
      </trkpt>
      <trkpt lat="44.52912" lon="5.02565">
        <ele>327</ele>
        <time>2024-08-15T11:39:48Z</time>
      </trkpt>
      <trkpt lat="44.5289" lon="5.02578">
        <ele>327</ele>
        <time>2024-08-15T11:39:52Z</time>
      </trkpt>
      <trkpt lat="44.52883" lon="5.02574">
        <ele>327</ele>
        <time>2024-08-15T11:39:53Z</time>
      </trkpt>
      <trkpt lat="44.52702" lon="5.02801">
        <ele>328</ele>
        <time>2024-08-15T11:40:37Z</time>
      </trkpt>
      <trkpt lat="44.52691" lon="5.02818">
        <ele>329</ele>
        <time>2024-08-15T11:40:40Z</time>
      </trkpt>
      <trkpt lat="44.52683" lon="5.02834">
        <ele>329</ele>
        <time>2024-08-15T11:40:42Z</time>
      </trkpt>
      <trkpt lat="44.5267" lon="5.02865">
        <ele>330</ele>
        <time>2024-08-15T11:40:47Z</time>
      </trkpt>
      <trkpt lat="44.52619" lon="5.03041">
        <ele>330</ele>
        <time>2024-08-15T11:41:11Z</time>
      </trkpt>
      <trkpt lat="44.52603" lon="5.03111">
        <ele>330</ele>
        <time>2024-08-15T11:41:20Z</time>
      </trkpt>
      <trkpt lat="44.52592" lon="5.03174">
        <ele>330</ele>
        <time>2024-08-15T11:41:28Z</time>
      </trkpt>
      <trkpt lat="44.52591" lon="5.03185">
        <ele>330</ele>
        <time>2024-08-15T11:41:30Z</time>
      </trkpt>
      <trkpt lat="44.52579" lon="5.03264">
        <ele>331</ele>
        <time>2024-08-15T11:41:40Z</time>
      </trkpt>
      <trkpt lat="44.52569" lon="5.03357">
        <ele>333</ele>
        <time>2024-08-15T11:41:52Z</time>
      </trkpt>
      <trkpt lat="44.52564" lon="5.03437">
        <ele>334</ele>
        <time>2024-08-15T11:42:02Z</time>
      </trkpt>
      <trkpt lat="44.52557" lon="5.03525">
        <ele>334</ele>
        <time>2024-08-15T11:42:13Z</time>
      </trkpt>
      <trkpt lat="44.52544" lon="5.03741">
        <ele>341</ele>
        <time>2024-08-15T11:42:41Z</time>
      </trkpt>
      <trkpt lat="44.52532" lon="5.0382">
        <ele>346</ele>
        <time>2024-08-15T11:42:51Z</time>
      </trkpt>
      <trkpt lat="44.52524" lon="5.03855">
        <ele>346</ele>
        <time>2024-08-15T11:42:56Z</time>
      </trkpt>
      <trkpt lat="44.52514" lon="5.03889">
        <ele>344</ele>
        <time>2024-08-15T11:43:00Z</time>
      </trkpt>
      <trkpt lat="44.5241" lon="5.04149">
        <ele>342</ele>
        <time>2024-08-15T11:43:38Z</time>
      </trkpt>
      <trkpt lat="44.52393" lon="5.04201">
        <ele>341</ele>
        <time>2024-08-15T11:43:45Z</time>
      </trkpt>
      <trkpt lat="44.52378" lon="5.04262">
        <ele>340</ele>
        <time>2024-08-15T11:43:54Z</time>
      </trkpt>
      <trkpt lat="44.5236" lon="5.04367">
        <ele>339</ele>
        <time>2024-08-15T11:44:07Z</time>
      </trkpt>
      <trkpt lat="44.52347" lon="5.04447">
        <ele>339</ele>
        <time>2024-08-15T11:44:18Z</time>
      </trkpt>
      <trkpt lat="44.5234" lon="5.04476">
        <ele>339</ele>
        <time>2024-08-15T11:44:22Z</time>
      </trkpt>
      <trkpt lat="44.52324" lon="5.04562">
        <ele>340</ele>
        <time>2024-08-15T11:44:33Z</time>
      </trkpt>
      <trkpt lat="44.52313" lon="5.04604">
        <ele>341</ele>
        <time>2024-08-15T11:44:39Z</time>
      </trkpt>
      <trkpt lat="44.52307" lon="5.04619">
        <ele>342</ele>
        <time>2024-08-15T11:44:41Z</time>
      </trkpt>
      <trkpt lat="44.52292" lon="5.04654">
        <ele>343</ele>
        <time>2024-08-15T11:44:46Z</time>
      </trkpt>
      <trkpt lat="44.52277" lon="5.04667">
        <ele>343</ele>
        <time>2024-08-15T11:44:49Z</time>
      </trkpt>
      <trkpt lat="44.5227" lon="5.04667">
        <ele>343</ele>
        <time>2024-08-15T11:44:50Z</time>
      </trkpt>
      <trkpt lat="44.52262" lon="5.04676">
        <ele>343</ele>
        <time>2024-08-15T11:44:52Z</time>
      </trkpt>
      <trkpt lat="44.52261" lon="5.04689">
        <ele>343</ele>
        <time>2024-08-15T11:44:54Z</time>
      </trkpt>
      <trkpt lat="44.52252" lon="5.04711">
        <ele>343</ele>
        <time>2024-08-15T11:44:57Z</time>
      </trkpt>
      <trkpt lat="44.5218" lon="5.0482">
        <ele>344</ele>
        <time>2024-08-15T11:45:16Z</time>
      </trkpt>
      <trkpt lat="44.52171" lon="5.04842">
        <ele>344</ele>
        <time>2024-08-15T11:45:19Z</time>
      </trkpt>
      <trkpt lat="44.52161" lon="5.04882">
        <ele>345</ele>
        <time>2024-08-15T11:45:24Z</time>
      </trkpt>
      <trkpt lat="44.52158" lon="5.04921">
        <ele>346</ele>
        <time>2024-08-15T11:45:29Z</time>
      </trkpt>
      <trkpt lat="44.52157" lon="5.04964">
        <ele>348</ele>
        <time>2024-08-15T11:45:35Z</time>
      </trkpt>
      <trkpt lat="44.52137" lon="5.05192">
        <ele>355</ele>
        <time>2024-08-15T11:46:04Z</time>
      </trkpt>
      <trkpt lat="44.52127" lon="5.0549">
        <ele>364</ele>
        <time>2024-08-15T11:46:42Z</time>
      </trkpt>
      <trkpt lat="44.52121" lon="5.05559">
        <ele>366</ele>
        <time>2024-08-15T11:46:51Z</time>
      </trkpt>
      <trkpt lat="44.5212" lon="5.0567">
        <ele>368</ele>
        <time>2024-08-15T11:47:05Z</time>
      </trkpt>
      <trkpt lat="44.52131" lon="5.05731">
        <ele>369</ele>
        <time>2024-08-15T11:47:13Z</time>
      </trkpt>
      <trkpt lat="44.52329" lon="5.06306">
        <ele>377</ele>
        <time>2024-08-15T11:48:34Z</time>
      </trkpt>
      <trkpt lat="44.52327" lon="5.06313">
        <ele>377</ele>
        <time>2024-08-15T11:48:35Z</time>
      </trkpt>
      <trkpt lat="44.52331" lon="5.0632">
        <ele>377</ele>
        <time>2024-08-15T11:48:36Z</time>
      </trkpt>
      <trkpt lat="44.52337" lon="5.06319">
        <ele>377</ele>
        <time>2024-08-15T11:48:37Z</time>
      </trkpt>
      <trkpt lat="44.5234" lon="5.06312">
        <ele>377</ele>
        <time>2024-08-15T11:48:38Z</time>
      </trkpt>
      <trkpt lat="44.52339" lon="5.06307">
        <ele>377</ele>
        <time>2024-08-15T11:48:39Z</time>
      </trkpt>
      <trkpt lat="44.52344" lon="5.06305">
        <ele>377</ele>
        <time>2024-08-15T11:48:40Z</time>
      </trkpt>
      <trkpt lat="44.52347" lon="5.063">
        <ele>378</ele>
        <time>2024-08-15T11:48:40Z</time>
      </trkpt>
      <trkpt lat="44.52381" lon="5.06242">
        <ele>380</ele>
        <time>2024-08-15T11:48:50Z</time>
      </trkpt>
      <trkpt lat="44.52347" lon="5.063">
        <ele>378</ele>
        <time>2024-08-15T11:48:59Z</time>
      </trkpt>
      <trkpt lat="44.52344" lon="5.06305">
        <ele>377</ele>
        <time>2024-08-15T11:49:00Z</time>
      </trkpt>
      <trkpt lat="44.52339" lon="5.06307">
        <ele>377</ele>
        <time>2024-08-15T11:49:01Z</time>
      </trkpt>
      <trkpt lat="44.52333" lon="5.06303">
        <ele>377</ele>
        <time>2024-08-15T11:49:02Z</time>
      </trkpt>
      <trkpt lat="44.52329" lon="5.06306">
        <ele>377</ele>
        <time>2024-08-15T11:49:03Z</time>
      </trkpt>
      <trkpt lat="44.52327" lon="5.06313">
        <ele>377</ele>
        <time>2024-08-15T11:49:04Z</time>
      </trkpt>
      <trkpt lat="44.52331" lon="5.0632">
        <ele>377</ele>
        <time>2024-08-15T11:49:05Z</time>
      </trkpt>
      <trkpt lat="44.52315" lon="5.06357">
        <ele>377</ele>
        <time>2024-08-15T11:49:11Z</time>
      </trkpt>
      <trkpt lat="44.523" lon="5.06383">
        <ele>378</ele>
        <time>2024-08-15T11:49:15Z</time>
      </trkpt>
      <trkpt lat="44.52297" lon="5.06389">
        <ele>378</ele>
        <time>2024-08-15T11:49:16Z</time>
      </trkpt>
      <trkpt lat="44.5234" lon="5.06439">
        <ele>378</ele>
        <time>2024-08-15T11:49:26Z</time>
      </trkpt>
      <trkpt lat="44.52355" lon="5.06447">
        <ele>379</ele>
        <time>2024-08-15T11:49:29Z</time>
      </trkpt>
      <trkpt lat="44.52377" lon="5.06455">
        <ele>380</ele>
        <time>2024-08-15T11:49:33Z</time>
      </trkpt>
      <trkpt lat="44.52394" lon="5.06455">
        <ele>380</ele>
        <time>2024-08-15T11:49:36Z</time>
      </trkpt>
      <trkpt lat="44.52406" lon="5.06453">
        <ele>380</ele>
        <time>2024-08-15T11:49:38Z</time>
      </trkpt>
      <trkpt lat="44.52464" lon="5.06423">
        <ele>379</ele>
        <time>2024-08-15T11:49:49Z</time>
      </trkpt>
      <trkpt lat="44.52477" lon="5.06421">
        <ele>379</ele>
        <time>2024-08-15T11:49:51Z</time>
      </trkpt>
      <trkpt lat="44.52503" lon="5.06425">
        <ele>381</ele>
        <time>2024-08-15T11:49:56Z</time>
      </trkpt>
      <trkpt lat="44.52514" lon="5.06434">
        <ele>382</ele>
        <time>2024-08-15T11:49:58Z</time>
      </trkpt>
      <trkpt lat="44.52573" lon="5.06491">
        <ele>384</ele>
        <time>2024-08-15T11:50:11Z</time>
      </trkpt>
      <trkpt lat="44.52593" lon="5.06507">
        <ele>384</ele>
        <time>2024-08-15T11:50:15Z</time>
      </trkpt>
      <trkpt lat="44.52614" lon="5.06536">
        <ele>387</ele>
        <time>2024-08-15T11:50:20Z</time>
      </trkpt>
      <trkpt lat="44.52607" lon="5.06555">
        <ele>389</ele>
        <time>2024-08-15T11:50:23Z</time>
      </trkpt>
      <trkpt lat="44.52628" lon="5.06572">
        <ele>390</ele>
        <time>2024-08-15T11:50:27Z</time>
      </trkpt>
      <trkpt lat="44.52652" lon="5.06599">
        <ele>391</ele>
        <time>2024-08-15T11:50:33Z</time>
      </trkpt>
      <trkpt lat="44.52668" lon="5.06598">
        <ele>389</ele>
        <time>2024-08-15T11:50:36Z</time>
      </trkpt>
      <trkpt lat="44.52681" lon="5.06603">
        <ele>389</ele>
        <time>2024-08-15T11:50:38Z</time>
      </trkpt>
      <trkpt lat="44.52714" lon="5.06636">
        <ele>390</ele>
        <time>2024-08-15T11:50:45Z</time>
      </trkpt>
      <trkpt lat="44.52718" lon="5.06639">
        <ele>390</ele>
        <time>2024-08-15T11:50:46Z</time>
      </trkpt>
      <trkpt lat="44.52754" lon="5.06663">
        <ele>389</ele>
        <time>2024-08-15T11:50:53Z</time>
      </trkpt>
      <trkpt lat="44.52775" lon="5.06661">
        <ele>388</ele>
        <time>2024-08-15T11:50:57Z</time>
      </trkpt>
      <trkpt lat="44.5279" lon="5.06657">
        <ele>388</ele>
        <time>2024-08-15T11:51:00Z</time>
      </trkpt>
      <trkpt lat="44.5286" lon="5.06653">
        <ele>388</ele>
        <time>2024-08-15T11:51:12Z</time>
      </trkpt>
      <trkpt lat="44.52879" lon="5.06655">
        <ele>388</ele>
        <time>2024-08-15T11:51:15Z</time>
      </trkpt>
      <trkpt lat="44.52898" lon="5.06663">
        <ele>389</ele>
        <time>2024-08-15T11:51:19Z</time>
      </trkpt>
      <trkpt lat="44.52917" lon="5.0668">
        <ele>390</ele>
        <time>2024-08-15T11:51:23Z</time>
      </trkpt>
      <trkpt lat="44.5293" lon="5.06699">
        <ele>391</ele>
        <time>2024-08-15T11:51:26Z</time>
      </trkpt>
      <trkpt lat="44.52947" lon="5.06736">
        <ele>393</ele>
        <time>2024-08-15T11:51:32Z</time>
      </trkpt>
      <trkpt lat="44.52949" lon="5.06747">
        <ele>394</ele>
        <time>2024-08-15T11:51:33Z</time>
      </trkpt>
      <trkpt lat="44.52976" lon="5.06757">
        <ele>395</ele>
        <time>2024-08-15T11:51:38Z</time>
      </trkpt>
      <trkpt lat="44.52994" lon="5.06762">
        <ele>395</ele>
        <time>2024-08-15T11:51:42Z</time>
      </trkpt>
      <trkpt lat="44.53012" lon="5.06755">
        <ele>395</ele>
        <time>2024-08-15T11:51:45Z</time>
      </trkpt>
      <trkpt lat="44.53047" lon="5.06738">
        <ele>397</ele>
        <time>2024-08-15T11:51:51Z</time>
      </trkpt>
      <trkpt lat="44.53065" lon="5.06741">
        <ele>398</ele>
        <time>2024-08-15T11:51:55Z</time>
      </trkpt>
      <trkpt lat="44.53069" lon="5.06745">
        <ele>399</ele>
        <time>2024-08-15T11:51:56Z</time>
      </trkpt>
      <trkpt lat="44.53074" lon="5.06747">
        <ele>399</ele>
        <time>2024-08-15T11:51:56Z</time>
      </trkpt>
      <trkpt lat="44.53079" lon="5.06746">
        <ele>400</ele>
        <time>2024-08-15T11:51:57Z</time>
      </trkpt>
      <trkpt lat="44.53084" lon="5.06742">
        <ele>400</ele>
        <time>2024-08-15T11:51:58Z</time>
      </trkpt>
      <trkpt lat="44.53094" lon="5.06739">
        <ele>400</ele>
        <time>2024-08-15T11:52:00Z</time>
      </trkpt>
      <trkpt lat="44.53121" lon="5.06743">
        <ele>402</ele>
        <time>2024-08-15T11:52:05Z</time>
      </trkpt>
      <trkpt lat="44.53235" lon="5.06792">
        <ele>410</ele>
        <time>2024-08-15T11:52:26Z</time>
      </trkpt>
      <trkpt lat="44.53294" lon="5.06831">
        <ele>412</ele>
        <time>2024-08-15T11:52:38Z</time>
      </trkpt>
      <trkpt lat="44.53486" lon="5.06976">
        <ele>420</ele>
        <time>2024-08-15T11:53:17Z</time>
      </trkpt>
      <trkpt lat="44.53604" lon="5.07088">
        <ele>425</ele>
        <time>2024-08-15T11:53:42Z</time>
      </trkpt>
      <trkpt lat="44.53799" lon="5.07277">
        <ele>432</ele>
        <time>2024-08-15T11:54:24Z</time>
      </trkpt>
      <trkpt lat="44.53956" lon="5.0745">
        <ele>437</ele>
        <time>2024-08-15T11:55:00Z</time>
      </trkpt>
      <trkpt lat="44.53967" lon="5.07456">
        <ele>436</ele>
        <time>2024-08-15T11:55:02Z</time>
      </trkpt>
      <trkpt lat="44.54001" lon="5.07454">
        <ele>432</ele>
        <time>2024-08-15T11:55:08Z</time>
      </trkpt>
      <trkpt lat="44.54019" lon="5.07462">
        <ele>435</ele>
        <time>2024-08-15T11:55:11Z</time>
      </trkpt>
      <trkpt lat="44.54102" lon="5.07544">
        <ele>444</ele>
        <time>2024-08-15T11:55:29Z</time>
      </trkpt>
      <trkpt lat="44.54152" lon="5.07584">
        <ele>444</ele>
        <time>2024-08-15T11:55:40Z</time>
      </trkpt>
      <trkpt lat="44.54193" lon="5.07612">
        <ele>451</ele>
        <time>2024-08-15T11:55:48Z</time>
      </trkpt>
      <trkpt lat="44.54306" lon="5.07706">
        <ele>464</ele>
        <time>2024-08-15T11:56:11Z</time>
      </trkpt>
      <trkpt lat="44.54349" lon="5.07733">
        <ele>462</ele>
        <time>2024-08-15T11:56:19Z</time>
      </trkpt>
      <trkpt lat="44.54394" lon="5.07754">
        <ele>458</ele>
        <time>2024-08-15T11:56:28Z</time>
      </trkpt>
      <trkpt lat="44.54473" lon="5.07796">
        <ele>464</ele>
        <time>2024-08-15T11:56:43Z</time>
      </trkpt>
      <trkpt lat="44.54574" lon="5.07816">
        <ele>464</ele>
        <time>2024-08-15T11:57:01Z</time>
      </trkpt>
      <trkpt lat="44.54611" lon="5.07831">
        <ele>463</ele>
        <time>2024-08-15T11:57:08Z</time>
      </trkpt>
      <trkpt lat="44.54623" lon="5.07838">
        <ele>464</ele>
        <time>2024-08-15T11:57:10Z</time>
      </trkpt>
      <trkpt lat="44.54664" lon="5.07872">
        <ele>466</ele>
        <time>2024-08-15T11:57:19Z</time>
      </trkpt>
      <trkpt lat="44.54724" lon="5.0793">
        <ele>469</ele>
        <time>2024-08-15T11:57:32Z</time>
      </trkpt>
      <trkpt lat="44.54784" lon="5.07977">
        <ele>474</ele>
        <time>2024-08-15T11:57:44Z</time>
      </trkpt>
      <trkpt lat="44.54807" lon="5.07999">
        <ele>474</ele>
        <time>2024-08-15T11:57:49Z</time>
      </trkpt>
      <trkpt lat="44.54875" lon="5.08101">
        <ele>475</ele>
        <time>2024-08-15T11:58:07Z</time>
      </trkpt>
      <trkpt lat="44.54883" lon="5.08115">
        <ele>476</ele>
        <time>2024-08-15T11:58:09Z</time>
      </trkpt>
      <trkpt lat="44.54888" lon="5.0813">
        <ele>475</ele>
        <time>2024-08-15T11:58:11Z</time>
      </trkpt>
      <trkpt lat="44.54902" lon="5.08189">
        <ele>472</ele>
        <time>2024-08-15T11:58:19Z</time>
      </trkpt>
      <trkpt lat="44.54911" lon="5.08211">
        <ele>470</ele>
        <time>2024-08-15T11:58:22Z</time>
      </trkpt>
      <trkpt lat="44.54924" lon="5.0823">
        <ele>470</ele>
        <time>2024-08-15T11:58:25Z</time>
      </trkpt>
      <trkpt lat="44.54943" lon="5.08246">
        <ele>473</ele>
        <time>2024-08-15T11:58:29Z</time>
      </trkpt>
      <trkpt lat="44.54962" lon="5.08257">
        <ele>476</ele>
        <time>2024-08-15T11:58:33Z</time>
      </trkpt>
      <trkpt lat="44.54994" lon="5.08291">
        <ele>478</ele>
        <time>2024-08-15T11:58:40Z</time>
      </trkpt>
      <trkpt lat="44.55025" lon="5.08329">
        <ele>481</ele>
        <time>2024-08-15T11:58:47Z</time>
      </trkpt>
      <trkpt lat="44.55034" lon="5.08349">
        <ele>483</ele>
        <time>2024-08-15T11:58:50Z</time>
      </trkpt>
      <trkpt lat="44.55061" lon="5.08418">
        <ele>486</ele>
        <time>2024-08-15T11:59:00Z</time>
      </trkpt>
      <trkpt lat="44.55081" lon="5.08447">
        <ele>487</ele>
        <time>2024-08-15T11:59:06Z</time>
      </trkpt>
      <trkpt lat="44.55113" lon="5.08487">
        <ele>490</ele>
        <time>2024-08-15T11:59:13Z</time>
      </trkpt>
      <trkpt lat="44.55144" lon="5.08532">
        <ele>492</ele>
        <time>2024-08-15T11:59:21Z</time>
      </trkpt>
      <trkpt lat="44.55174" lon="5.08582">
        <ele>494</ele>
        <time>2024-08-15T11:59:29Z</time>
      </trkpt>
      <trkpt lat="44.55303" lon="5.08822">
        <ele>505</ele>
        <time>2024-08-15T12:00:07Z</time>
      </trkpt>
      <trkpt lat="44.5531" lon="5.08826">
        <ele>506</ele>
        <time>2024-08-15T12:00:09Z</time>
      </trkpt>
      <trkpt lat="44.55314" lon="5.08826">
        <ele>507</ele>
        <time>2024-08-15T12:00:10Z</time>
      </trkpt>
      <trkpt lat="44.55319" lon="5.08822">
        <ele>508</ele>
        <time>2024-08-15T12:00:11Z</time>
      </trkpt>
      <trkpt lat="44.55321" lon="5.08815">
        <ele>509</ele>
        <time>2024-08-15T12:00:12Z</time>
      </trkpt>
      <trkpt lat="44.55322" lon="5.08768">
        <ele>512</ele>
        <time>2024-08-15T12:00:17Z</time>
      </trkpt>
      <trkpt lat="44.55333" lon="5.08655">
        <ele>521</ele>
        <time>2024-08-15T12:00:32Z</time>
      </trkpt>
      <trkpt lat="44.55337" lon="5.08632">
        <ele>523</ele>
        <time>2024-08-15T12:00:35Z</time>
      </trkpt>
      <trkpt lat="44.5534" lon="5.08622">
        <ele>525</ele>
        <time>2024-08-15T12:00:36Z</time>
      </trkpt>
      <trkpt lat="44.55343" lon="5.08617">
        <ele>526</ele>
        <time>2024-08-15T12:00:37Z</time>
      </trkpt>
      <trkpt lat="44.55351" lon="5.08617">
        <ele>528</ele>
        <time>2024-08-15T12:00:39Z</time>
      </trkpt>
      <trkpt lat="44.55354" lon="5.08621">
        <ele>528</ele>
        <time>2024-08-15T12:00:39Z</time>
      </trkpt>
      <trkpt lat="44.55356" lon="5.08627">
        <ele>528</ele>
        <time>2024-08-15T12:00:40Z</time>
      </trkpt>
      <trkpt lat="44.55354" lon="5.08652">
        <ele>526</ele>
        <time>2024-08-15T12:00:43Z</time>
      </trkpt>
      <trkpt lat="44.55354" lon="5.08672">
        <ele>524</ele>
        <time>2024-08-15T12:00:46Z</time>
      </trkpt>
      <trkpt lat="44.55365" lon="5.08703">
        <ele>525</ele>
        <time>2024-08-15T12:00:50Z</time>
      </trkpt>
      <trkpt lat="44.55373" lon="5.08714">
        <ele>526</ele>
        <time>2024-08-15T12:00:52Z</time>
      </trkpt>
      <trkpt lat="44.55391" lon="5.08732">
        <ele>528</ele>
        <time>2024-08-15T12:00:56Z</time>
      </trkpt>
      <trkpt lat="44.55463" lon="5.0878">
        <ele>539</ele>
        <time>2024-08-15T12:01:10Z</time>
      </trkpt>
      <trkpt lat="44.55472" lon="5.08791">
        <ele>540</ele>
        <time>2024-08-15T12:01:12Z</time>
      </trkpt>
      <trkpt lat="44.55494" lon="5.08839">
        <ele>541</ele>
        <time>2024-08-15T12:01:20Z</time>
      </trkpt>
      <trkpt lat="44.55497" lon="5.08851">
        <ele>542</ele>
        <time>2024-08-15T12:01:21Z</time>
      </trkpt>
      <trkpt lat="44.55498" lon="5.08863">
        <ele>541</ele>
        <time>2024-08-15T12:01:23Z</time>
      </trkpt>
      <trkpt lat="44.55491" lon="5.08897">
        <ele>538</ele>
        <time>2024-08-15T12:01:27Z</time>
      </trkpt>
      <trkpt lat="44.55492" lon="5.08905">
        <ele>538</ele>
        <time>2024-08-15T12:01:28Z</time>
      </trkpt>
      <trkpt lat="44.55499" lon="5.08914">
        <ele>539</ele>
        <time>2024-08-15T12:01:30Z</time>
      </trkpt>
      <trkpt lat="44.55504" lon="5.08915">
        <ele>540</ele>
        <time>2024-08-15T12:01:31Z</time>
      </trkpt>
      <trkpt lat="44.5554" lon="5.0891">
        <ele>545</ele>
        <time>2024-08-15T12:01:37Z</time>
      </trkpt>
      <trkpt lat="44.55586" lon="5.08915">
        <ele>551</ele>
        <time>2024-08-15T12:01:46Z</time>
      </trkpt>
      <trkpt lat="44.55603" lon="5.08921">
        <ele>554</ele>
        <time>2024-08-15T12:01:49Z</time>
      </trkpt>
      <trkpt lat="44.55611" lon="5.08926">
        <ele>555</ele>
        <time>2024-08-15T12:01:50Z</time>
      </trkpt>
      <trkpt lat="44.55619" lon="5.08937">
        <ele>555</ele>
        <time>2024-08-15T12:01:52Z</time>
      </trkpt>
      <trkpt lat="44.55623" lon="5.08952">
        <ele>555</ele>
        <time>2024-08-15T12:01:54Z</time>
      </trkpt>
      <trkpt lat="44.55622" lon="5.08974">
        <ele>552</ele>
        <time>2024-08-15T12:01:57Z</time>
      </trkpt>
      <trkpt lat="44.55623" lon="5.08985">
        <ele>551</ele>
        <time>2024-08-15T12:01:59Z</time>
      </trkpt>
      <trkpt lat="44.5563" lon="5.08995">
        <ele>551</ele>
        <time>2024-08-15T12:02:00Z</time>
      </trkpt>
      <trkpt lat="44.5564" lon="5.09002">
        <ele>552</ele>
        <time>2024-08-15T12:02:02Z</time>
      </trkpt>
      <trkpt lat="44.55654" lon="5.09006">
        <ele>554</ele>
        <time>2024-08-15T12:02:05Z</time>
      </trkpt>
      <trkpt lat="44.55764" lon="5.09027">
        <ele>566</ele>
        <time>2024-08-15T12:02:25Z</time>
      </trkpt>
      <trkpt lat="44.55771" lon="5.09026">
        <ele>567</ele>
        <time>2024-08-15T12:02:26Z</time>
      </trkpt>
      <trkpt lat="44.55776" lon="5.09021">
        <ele>568</ele>
        <time>2024-08-15T12:02:27Z</time>
      </trkpt>
      <trkpt lat="44.55778" lon="5.09014">
        <ele>569</ele>
        <time>2024-08-15T12:02:28Z</time>
      </trkpt>
      <trkpt lat="44.55777" lon="5.09004">
        <ele>571</ele>
        <time>2024-08-15T12:02:29Z</time>
      </trkpt>
      <trkpt lat="44.55773" lon="5.08998">
        <ele>572</ele>
        <time>2024-08-15T12:02:30Z</time>
      </trkpt>
      <trkpt lat="44.55763" lon="5.08994">
        <ele>572</ele>
        <time>2024-08-15T12:02:32Z</time>
      </trkpt>
      <trkpt lat="44.55748" lon="5.08991">
        <ele>571</ele>
        <time>2024-08-15T12:02:35Z</time>
      </trkpt>
      <trkpt lat="44.55734" lon="5.08984">
        <ele>570</ele>
        <time>2024-08-15T12:02:37Z</time>
      </trkpt>
      <trkpt lat="44.55716" lon="5.08971">
        <ele>569</ele>
        <time>2024-08-15T12:02:41Z</time>
      </trkpt>
      <trkpt lat="44.55707" lon="5.0896">
        <ele>569</ele>
        <time>2024-08-15T12:02:43Z</time>
      </trkpt>
      <trkpt lat="44.557" lon="5.08951">
        <ele>569</ele>
        <time>2024-08-15T12:02:45Z</time>
      </trkpt>
      <trkpt lat="44.55698" lon="5.08941">
        <ele>571</ele>
        <time>2024-08-15T12:02:46Z</time>
      </trkpt>
      <trkpt lat="44.55697" lon="5.08928">
        <ele>572</ele>
        <time>2024-08-15T12:02:48Z</time>
      </trkpt>
      <trkpt lat="44.55699" lon="5.08915">
        <ele>575</ele>
        <time>2024-08-15T12:02:49Z</time>
      </trkpt>
      <trkpt lat="44.5571" lon="5.08872">
        <ele>581</ele>
        <time>2024-08-15T12:02:55Z</time>
      </trkpt>
      <trkpt lat="44.55713" lon="5.08858">
        <ele>584</ele>
        <time>2024-08-15T12:02:57Z</time>
      </trkpt>
      <trkpt lat="44.55714" lon="5.08848">
        <ele>585</ele>
        <time>2024-08-15T12:02:58Z</time>
      </trkpt>
      <trkpt lat="44.55712" lon="5.08839">
        <ele>585</ele>
        <time>2024-08-15T12:03:00Z</time>
      </trkpt>
      <trkpt lat="44.55706" lon="5.0883">
        <ele>585</ele>
        <time>2024-08-15T12:03:01Z</time>
      </trkpt>
      <trkpt lat="44.55684" lon="5.08819">
        <ele>580</ele>
        <time>2024-08-15T12:03:05Z</time>
      </trkpt>
      <trkpt lat="44.55677" lon="5.0881">
        <ele>580</ele>
        <time>2024-08-15T12:03:07Z</time>
      </trkpt>
      <trkpt lat="44.55674" lon="5.08798">
        <ele>580</ele>
        <time>2024-08-15T12:03:09Z</time>
      </trkpt>
      <trkpt lat="44.55682" lon="5.08749">
        <ele>586</ele>
        <time>2024-08-15T12:03:15Z</time>
      </trkpt>
      <trkpt lat="44.55685" lon="5.08742">
        <ele>588</ele>
        <time>2024-08-15T12:03:16Z</time>
      </trkpt>
      <trkpt lat="44.5569" lon="5.0874">
        <ele>590</ele>
        <time>2024-08-15T12:03:17Z</time>
      </trkpt>
      <trkpt lat="44.55698" lon="5.0874">
        <ele>592</ele>
        <time>2024-08-15T12:03:18Z</time>
      </trkpt>
      <trkpt lat="44.55704" lon="5.08745">
        <ele>593</ele>
        <time>2024-08-15T12:03:20Z</time>
      </trkpt>
      <trkpt lat="44.5572" lon="5.08791">
        <ele>592</ele>
        <time>2024-08-15T12:03:26Z</time>
      </trkpt>
      <trkpt lat="44.55745" lon="5.08839">
        <ele>593</ele>
        <time>2024-08-15T12:03:34Z</time>
      </trkpt>
      <trkpt lat="44.55758" lon="5.08855">
        <ele>594</ele>
        <time>2024-08-15T12:03:37Z</time>
      </trkpt>
      <trkpt lat="44.55775" lon="5.08867">
        <ele>595</ele>
        <time>2024-08-15T12:03:40Z</time>
      </trkpt>
      <trkpt lat="44.55827" lon="5.08892">
        <ele>599</ele>
        <time>2024-08-15T12:03:50Z</time>
      </trkpt>
      <trkpt lat="44.55838" lon="5.08893">
        <ele>600</ele>
        <time>2024-08-15T12:03:52Z</time>
      </trkpt>
      <trkpt lat="44.55848" lon="5.0889">
        <ele>601</ele>
        <time>2024-08-15T12:03:54Z</time>
      </trkpt>
      <trkpt lat="44.55857" lon="5.08884">
        <ele>602</ele>
        <time>2024-08-15T12:03:55Z</time>
      </trkpt>
      <trkpt lat="44.55879" lon="5.08862">
        <ele>608</ele>
        <time>2024-08-15T12:04:00Z</time>
      </trkpt>
      <trkpt lat="44.55888" lon="5.08858">
        <ele>609</ele>
        <time>2024-08-15T12:04:02Z</time>
      </trkpt>
      <trkpt lat="44.55902" lon="5.08858">
        <ele>610</ele>
        <time>2024-08-15T12:04:04Z</time>
      </trkpt>
      <trkpt lat="44.56071" lon="5.08896">
        <ele>615</ele>
        <time>2024-08-15T12:04:35Z</time>
      </trkpt>
      <trkpt lat="44.562" lon="5.08924">
        <ele>625</ele>
        <time>2024-08-15T12:04:58Z</time>
      </trkpt>
      <trkpt lat="44.5621" lon="5.08928">
        <ele>626</ele>
        <time>2024-08-15T12:05:00Z</time>
      </trkpt>
      <trkpt lat="44.56217" lon="5.08934">
        <ele>626</ele>
        <time>2024-08-15T12:05:01Z</time>
      </trkpt>
      <trkpt lat="44.56221" lon="5.08939">
        <ele>627</ele>
        <time>2024-08-15T12:05:02Z</time>
      </trkpt>
      <trkpt lat="44.56224" lon="5.08947">
        <ele>627</ele>
        <time>2024-08-15T12:05:03Z</time>
      </trkpt>
      <trkpt lat="44.56225" lon="5.08956">
        <ele>627</ele>
        <time>2024-08-15T12:05:05Z</time>
      </trkpt>
      <trkpt lat="44.56224" lon="5.0897">
        <ele>627</ele>
        <time>2024-08-15T12:05:06Z</time>
      </trkpt>
      <trkpt lat="44.56216" lon="5.08988">
        <ele>626</ele>
        <time>2024-08-15T12:05:09Z</time>
      </trkpt>
      <trkpt lat="44.56173" lon="5.09062">
        <ele>628</ele>
        <time>2024-08-15T12:05:21Z</time>
      </trkpt>
      <trkpt lat="44.56167" lon="5.09081">
        <ele>629</ele>
        <time>2024-08-15T12:05:24Z</time>
      </trkpt>
      <trkpt lat="44.56164" lon="5.09103">
        <ele>630</ele>
        <time>2024-08-15T12:05:27Z</time>
      </trkpt>
      <trkpt lat="44.56177" lon="5.09312">
        <ele>636</ele>
        <time>2024-08-15T12:05:53Z</time>
      </trkpt>
      <trkpt lat="44.56189" lon="5.0938">
        <ele>638</ele>
        <time>2024-08-15T12:06:02Z</time>
      </trkpt>
      <trkpt lat="44.56209" lon="5.09467">
        <ele>642</ele>
        <time>2024-08-15T12:06:14Z</time>
      </trkpt>
      <trkpt lat="44.56216" lon="5.09529">
        <ele>643</ele>
        <time>2024-08-15T12:06:22Z</time>
      </trkpt>
      <trkpt lat="44.56217" lon="5.09565">
        <ele>643</ele>
        <time>2024-08-15T12:06:26Z</time>
      </trkpt>
      <trkpt lat="44.5621" lon="5.09635">
        <ele>639</ele>
        <time>2024-08-15T12:06:35Z</time>
      </trkpt>
      <trkpt lat="44.56212" lon="5.09658">
        <ele>638</ele>
        <time>2024-08-15T12:06:38Z</time>
      </trkpt>
      <trkpt lat="44.56218" lon="5.0968">
        <ele>638</ele>
        <time>2024-08-15T12:06:41Z</time>
      </trkpt>
      <trkpt lat="44.56228" lon="5.097">
        <ele>639</ele>
        <time>2024-08-15T12:06:44Z</time>
      </trkpt>
      <trkpt lat="44.56247" lon="5.0973">
        <ele>640</ele>
        <time>2024-08-15T12:06:49Z</time>
      </trkpt>
      <trkpt lat="44.56371" lon="5.09887">
        <ele>635</ele>
        <time>2024-08-15T12:07:19Z</time>
      </trkpt>
      <trkpt lat="44.5658" lon="5.10197">
        <ele>628</ele>
        <time>2024-08-15T12:08:13Z</time>
      </trkpt>
      <trkpt lat="44.56627" lon="5.10263">
        <ele>626</ele>
        <time>2024-08-15T12:08:25Z</time>
      </trkpt>
      <trkpt lat="44.56702" lon="5.10379">
        <ele>625</ele>
        <time>2024-08-15T12:08:45Z</time>
      </trkpt>
      <trkpt lat="44.56732" lon="5.10423">
        <ele>623</ele>
        <time>2024-08-15T12:08:53Z</time>
      </trkpt>
      <trkpt lat="44.56747" lon="5.10441">
        <ele>623</ele>
        <time>2024-08-15T12:08:56Z</time>
      </trkpt>
      <trkpt lat="44.56764" lon="5.10457">
        <ele>623</ele>
        <time>2024-08-15T12:09:00Z</time>
      </trkpt>
      <trkpt lat="44.56836" lon="5.1051">
        <ele>622</ele>
        <time>2024-08-15T12:09:14Z</time>
      </trkpt>
      <trkpt lat="44.56848" lon="5.10525">
        <ele>621</ele>
        <time>2024-08-15T12:09:17Z</time>
      </trkpt>
      <trkpt lat="44.56854" lon="5.1054">
        <ele>622</ele>
        <time>2024-08-15T12:09:19Z</time>
      </trkpt>
      <trkpt lat="44.56881" lon="5.10616">
        <ele>627</ele>
        <time>2024-08-15T12:09:30Z</time>
      </trkpt>
      <trkpt lat="44.56889" lon="5.10629">
        <ele>628</ele>
        <time>2024-08-15T12:09:32Z</time>
      </trkpt>
      <trkpt lat="44.569" lon="5.1064">
        <ele>628</ele>
        <time>2024-08-15T12:09:35Z</time>
      </trkpt>
      <trkpt lat="44.56909" lon="5.10644">
        <ele>629</ele>
        <time>2024-08-15T12:09:36Z</time>
      </trkpt>
      <trkpt lat="44.56919" lon="5.10645">
        <ele>629</ele>
        <time>2024-08-15T12:09:38Z</time>
      </trkpt>
      <trkpt lat="44.56929" lon="5.10643">
        <ele>630</ele>
        <time>2024-08-15T12:09:40Z</time>
      </trkpt>
      <trkpt lat="44.57011" lon="5.10574">
        <ele>624</ele>
        <time>2024-08-15T12:09:57Z</time>
      </trkpt>
      <trkpt lat="44.57034" lon="5.10561">
        <ele>623</ele>
        <time>2024-08-15T12:10:01Z</time>
      </trkpt>
      <trkpt lat="44.57045" lon="5.10559">
        <ele>624</ele>
        <time>2024-08-15T12:10:03Z</time>
      </trkpt>
      <trkpt lat="44.57074" lon="5.10564">
        <ele>626</ele>
        <time>2024-08-15T12:10:08Z</time>
      </trkpt>
      <trkpt lat="44.57165" lon="5.10616">
        <ele>634</ele>
        <time>2024-08-15T12:10:26Z</time>
      </trkpt>
      <trkpt lat="44.57201" lon="5.10648">
        <ele>636</ele>
        <time>2024-08-15T12:10:34Z</time>
      </trkpt>
      <trkpt lat="44.57236" lon="5.10689">
        <ele>636</ele>
        <time>2024-08-15T12:10:42Z</time>
      </trkpt>
      <trkpt lat="44.5727" lon="5.1075">
        <ele>645</ele>
        <time>2024-08-15T12:10:51Z</time>
      </trkpt>
      <trkpt lat="44.57278" lon="5.10761">
        <ele>646</ele>
        <time>2024-08-15T12:10:53Z</time>
      </trkpt>
      <trkpt lat="44.57288" lon="5.10772">
        <ele>646</ele>
        <time>2024-08-15T12:10:56Z</time>
      </trkpt>
      <trkpt lat="44.57298" lon="5.10777">
        <ele>645</ele>
        <time>2024-08-15T12:10:58Z</time>
      </trkpt>
      <trkpt lat="44.57308" lon="5.10777">
        <ele>644</ele>
        <time>2024-08-15T12:10:59Z</time>
      </trkpt>
      <trkpt lat="44.57324" lon="5.1077">
        <ele>642</ele>
        <time>2024-08-15T12:11:02Z</time>
      </trkpt>
      <trkpt lat="44.57334" lon="5.10754">
        <ele>639</ele>
        <time>2024-08-15T12:11:05Z</time>
      </trkpt>
      <trkpt lat="44.57347" lon="5.10721">
        <ele>636</ele>
        <time>2024-08-15T12:11:10Z</time>
      </trkpt>
      <trkpt lat="44.57358" lon="5.10709">
        <ele>635</ele>
        <time>2024-08-15T12:11:12Z</time>
      </trkpt>
      <trkpt lat="44.5737" lon="5.10701">
        <ele>635</ele>
        <time>2024-08-15T12:11:15Z</time>
      </trkpt>
      <trkpt lat="44.57397" lon="5.10702">
        <ele>638</ele>
        <time>2024-08-15T12:11:19Z</time>
      </trkpt>
      <trkpt lat="44.57458" lon="5.10721">
        <ele>650</ele>
        <time>2024-08-15T12:11:31Z</time>
      </trkpt>
      <trkpt lat="44.57484" lon="5.10722">
        <ele>652</ele>
        <time>2024-08-15T12:11:35Z</time>
      </trkpt>
      <trkpt lat="44.57503" lon="5.10719">
        <ele>653</ele>
        <time>2024-08-15T12:11:39Z</time>
      </trkpt>
      <trkpt lat="44.57537" lon="5.10702">
        <ele>652</ele>
        <time>2024-08-15T12:11:45Z</time>
      </trkpt>
      <trkpt lat="44.57569" lon="5.10681">
        <ele>652</ele>
        <time>2024-08-15T12:11:51Z</time>
      </trkpt>
      <trkpt lat="44.57632" lon="5.10611">
        <ele>647</ele>
        <time>2024-08-15T12:12:06Z</time>
      </trkpt>
      <trkpt lat="44.57666" lon="5.10584">
        <ele>649</ele>
        <time>2024-08-15T12:12:13Z</time>
      </trkpt>
      <trkpt lat="44.5771" lon="5.10567">
        <ele>645</ele>
        <time>2024-08-15T12:12:21Z</time>
      </trkpt>
      <trkpt lat="44.57738" lon="5.10565">
        <ele>646</ele>
        <time>2024-08-15T12:12:26Z</time>
      </trkpt>
      <trkpt lat="44.57771" lon="5.1057">
        <ele>644</ele>
        <time>2024-08-15T12:12:32Z</time>
      </trkpt>
      <trkpt lat="44.57787" lon="5.10589">
        <ele>644</ele>
        <time>2024-08-15T12:12:35Z</time>
      </trkpt>
      <trkpt lat="44.57791" lon="5.10607">
        <ele>645</ele>
        <time>2024-08-15T12:12:38Z</time>
      </trkpt>
      <trkpt lat="44.57781" lon="5.10655">
        <ele>654</ele>
        <time>2024-08-15T12:12:44Z</time>
      </trkpt>
      <trkpt lat="44.57768" lon="5.10683">
        <ele>659</ele>
        <time>2024-08-15T12:12:48Z</time>
      </trkpt>
      <trkpt lat="44.57746" lon="5.10718">
        <ele>664</ele>
        <time>2024-08-15T12:12:54Z</time>
      </trkpt>
      <trkpt lat="44.57722" lon="5.10751">
        <ele>666</ele>
        <time>2024-08-15T12:13:00Z</time>
      </trkpt>
      <trkpt lat="44.5771" lon="5.10785">
        <ele>668</ele>
        <time>2024-08-15T12:13:05Z</time>
      </trkpt>
      <trkpt lat="44.57707" lon="5.1081">
        <ele>669</ele>
        <time>2024-08-15T12:13:08Z</time>
      </trkpt>
      <trkpt lat="44.57712" lon="5.10822">
        <ele>668</ele>
        <time>2024-08-15T12:13:10Z</time>
      </trkpt>
      <trkpt lat="44.57729" lon="5.10838">
        <ele>666</ele>
        <time>2024-08-15T12:13:14Z</time>
      </trkpt>
      <trkpt lat="44.57752" lon="5.10843">
        <ele>663</ele>
        <time>2024-08-15T12:13:18Z</time>
      </trkpt>
      <trkpt lat="44.57766" lon="5.10855">
        <ele>660</ele>
        <time>2024-08-15T12:13:21Z</time>
      </trkpt>
      <trkpt lat="44.578" lon="5.10898">
        <ele>655</ele>
        <time>2024-08-15T12:13:29Z</time>
      </trkpt>
      <trkpt lat="44.57811" lon="5.10909">
        <ele>654</ele>
        <time>2024-08-15T12:13:31Z</time>
      </trkpt>
      <trkpt lat="44.57822" lon="5.10918">
        <ele>652</ele>
        <time>2024-08-15T12:13:33Z</time>
      </trkpt>
      <trkpt lat="44.57907" lon="5.10971">
        <ele>648</ele>
        <time>2024-08-15T12:13:50Z</time>
      </trkpt>
      <trkpt lat="44.57964" lon="5.10993">
        <ele>646</ele>
        <time>2024-08-15T12:14:01Z</time>
      </trkpt>
      <trkpt lat="44.58003" lon="5.11001">
        <ele>645</ele>
        <time>2024-08-15T12:14:08Z</time>
      </trkpt>
      <trkpt lat="44.58063" lon="5.11007">
        <ele>647</ele>
        <time>2024-08-15T12:14:18Z</time>
      </trkpt>
      <trkpt lat="44.58124" lon="5.11022">
        <ele>643</ele>
        <time>2024-08-15T12:14:29Z</time>
      </trkpt>
      <trkpt lat="44.58147" lon="5.11024">
        <ele>642</ele>
        <time>2024-08-15T12:14:33Z</time>
      </trkpt>
      <trkpt lat="44.58221" lon="5.11011">
        <ele>636</ele>
        <time>2024-08-15T12:14:47Z</time>
      </trkpt>
      <trkpt lat="44.5823" lon="5.11014">
        <ele>634</ele>
        <time>2024-08-15T12:14:48Z</time>
      </trkpt>
      <trkpt lat="44.58234" lon="5.11018">
        <ele>633</ele>
        <time>2024-08-15T12:14:49Z</time>
      </trkpt>
      <trkpt lat="44.58235" lon="5.1103">
        <ele>630</ele>
        <time>2024-08-15T12:14:51Z</time>
      </trkpt>
      <trkpt lat="44.58231" lon="5.11042">
        <ele>629</ele>
        <time>2024-08-15T12:14:52Z</time>
      </trkpt>
      <trkpt lat="44.58201" lon="5.11096">
        <ele>622</ele>
        <time>2024-08-15T12:15:01Z</time>
      </trkpt>
      <trkpt lat="44.58187" lon="5.11119">
        <ele>620</ele>
        <time>2024-08-15T12:15:05Z</time>
      </trkpt>
      <trkpt lat="44.58175" lon="5.1113">
        <ele>620</ele>
        <time>2024-08-15T12:15:07Z</time>
      </trkpt>
      <trkpt lat="44.58162" lon="5.1114">
        <ele>619</ele>
        <time>2024-08-15T12:15:10Z</time>
      </trkpt>
      <trkpt lat="44.58127" lon="5.11154">
        <ele>619</ele>
        <time>2024-08-15T12:15:17Z</time>
      </trkpt>
      <trkpt lat="44.5809" lon="5.11165">
        <ele>619</ele>
        <time>2024-08-15T12:15:23Z</time>
      </trkpt>
      <trkpt lat="44.58075" lon="5.11175">
        <ele>620</ele>
        <time>2024-08-15T12:15:26Z</time>
      </trkpt>
      <trkpt lat="44.58067" lon="5.11188">
        <ele>620</ele>
        <time>2024-08-15T12:15:28Z</time>
      </trkpt>
      <trkpt lat="44.58064" lon="5.11203">
        <ele>621</ele>
        <time>2024-08-15T12:15:30Z</time>
      </trkpt>
      <trkpt lat="44.58065" lon="5.11212">
        <ele>621</ele>
        <time>2024-08-15T12:15:32Z</time>
      </trkpt>
      <trkpt lat="44.58071" lon="5.11224">
        <ele>620</ele>
        <time>2024-08-15T12:15:33Z</time>
      </trkpt>
      <trkpt lat="44.58085" lon="5.11237">
        <ele>619</ele>
        <time>2024-08-15T12:15:36Z</time>
      </trkpt>
      <trkpt lat="44.58106" lon="5.11252">
        <ele>617</ele>
        <time>2024-08-15T12:15:41Z</time>
      </trkpt>
      <trkpt lat="44.58139" lon="5.11269">
        <ele>615</ele>
        <time>2024-08-15T12:15:47Z</time>
      </trkpt>
      <trkpt lat="44.58205" lon="5.11294">
        <ele>611</ele>
        <time>2024-08-15T12:15:59Z</time>
      </trkpt>
      <trkpt lat="44.58225" lon="5.11305">
        <ele>609</ele>
        <time>2024-08-15T12:16:03Z</time>
      </trkpt>
      <trkpt lat="44.58259" lon="5.11332">
        <ele>607</ele>
        <time>2024-08-15T12:16:10Z</time>
      </trkpt>
      <trkpt lat="44.58323" lon="5.11387">
        <ele>604</ele>
        <time>2024-08-15T12:16:23Z</time>
      </trkpt>
      <trkpt lat="44.58346" lon="5.11412">
        <ele>602</ele>
        <time>2024-08-15T12:16:28Z</time>
      </trkpt>
      <trkpt lat="44.58368" lon="5.11446">
        <ele>600</ele>
        <time>2024-08-15T12:16:34Z</time>
      </trkpt>
      <trkpt lat="44.5839" lon="5.11486">
        <ele>597</ele>
        <time>2024-08-15T12:16:41Z</time>
      </trkpt>
      <trkpt lat="44.58411" lon="5.11556">
        <ele>594</ele>
        <time>2024-08-15T12:16:50Z</time>
      </trkpt>
      <trkpt lat="44.58422" lon="5.11577">
        <ele>592</ele>
        <time>2024-08-15T12:16:53Z</time>
      </trkpt>
      <trkpt lat="44.5849" lon="5.11661">
        <ele>585</ele>
        <time>2024-08-15T12:17:10Z</time>
      </trkpt>
      <trkpt lat="44.58503" lon="5.11686">
        <ele>583</ele>
        <time>2024-08-15T12:17:13Z</time>
      </trkpt>
      <trkpt lat="44.58538" lon="5.11815">
        <ele>577</ele>
        <time>2024-08-15T12:17:31Z</time>
      </trkpt>
      <trkpt lat="44.58539" lon="5.11832">
        <ele>577</ele>
        <time>2024-08-15T12:17:33Z</time>
      </trkpt>
      <trkpt lat="44.58536" lon="5.11853">
        <ele>577</ele>
        <time>2024-08-15T12:17:36Z</time>
      </trkpt>
      <trkpt lat="44.58526" lon="5.11889">
        <ele>577</ele>
        <time>2024-08-15T12:17:41Z</time>
      </trkpt>
      <trkpt lat="44.58524" lon="5.11907">
        <ele>577</ele>
        <time>2024-08-15T12:17:43Z</time>
      </trkpt>
      <trkpt lat="44.58529" lon="5.11928">
        <ele>576</ele>
        <time>2024-08-15T12:17:46Z</time>
      </trkpt>
      <trkpt lat="44.58534" lon="5.11938">
        <ele>574</ele>
        <time>2024-08-15T12:17:47Z</time>
      </trkpt>
      <trkpt lat="44.5854" lon="5.11946">
        <ele>573</ele>
        <time>2024-08-15T12:17:49Z</time>
      </trkpt>
      <trkpt lat="44.58548" lon="5.11946">
        <ele>571</ele>
        <time>2024-08-15T12:17:50Z</time>
      </trkpt>
      <trkpt lat="44.58556" lon="5.1194">
        <ele>570</ele>
        <time>2024-08-15T12:17:52Z</time>
      </trkpt>
      <trkpt lat="44.58616" lon="5.11828">
        <ele>565</ele>
        <time>2024-08-15T12:18:10Z</time>
      </trkpt>
      <trkpt lat="44.58624" lon="5.11823">
        <ele>563</ele>
        <time>2024-08-15T12:18:11Z</time>
      </trkpt>
      <trkpt lat="44.58632" lon="5.11822">
        <ele>561</ele>
        <time>2024-08-15T12:18:13Z</time>
      </trkpt>
      <trkpt lat="44.5864" lon="5.11827">
        <ele>559</ele>
        <time>2024-08-15T12:18:14Z</time>
      </trkpt>
      <trkpt lat="44.58644" lon="5.11838">
        <ele>558</ele>
        <time>2024-08-15T12:18:16Z</time>
      </trkpt>
      <trkpt lat="44.58645" lon="5.11851">
        <ele>557</ele>
        <time>2024-08-15T12:18:17Z</time>
      </trkpt>
      <trkpt lat="44.58642" lon="5.11869">
        <ele>557</ele>
        <time>2024-08-15T12:18:20Z</time>
      </trkpt>
      <trkpt lat="44.58623" lon="5.11915">
        <ele>559</ele>
        <time>2024-08-15T12:18:27Z</time>
      </trkpt>
      <trkpt lat="44.58606" lon="5.11945">
        <ele>558</ele>
        <time>2024-08-15T12:18:31Z</time>
      </trkpt>
      <trkpt lat="44.58569" lon="5.11988">
        <ele>561</ele>
        <time>2024-08-15T12:18:40Z</time>
      </trkpt>
      <trkpt lat="44.5856" lon="5.12002">
        <ele>562</ele>
        <time>2024-08-15T12:18:42Z</time>
      </trkpt>
      <trkpt lat="44.58555" lon="5.12014">
        <ele>562</ele>
        <time>2024-08-15T12:18:44Z</time>
      </trkpt>
      <trkpt lat="44.5855" lon="5.12039">
        <ele>560</ele>
        <time>2024-08-15T12:18:47Z</time>
      </trkpt>
      <trkpt lat="44.58539" lon="5.12115">
        <ele>552</ele>
        <time>2024-08-15T12:18:57Z</time>
      </trkpt>
      <trkpt lat="44.58534" lon="5.12135">
        <ele>551</ele>
        <time>2024-08-15T12:19:00Z</time>
      </trkpt>
      <trkpt lat="44.58526" lon="5.1215">
        <ele>550</ele>
        <time>2024-08-15T12:19:02Z</time>
      </trkpt>
      <trkpt lat="44.58517" lon="5.12162">
        <ele>550</ele>
        <time>2024-08-15T12:19:04Z</time>
      </trkpt>
      <trkpt lat="44.58506" lon="5.12171">
        <ele>551</ele>
        <time>2024-08-15T12:19:07Z</time>
      </trkpt>
      <trkpt lat="44.58443" lon="5.12213">
        <ele>552</ele>
        <time>2024-08-15T12:19:19Z</time>
      </trkpt>
      <trkpt lat="44.58401" lon="5.12255">
        <ele>546</ele>
        <time>2024-08-15T12:19:28Z</time>
      </trkpt>
      <trkpt lat="44.58387" lon="5.12265">
        <ele>546</ele>
        <time>2024-08-15T12:19:31Z</time>
      </trkpt>
      <trkpt lat="44.58356" lon="5.12283">
        <ele>547</ele>
        <time>2024-08-15T12:19:37Z</time>
      </trkpt>
      <trkpt lat="44.58343" lon="5.12294">
        <ele>545</ele>
        <time>2024-08-15T12:19:40Z</time>
      </trkpt>
      <trkpt lat="44.58313" lon="5.12328">
        <ele>539</ele>
        <time>2024-08-15T12:19:47Z</time>
      </trkpt>
      <trkpt lat="44.58289" lon="5.12361">
        <ele>537</ele>
        <time>2024-08-15T12:19:53Z</time>
      </trkpt>
      <trkpt lat="44.58281" lon="5.12376">
        <ele>535</ele>
        <time>2024-08-15T12:19:55Z</time>
      </trkpt>
      <trkpt lat="44.5826" lon="5.12426">
        <ele>528</ele>
        <time>2024-08-15T12:20:02Z</time>
      </trkpt>
      <trkpt lat="44.58254" lon="5.12439">
        <ele>527</ele>
        <time>2024-08-15T12:20:04Z</time>
      </trkpt>
      <trkpt lat="44.58246" lon="5.1245">
        <ele>526</ele>
        <time>2024-08-15T12:20:06Z</time>
      </trkpt>
      <trkpt lat="44.58234" lon="5.12459">
        <ele>526</ele>
        <time>2024-08-15T12:20:09Z</time>
      </trkpt>
      <trkpt lat="44.58213" lon="5.12467">
        <ele>527</ele>
        <time>2024-08-15T12:20:13Z</time>
      </trkpt>
      <trkpt lat="44.58192" lon="5.12478">
        <ele>528</ele>
        <time>2024-08-15T12:20:17Z</time>
      </trkpt>
      <trkpt lat="44.58182" lon="5.12488">
        <ele>528</ele>
        <time>2024-08-15T12:20:19Z</time>
      </trkpt>
      <trkpt lat="44.58164" lon="5.12526">
        <ele>521</ele>
        <time>2024-08-15T12:20:25Z</time>
      </trkpt>
      <trkpt lat="44.5815" lon="5.12542">
        <ele>517</ele>
        <time>2024-08-15T12:20:28Z</time>
      </trkpt>
      <trkpt lat="44.58143" lon="5.12547">
        <ele>516</ele>
        <time>2024-08-15T12:20:29Z</time>
      </trkpt>
      <trkpt lat="44.58136" lon="5.12548">
        <ele>515</ele>
        <time>2024-08-15T12:20:30Z</time>
      </trkpt>
      <trkpt lat="44.58126" lon="5.12547">
        <ele>515</ele>
        <time>2024-08-15T12:20:32Z</time>
      </trkpt>
      <trkpt lat="44.58083" lon="5.12522">
        <ele>520</ele>
        <time>2024-08-15T12:20:40Z</time>
      </trkpt>
      <trkpt lat="44.5807" lon="5.12519">
        <ele>522</ele>
        <time>2024-08-15T12:20:43Z</time>
      </trkpt>
      <trkpt lat="44.58035" lon="5.1252">
        <ele>525</ele>
        <time>2024-08-15T12:20:49Z</time>
      </trkpt>
      <trkpt lat="44.58023" lon="5.12524">
        <ele>524</ele>
        <time>2024-08-15T12:20:51Z</time>
      </trkpt>
      <trkpt lat="44.58014" lon="5.1253">
        <ele>523</ele>
        <time>2024-08-15T12:20:53Z</time>
      </trkpt>
      <trkpt lat="44.58007" lon="5.12539">
        <ele>521</ele>
        <time>2024-08-15T12:20:55Z</time>
      </trkpt>
      <trkpt lat="44.57947" lon="5.12639">
        <ele>503</ele>
        <time>2024-08-15T12:21:11Z</time>
      </trkpt>
      <trkpt lat="44.57935" lon="5.12652">
        <ele>502</ele>
        <time>2024-08-15T12:21:14Z</time>
      </trkpt>
      <trkpt lat="44.57873" lon="5.127">
        <ele>497</ele>
        <time>2024-08-15T12:21:27Z</time>
      </trkpt>
      <trkpt lat="44.5785" lon="5.12726">
        <ele>494</ele>
        <time>2024-08-15T12:21:32Z</time>
      </trkpt>
      <trkpt lat="44.57841" lon="5.12744">
        <ele>492</ele>
        <time>2024-08-15T12:21:35Z</time>
      </trkpt>
      <trkpt lat="44.57839" lon="5.12751">
        <ele>491</ele>
        <time>2024-08-15T12:21:36Z</time>
      </trkpt>
      <trkpt lat="44.57839" lon="5.12762">
        <ele>491</ele>
        <time>2024-08-15T12:21:37Z</time>
      </trkpt>
      <trkpt lat="44.57845" lon="5.1277">
        <ele>490</ele>
        <time>2024-08-15T12:21:38Z</time>
      </trkpt>
      <trkpt lat="44.57851" lon="5.1277">
        <ele>490</ele>
        <time>2024-08-15T12:21:39Z</time>
      </trkpt>
      <trkpt lat="44.57877" lon="5.12753">
        <ele>490</ele>
        <time>2024-08-15T12:21:45Z</time>
      </trkpt>
      <trkpt lat="44.57889" lon="5.1275">
        <ele>490</ele>
        <time>2024-08-15T12:21:47Z</time>
      </trkpt>
      <trkpt lat="44.57897" lon="5.12751">
        <ele>489</ele>
        <time>2024-08-15T12:21:48Z</time>
      </trkpt>
      <trkpt lat="44.5793" lon="5.12763">
        <ele>486</ele>
        <time>2024-08-15T12:21:54Z</time>
      </trkpt>
      <trkpt lat="44.57941" lon="5.12763">
        <ele>485</ele>
        <time>2024-08-15T12:21:56Z</time>
      </trkpt>
      <trkpt lat="44.57952" lon="5.12758">
        <ele>484</ele>
        <time>2024-08-15T12:21:58Z</time>
      </trkpt>
      <trkpt lat="44.5796" lon="5.12746">
        <ele>484</ele>
        <time>2024-08-15T12:22:00Z</time>
      </trkpt>
      <trkpt lat="44.57976" lon="5.12717">
        <ele>486</ele>
        <time>2024-08-15T12:22:05Z</time>
      </trkpt>
      <trkpt lat="44.57983" lon="5.12709">
        <ele>486</ele>
        <time>2024-08-15T12:22:07Z</time>
      </trkpt>
      <trkpt lat="44.57991" lon="5.12705">
        <ele>485</ele>
        <time>2024-08-15T12:22:08Z</time>
      </trkpt>
      <trkpt lat="44.58004" lon="5.12701">
        <ele>484</ele>
        <time>2024-08-15T12:22:10Z</time>
      </trkpt>
      <trkpt lat="44.58014" lon="5.12702">
        <ele>484</ele>
        <time>2024-08-15T12:22:12Z</time>
      </trkpt>
      <trkpt lat="44.58026" lon="5.12713">
        <ele>483</ele>
        <time>2024-08-15T12:22:15Z</time>
      </trkpt>
      <trkpt lat="44.58045" lon="5.12751">
        <ele>478</ele>
        <time>2024-08-15T12:22:21Z</time>
      </trkpt>
      <trkpt lat="44.58049" lon="5.1277">
        <ele>478</ele>
        <time>2024-08-15T12:22:23Z</time>
      </trkpt>
      <trkpt lat="44.58047" lon="5.12792">
        <ele>477</ele>
        <time>2024-08-15T12:22:26Z</time>
      </trkpt>
      <trkpt lat="44.58035" lon="5.12842">
        <ele>474</ele>
        <time>2024-08-15T12:22:33Z</time>
      </trkpt>
      <trkpt lat="44.58019" lon="5.12894">
        <ele>468</ele>
        <time>2024-08-15T12:22:40Z</time>
      </trkpt>
      <trkpt lat="44.58018" lon="5.12914">
        <ele>466</ele>
        <time>2024-08-15T12:22:42Z</time>
      </trkpt>
      <trkpt lat="44.58022" lon="5.12973">
        <ele>460</ele>
        <time>2024-08-15T12:22:50Z</time>
      </trkpt>
      <trkpt lat="44.58027" lon="5.12988">
        <ele>460</ele>
        <time>2024-08-15T12:22:52Z</time>
      </trkpt>
      <trkpt lat="44.58034" lon="5.13">
        <ele>459</ele>
        <time>2024-08-15T12:22:54Z</time>
      </trkpt>
      <trkpt lat="44.58063" lon="5.1303">
        <ele>459</ele>
        <time>2024-08-15T12:23:00Z</time>
      </trkpt>
      <trkpt lat="44.58076" lon="5.13047">
        <ele>457</ele>
        <time>2024-08-15T12:23:04Z</time>
      </trkpt>
      <trkpt lat="44.58113" lon="5.13134">
        <ele>447</ele>
        <time>2024-08-15T12:23:16Z</time>
      </trkpt>
      <trkpt lat="44.58127" lon="5.13149">
        <ele>446</ele>
        <time>2024-08-15T12:23:20Z</time>
      </trkpt>
      <trkpt lat="44.58157" lon="5.13168">
        <ele>447</ele>
        <time>2024-08-15T12:23:25Z</time>
      </trkpt>
      <trkpt lat="44.58167" lon="5.13178">
        <ele>447</ele>
        <time>2024-08-15T12:23:28Z</time>
      </trkpt>
      <trkpt lat="44.5817" lon="5.13186">
        <ele>447</ele>
        <time>2024-08-15T12:23:29Z</time>
      </trkpt>
      <trkpt lat="44.58173" lon="5.13199">
        <ele>446</ele>
        <time>2024-08-15T12:23:30Z</time>
      </trkpt>
      <trkpt lat="44.58172" lon="5.13214">
        <ele>445</ele>
        <time>2024-08-15T12:23:32Z</time>
      </trkpt>
      <trkpt lat="44.58163" lon="5.13251">
        <ele>440</ele>
        <time>2024-08-15T12:23:37Z</time>
      </trkpt>
      <trkpt lat="44.58162" lon="5.13276">
        <ele>438</ele>
        <time>2024-08-15T12:23:41Z</time>
      </trkpt>
      <trkpt lat="44.58163" lon="5.13288">
        <ele>438</ele>
        <time>2024-08-15T12:23:42Z</time>
      </trkpt>
      <trkpt lat="44.58171" lon="5.13316">
        <ele>436</ele>
        <time>2024-08-15T12:23:46Z</time>
      </trkpt>
      <trkpt lat="44.58183" lon="5.13339">
        <ele>436</ele>
        <time>2024-08-15T12:23:49Z</time>
      </trkpt>
      <trkpt lat="44.58218" lon="5.13364">
        <ele>437</ele>
        <time>2024-08-15T12:23:56Z</time>
      </trkpt>
      <trkpt lat="44.58235" lon="5.13387">
        <ele>434</ele>
        <time>2024-08-15T12:24:01Z</time>
      </trkpt>
      <trkpt lat="44.58253" lon="5.13425">
        <ele>427</ele>
        <time>2024-08-15T12:24:06Z</time>
      </trkpt>
      <trkpt lat="44.58265" lon="5.13486">
        <ele>421</ele>
        <time>2024-08-15T12:24:14Z</time>
      </trkpt>
      <trkpt lat="44.58269" lon="5.13496">
        <ele>420</ele>
        <time>2024-08-15T12:24:16Z</time>
      </trkpt>
      <trkpt lat="44.58276" lon="5.13501">
        <ele>419</ele>
        <time>2024-08-15T12:24:17Z</time>
      </trkpt>
      <trkpt lat="44.58285" lon="5.13501">
        <ele>419</ele>
        <time>2024-08-15T12:24:19Z</time>
      </trkpt>
      <trkpt lat="44.58309" lon="5.13491">
        <ele>419</ele>
        <time>2024-08-15T12:24:23Z</time>
      </trkpt>
      <trkpt lat="44.58372" lon="5.13445">
        <ele>419</ele>
        <time>2024-08-15T12:24:36Z</time>
      </trkpt>
      <trkpt lat="44.58397" lon="5.13433">
        <ele>416</ele>
        <time>2024-08-15T12:24:41Z</time>
      </trkpt>
      <trkpt lat="44.58423" lon="5.13425">
        <ele>413</ele>
        <time>2024-08-15T12:24:45Z</time>
      </trkpt>
      <trkpt lat="44.58463" lon="5.13416">
        <ele>412</ele>
        <time>2024-08-15T12:24:53Z</time>
      </trkpt>
      <trkpt lat="44.58502" lon="5.13394">
        <ele>411</ele>
        <time>2024-08-15T12:25:00Z</time>
      </trkpt>
      <trkpt lat="44.58519" lon="5.13382">
        <ele>410</ele>
        <time>2024-08-15T12:25:04Z</time>
      </trkpt>
      <trkpt lat="44.58526" lon="5.1338">
        <ele>410</ele>
        <time>2024-08-15T12:25:05Z</time>
      </trkpt>
      <trkpt lat="44.58568" lon="5.1339">
        <ele>407</ele>
        <time>2024-08-15T12:25:12Z</time>
      </trkpt>
      <trkpt lat="44.58592" lon="5.13397">
        <ele>406</ele>
        <time>2024-08-15T12:25:17Z</time>
      </trkpt>
      <trkpt lat="44.58638" lon="5.13406">
        <ele>407</ele>
        <time>2024-08-15T12:25:25Z</time>
      </trkpt>
      <trkpt lat="44.58624" lon="5.13435">
        <ele>406</ele>
        <time>2024-08-15T12:25:29Z</time>
      </trkpt>
      <trkpt lat="44.58621" lon="5.13489">
        <ele>406</ele>
        <time>2024-08-15T12:25:36Z</time>
      </trkpt>
      <trkpt lat="44.58632" lon="5.13507">
        <ele>406</ele>
        <time>2024-08-15T12:25:39Z</time>
      </trkpt>
      <trkpt lat="44.58637" lon="5.13512">
        <ele>407</ele>
        <time>2024-08-15T12:25:40Z</time>
      </trkpt>
      <trkpt lat="44.58642" lon="5.1355">
        <ele>408</ele>
        <time>2024-08-15T12:25:45Z</time>
      </trkpt>
      <trkpt lat="44.58641" lon="5.1356">
        <ele>408</ele>
        <time>2024-08-15T12:25:47Z</time>
      </trkpt>
      <trkpt lat="44.58599" lon="5.13629">
        <ele>407</ele>
        <time>2024-08-15T12:25:58Z</time>
      </trkpt>
      <trkpt lat="44.58582" lon="5.13664">
        <ele>407</ele>
        <time>2024-08-15T12:26:03Z</time>
      </trkpt>
      <trkpt lat="44.58545" lon="5.13729">
        <ele>409</ele>
        <time>2024-08-15T12:26:14Z</time>
      </trkpt>
      <trkpt lat="44.58529" lon="5.13751">
        <ele>409</ele>
        <time>2024-08-15T12:26:18Z</time>
      </trkpt>
      <trkpt lat="44.5852" lon="5.13759">
        <ele>409</ele>
        <time>2024-08-15T12:26:20Z</time>
      </trkpt>
      <trkpt lat="44.58481" lon="5.13789">
        <ele>409</ele>
        <time>2024-08-15T12:26:28Z</time>
      </trkpt>
      <trkpt lat="44.58329" lon="5.13893">
        <ele>412</ele>
        <time>2024-08-15T12:26:58Z</time>
      </trkpt>
      <trkpt lat="44.58238" lon="5.13957">
        <ele>417</ele>
        <time>2024-08-15T12:27:16Z</time>
      </trkpt>
      <trkpt lat="44.58227" lon="5.13966">
        <ele>418</ele>
        <time>2024-08-15T12:27:18Z</time>
      </trkpt>
      <trkpt lat="44.58168" lon="5.1403">
        <ele>418</ele>
        <time>2024-08-15T12:27:32Z</time>
      </trkpt>
      <trkpt lat="44.57877" lon="5.14353">
        <ele>428</ele>
        <time>2024-08-15T12:28:38Z</time>
      </trkpt>
      <trkpt lat="44.57856" lon="5.1438">
        <ele>428</ele>
        <time>2024-08-15T12:28:43Z</time>
      </trkpt>
      <trkpt lat="44.57834" lon="5.14415">
        <ele>429</ele>
        <time>2024-08-15T12:28:48Z</time>
      </trkpt>
      <trkpt lat="44.57823" lon="5.14436">
        <ele>430</ele>
        <time>2024-08-15T12:28:52Z</time>
      </trkpt>
      <trkpt lat="44.57787" lon="5.1452">
        <ele>432</ele>
        <time>2024-08-15T12:29:04Z</time>
      </trkpt>
      <trkpt lat="44.57693" lon="5.14704">
        <ele>434</ele>
        <time>2024-08-15T12:29:33Z</time>
      </trkpt>
      <trkpt lat="44.57551" lon="5.15">
        <ele>436</ele>
        <time>2024-08-15T12:30:18Z</time>
      </trkpt>
      <trkpt lat="44.57526" lon="5.15058">
        <ele>437</ele>
        <time>2024-08-15T12:30:27Z</time>
      </trkpt>
      <trkpt lat="44.57506" lon="5.15124">
        <ele>438</ele>
        <time>2024-08-15T12:30:36Z</time>
      </trkpt>
      <trkpt lat="44.57498" lon="5.15144">
        <ele>439</ele>
        <time>2024-08-15T12:30:39Z</time>
      </trkpt>
      <trkpt lat="44.57484" lon="5.15169">
        <ele>440</ele>
        <time>2024-08-15T12:30:43Z</time>
      </trkpt>
      <trkpt lat="44.57474" lon="5.15179">
        <ele>441</ele>
        <time>2024-08-15T12:30:45Z</time>
      </trkpt>
      <trkpt lat="44.57461" lon="5.15189">
        <ele>440</ele>
        <time>2024-08-15T12:30:48Z</time>
      </trkpt>
      <trkpt lat="44.57412" lon="5.15218">
        <ele>435</ele>
        <time>2024-08-15T12:30:57Z</time>
      </trkpt>
      <trkpt lat="44.57381" lon="5.15242">
        <ele>436</ele>
        <time>2024-08-15T12:31:03Z</time>
      </trkpt>
      <trkpt lat="44.57362" lon="5.15266">
        <ele>435</ele>
        <time>2024-08-15T12:31:08Z</time>
      </trkpt>
      <trkpt lat="44.57244" lon="5.1544">
        <ele>434</ele>
        <time>2024-08-15T12:31:38Z</time>
      </trkpt>
      <trkpt lat="44.57179" lon="5.15538">
        <ele>435</ele>
        <time>2024-08-15T12:31:55Z</time>
      </trkpt>
      <trkpt lat="44.57166" lon="5.15559">
        <ele>434</ele>
        <time>2024-08-15T12:31:59Z</time>
      </trkpt>
      <trkpt lat="44.57159" lon="5.15578">
        <ele>436</ele>
        <time>2024-08-15T12:32:02Z</time>
      </trkpt>
      <trkpt lat="44.57153" lon="5.156">
        <ele>437</ele>
        <time>2024-08-15T12:32:05Z</time>
      </trkpt>
      <trkpt lat="44.57151" lon="5.15625">
        <ele>438</ele>
        <time>2024-08-15T12:32:08Z</time>
      </trkpt>
      <trkpt lat="44.57151" lon="5.15657">
        <ele>438</ele>
        <time>2024-08-15T12:32:12Z</time>
      </trkpt>
      <trkpt lat="44.57152" lon="5.15714">
        <ele>439</ele>
        <time>2024-08-15T12:32:19Z</time>
      </trkpt>
      <trkpt lat="44.57155" lon="5.15739">
        <ele>440</ele>
        <time>2024-08-15T12:32:22Z</time>
      </trkpt>
      <trkpt lat="44.57175" lon="5.15838">
        <ele>442</ele>
        <time>2024-08-15T12:32:35Z</time>
      </trkpt>
      <trkpt lat="44.57178" lon="5.15856">
        <ele>444</ele>
        <time>2024-08-15T12:32:38Z</time>
      </trkpt>
      <trkpt lat="44.57175" lon="5.15897">
        <ele>445</ele>
        <time>2024-08-15T12:32:43Z</time>
      </trkpt>
      <trkpt lat="44.57164" lon="5.15987">
        <ele>445</ele>
        <time>2024-08-15T12:32:54Z</time>
      </trkpt>
      <trkpt lat="44.57159" lon="5.16">
        <ele>444</ele>
        <time>2024-08-15T12:32:56Z</time>
      </trkpt>
      <trkpt lat="44.57152" lon="5.16012">
        <ele>443</ele>
        <time>2024-08-15T12:32:58Z</time>
      </trkpt>
      <trkpt lat="44.57138" lon="5.16027">
        <ele>442</ele>
        <time>2024-08-15T12:33:01Z</time>
      </trkpt>
      <trkpt lat="44.57125" lon="5.16037">
        <ele>441</ele>
        <time>2024-08-15T12:33:04Z</time>
      </trkpt>
      <trkpt lat="44.57015" lon="5.1612">
        <ele>442</ele>
        <time>2024-08-15T12:33:26Z</time>
      </trkpt>
      <trkpt lat="44.56998" lon="5.1613">
        <ele>442</ele>
        <time>2024-08-15T12:33:30Z</time>
      </trkpt>
      <trkpt lat="44.56985" lon="5.16134">
        <ele>442</ele>
        <time>2024-08-15T12:33:32Z</time>
      </trkpt>
      <trkpt lat="44.56968" lon="5.16134">
        <ele>442</ele>
        <time>2024-08-15T12:33:35Z</time>
      </trkpt>
      <trkpt lat="44.56797" lon="5.16081">
        <ele>442</ele>
        <time>2024-08-15T12:34:06Z</time>
      </trkpt>
      <trkpt lat="44.56776" lon="5.16076">
        <ele>443</ele>
        <time>2024-08-15T12:34:10Z</time>
      </trkpt>
      <trkpt lat="44.5676" lon="5.16076">
        <ele>443</ele>
        <time>2024-08-15T12:34:13Z</time>
      </trkpt>
      <trkpt lat="44.56747" lon="5.16078">
        <ele>444</ele>
        <time>2024-08-15T12:34:15Z</time>
      </trkpt>
      <trkpt lat="44.56734" lon="5.16084">
        <ele>444</ele>
        <time>2024-08-15T12:34:17Z</time>
      </trkpt>
      <trkpt lat="44.56659" lon="5.16131">
        <ele>450</ele>
        <time>2024-08-15T12:34:32Z</time>
      </trkpt>
      <trkpt lat="44.56582" lon="5.16174">
        <ele>451</ele>
        <time>2024-08-15T12:34:47Z</time>
      </trkpt>
      <trkpt lat="44.56569" lon="5.16177">
        <ele>452</ele>
        <time>2024-08-15T12:34:49Z</time>
      </trkpt>
      <trkpt lat="44.56555" lon="5.16176">
        <ele>454</ele>
        <time>2024-08-15T12:34:52Z</time>
      </trkpt>
      <trkpt lat="44.56517" lon="5.1616">
        <ele>456</ele>
        <time>2024-08-15T12:34:59Z</time>
      </trkpt>
      <trkpt lat="44.56472" lon="5.1613">
        <ele>459</ele>
        <time>2024-08-15T12:35:08Z</time>
      </trkpt>
      <trkpt lat="44.56457" lon="5.16116">
        <ele>460</ele>
        <time>2024-08-15T12:35:11Z</time>
      </trkpt>
      <trkpt lat="44.56446" lon="5.16101">
        <ele>460</ele>
        <time>2024-08-15T12:35:14Z</time>
      </trkpt>
      <trkpt lat="44.56417" lon="5.16038">
        <ele>459</ele>
        <time>2024-08-15T12:35:23Z</time>
      </trkpt>
      <trkpt lat="44.564" lon="5.15994">
        <ele>455</ele>
        <time>2024-08-15T12:35:29Z</time>
      </trkpt>
      <trkpt lat="44.56392" lon="5.15977">
        <ele>455</ele>
        <time>2024-08-15T12:35:32Z</time>
      </trkpt>
      <trkpt lat="44.56383" lon="5.15962">
        <ele>454</ele>
        <time>2024-08-15T12:35:34Z</time>
      </trkpt>
      <trkpt lat="44.56366" lon="5.15949">
        <ele>454</ele>
        <time>2024-08-15T12:35:38Z</time>
      </trkpt>
      <trkpt lat="44.56356" lon="5.15945">
        <ele>454</ele>
        <time>2024-08-15T12:35:40Z</time>
      </trkpt>
      <trkpt lat="44.56338" lon="5.15944">
        <ele>455</ele>
        <time>2024-08-15T12:35:43Z</time>
      </trkpt>
      <trkpt lat="44.56307" lon="5.15947">
        <ele>455</ele>
        <time>2024-08-15T12:35:48Z</time>
      </trkpt>
      <trkpt lat="44.56286" lon="5.15961">
        <ele>455</ele>
        <time>2024-08-15T12:35:53Z</time>
      </trkpt>
      <trkpt lat="44.56274" lon="5.15974">
        <ele>455</ele>
        <time>2024-08-15T12:35:55Z</time>
      </trkpt>
      <trkpt lat="44.5621" lon="5.16076">
        <ele>458</ele>
        <time>2024-08-15T12:36:13Z</time>
      </trkpt>
      <trkpt lat="44.56123" lon="5.16188">
        <ele>461</ele>
        <time>2024-08-15T12:36:34Z</time>
      </trkpt>
      <trkpt lat="44.56105" lon="5.16208">
        <ele>461</ele>
        <time>2024-08-15T12:36:38Z</time>
      </trkpt>
      <trkpt lat="44.56088" lon="5.16221">
        <ele>461</ele>
        <time>2024-08-15T12:36:41Z</time>
      </trkpt>
      <trkpt lat="44.55889" lon="5.1634">
        <ele>464</ele>
        <time>2024-08-15T12:37:20Z</time>
      </trkpt>
      <trkpt lat="44.55807" lon="5.16401">
        <ele>469</ele>
        <time>2024-08-15T12:37:36Z</time>
      </trkpt>
      <trkpt lat="44.55759" lon="5.16444">
        <ele>471</ele>
        <time>2024-08-15T12:37:46Z</time>
      </trkpt>
      <trkpt lat="44.55721" lon="5.16502">
        <ele>475</ele>
        <time>2024-08-15T12:37:56Z</time>
      </trkpt>
      <trkpt lat="44.5571" lon="5.16513">
        <ele>475</ele>
        <time>2024-08-15T12:37:59Z</time>
      </trkpt>
      <trkpt lat="44.55651" lon="5.16562">
        <ele>478</ele>
        <time>2024-08-15T12:38:11Z</time>
      </trkpt>
      <trkpt lat="44.55591" lon="5.16609">
        <ele>478</ele>
        <time>2024-08-15T12:38:23Z</time>
      </trkpt>
      <trkpt lat="44.55572" lon="5.16628">
        <ele>478</ele>
        <time>2024-08-15T12:38:27Z</time>
      </trkpt>
      <trkpt lat="44.5556" lon="5.16668">
        <ele>479</ele>
        <time>2024-08-15T12:38:33Z</time>
      </trkpt>
      <trkpt lat="44.55556" lon="5.167">
        <ele>481</ele>
        <time>2024-08-15T12:38:37Z</time>
      </trkpt>
      <trkpt lat="44.55556" lon="5.16755">
        <ele>484</ele>
        <time>2024-08-15T12:38:44Z</time>
      </trkpt>
      <trkpt lat="44.5555" lon="5.16807">
        <ele>484</ele>
        <time>2024-08-15T12:38:50Z</time>
      </trkpt>
      <trkpt lat="44.55513" lon="5.16932">
        <ele>481</ele>
        <time>2024-08-15T12:39:08Z</time>
      </trkpt>
      <trkpt lat="44.55444" lon="5.17184">
        <ele>482</ele>
        <time>2024-08-15T12:39:42Z</time>
      </trkpt>
      <trkpt lat="44.55433" lon="5.17209">
        <ele>484</ele>
        <time>2024-08-15T12:39:46Z</time>
      </trkpt>
      <trkpt lat="44.55412" lon="5.17245">
        <ele>485</ele>
        <time>2024-08-15T12:39:51Z</time>
      </trkpt>
      <trkpt lat="44.55249" lon="5.17501">
        <ele>492</ele>
        <time>2024-08-15T12:40:35Z</time>
      </trkpt>
      <trkpt lat="44.55235" lon="5.1753">
        <ele>495</ele>
        <time>2024-08-15T12:40:39Z</time>
      </trkpt>
      <trkpt lat="44.55167" lon="5.17679">
        <ele>504</ele>
        <time>2024-08-15T12:41:02Z</time>
      </trkpt>
      <trkpt lat="44.55157" lon="5.17704">
        <ele>510</ele>
        <time>2024-08-15T12:41:06Z</time>
      </trkpt>
      <trkpt lat="44.55149" lon="5.17751">
        <ele>518</ele>
        <time>2024-08-15T12:41:12Z</time>
      </trkpt>
      <trkpt lat="44.55134" lon="5.17795">
        <ele>524</ele>
        <time>2024-08-15T12:41:18Z</time>
      </trkpt>
      <trkpt lat="44.55131" lon="5.17814">
        <ele>525</ele>
        <time>2024-08-15T12:41:20Z</time>
      </trkpt>
      <trkpt lat="44.55129" lon="5.17859">
        <ele>529</ele>
        <time>2024-08-15T12:41:26Z</time>
      </trkpt>
      <trkpt lat="44.55121" lon="5.17886">
        <ele>530</ele>
        <time>2024-08-15T12:41:30Z</time>
      </trkpt>
      <trkpt lat="44.55102" lon="5.17924">
        <ele>524</ele>
        <time>2024-08-15T12:41:36Z</time>
      </trkpt>
      <trkpt lat="44.55088" lon="5.17974">
        <ele>519</ele>
        <time>2024-08-15T12:41:42Z</time>
      </trkpt>
      <trkpt lat="44.55068" lon="5.18107">
        <ele>529</ele>
        <time>2024-08-15T12:42:00Z</time>
      </trkpt>
      <trkpt lat="44.55055" lon="5.18163">
        <ele>530</ele>
        <time>2024-08-15T12:42:07Z</time>
      </trkpt>
      <trkpt lat="44.55055" lon="5.18184">
        <ele>528</ele>
        <time>2024-08-15T12:42:10Z</time>
      </trkpt>
      <trkpt lat="44.55061" lon="5.18203">
        <ele>526</ele>
        <time>2024-08-15T12:42:12Z</time>
      </trkpt>
      <trkpt lat="44.55093" lon="5.18253">
        <ele>523</ele>
        <time>2024-08-15T12:42:21Z</time>
      </trkpt>
      <trkpt lat="44.55105" lon="5.18285">
        <ele>522</ele>
        <time>2024-08-15T12:42:26Z</time>
      </trkpt>
      <trkpt lat="44.55109" lon="5.18319">
        <ele>520</ele>
        <time>2024-08-15T12:42:30Z</time>
      </trkpt>
      <trkpt lat="44.55109" lon="5.18334">
        <ele>519</ele>
        <time>2024-08-15T12:42:32Z</time>
      </trkpt>
      <trkpt lat="44.55102" lon="5.18358">
        <ele>523</ele>
        <time>2024-08-15T12:42:35Z</time>
      </trkpt>
      <trkpt lat="44.55057" lon="5.18444">
        <ele>529</ele>
        <time>2024-08-15T12:42:49Z</time>
      </trkpt>
      <trkpt lat="44.55011" lon="5.18506">
        <ele>528</ele>
        <time>2024-08-15T12:43:00Z</time>
      </trkpt>
      <trkpt lat="44.54987" lon="5.18565">
        <ele>535</ele>
        <time>2024-08-15T12:43:09Z</time>
      </trkpt>
      <trkpt lat="44.54973" lon="5.18586">
        <ele>535</ele>
        <time>2024-08-15T12:43:12Z</time>
      </trkpt>
      <trkpt lat="44.54958" lon="5.186">
        <ele>534</ele>
        <time>2024-08-15T12:43:15Z</time>
      </trkpt>
      <trkpt lat="44.54908" lon="5.18637">
        <ele>532</ele>
        <time>2024-08-15T12:43:25Z</time>
      </trkpt>
      <trkpt lat="44.54859" lon="5.1867">
        <ele>534</ele>
        <time>2024-08-15T12:43:35Z</time>
      </trkpt>
      <trkpt lat="44.54823" lon="5.18713">
        <ele>539</ele>
        <time>2024-08-15T12:43:44Z</time>
      </trkpt>
      <trkpt lat="44.54805" lon="5.18731">
        <ele>542</ele>
        <time>2024-08-15T12:43:47Z</time>
      </trkpt>
      <trkpt lat="44.54793" lon="5.18735">
        <ele>542</ele>
        <time>2024-08-15T12:43:50Z</time>
      </trkpt>
      <trkpt lat="44.54781" lon="5.18735">
        <ele>542</ele>
        <time>2024-08-15T12:43:52Z</time>
      </trkpt>
      <trkpt lat="44.54756" lon="5.18726">
        <ele>538</ele>
        <time>2024-08-15T12:43:56Z</time>
      </trkpt>
      <trkpt lat="44.54738" lon="5.18724">
        <ele>537</ele>
        <time>2024-08-15T12:44:00Z</time>
      </trkpt>
      <trkpt lat="44.54672" lon="5.18731">
        <ele>536</ele>
        <time>2024-08-15T12:44:11Z</time>
      </trkpt>
      <trkpt lat="44.54652" lon="5.18741">
        <ele>536</ele>
        <time>2024-08-15T12:44:15Z</time>
      </trkpt>
      <trkpt lat="44.54583" lon="5.18825">
        <ele>553</ele>
        <time>2024-08-15T12:44:31Z</time>
      </trkpt>
      <trkpt lat="44.54561" lon="5.18839">
        <ele>556</ele>
        <time>2024-08-15T12:44:36Z</time>
      </trkpt>
      <trkpt lat="44.54522" lon="5.18846">
        <ele>553</ele>
        <time>2024-08-15T12:44:43Z</time>
      </trkpt>
      <trkpt lat="44.54452" lon="5.18851">
        <ele>546</ele>
        <time>2024-08-15T12:44:55Z</time>
      </trkpt>
      <trkpt lat="44.54431" lon="5.18862">
        <ele>546</ele>
        <time>2024-08-15T12:44:59Z</time>
      </trkpt>
      <trkpt lat="44.54402" lon="5.18891">
        <ele>549</ele>
        <time>2024-08-15T12:45:06Z</time>
      </trkpt>
      <trkpt lat="44.54351" lon="5.18978">
        <ele>553</ele>
        <time>2024-08-15T12:45:20Z</time>
      </trkpt>
      <trkpt lat="44.54314" lon="5.19022">
        <ele>556</ele>
        <time>2024-08-15T12:45:28Z</time>
      </trkpt>
      <trkpt lat="44.54253" lon="5.19076">
        <ele>556</ele>
        <time>2024-08-15T12:45:41Z</time>
      </trkpt>
      <trkpt lat="44.5418" lon="5.1912">
        <ele>553</ele>
        <time>2024-08-15T12:45:55Z</time>
      </trkpt>
      <trkpt lat="44.54116" lon="5.19176">
        <ele>553</ele>
        <time>2024-08-15T12:46:09Z</time>
      </trkpt>
      <trkpt lat="44.54103" lon="5.19196">
        <ele>554</ele>
        <time>2024-08-15T12:46:12Z</time>
      </trkpt>
      <trkpt lat="44.54085" lon="5.19256">
        <ele>559</ele>
        <time>2024-08-15T12:46:21Z</time>
      </trkpt>
      <trkpt lat="44.54077" lon="5.19275">
        <ele>562</ele>
        <time>2024-08-15T12:46:23Z</time>
      </trkpt>
      <trkpt lat="44.54038" lon="5.19341">
        <ele>562</ele>
        <time>2024-08-15T12:46:34Z</time>
      </trkpt>
      <trkpt lat="44.54031" lon="5.19371">
        <ele>563</ele>
        <time>2024-08-15T12:46:38Z</time>
      </trkpt>
      <trkpt lat="44.54024" lon="5.19425">
        <ele>566</ele>
        <time>2024-08-15T12:46:45Z</time>
      </trkpt>
      <trkpt lat="44.54015" lon="5.19453">
        <ele>566</ele>
        <time>2024-08-15T12:46:49Z</time>
      </trkpt>
      <trkpt lat="44.54008" lon="5.19469">
        <ele>565</ele>
        <time>2024-08-15T12:46:51Z</time>
      </trkpt>
      <trkpt lat="44.53994" lon="5.1949">
        <ele>562</ele>
        <time>2024-08-15T12:46:55Z</time>
      </trkpt>
      <trkpt lat="44.53982" lon="5.19503">
        <ele>561</ele>
        <time>2024-08-15T12:46:58Z</time>
      </trkpt>
      <trkpt lat="44.53971" lon="5.19513">
        <ele>559</ele>
        <time>2024-08-15T12:47:00Z</time>
      </trkpt>
      <trkpt lat="44.5395" lon="5.19534">
        <ele>557</ele>
        <time>2024-08-15T12:47:05Z</time>
      </trkpt>
      <trkpt lat="44.53939" lon="5.1955">
        <ele>556</ele>
        <time>2024-08-15T12:47:08Z</time>
      </trkpt>
      <trkpt lat="44.5393" lon="5.19567">
        <ele>555</ele>
        <time>2024-08-15T12:47:10Z</time>
      </trkpt>
      <trkpt lat="44.53924" lon="5.19583">
        <ele>555</ele>
        <time>2024-08-15T12:47:12Z</time>
      </trkpt>
      <trkpt lat="44.53914" lon="5.19628">
        <ele>557</ele>
        <time>2024-08-15T12:47:18Z</time>
      </trkpt>
      <trkpt lat="44.53907" lon="5.19646">
        <ele>557</ele>
        <time>2024-08-15T12:47:21Z</time>
      </trkpt>
      <trkpt lat="44.53845" lon="5.19795">
        <ele>563</ele>
        <time>2024-08-15T12:47:43Z</time>
      </trkpt>
      <trkpt lat="44.53825" lon="5.19827">
        <ele>564</ele>
        <time>2024-08-15T12:47:48Z</time>
      </trkpt>
      <trkpt lat="44.53789" lon="5.19869">
        <ele>568</ele>
        <time>2024-08-15T12:47:57Z</time>
      </trkpt>
      <trkpt lat="44.53733" lon="5.19952">
        <ele>572</ele>
        <time>2024-08-15T12:48:11Z</time>
      </trkpt>
      <trkpt lat="44.53692" lon="5.20002">
        <ele>568</ele>
        <time>2024-08-15T12:48:21Z</time>
      </trkpt>
      <trkpt lat="44.5368" lon="5.20021">
        <ele>567</ele>
        <time>2024-08-15T12:48:24Z</time>
      </trkpt>
      <trkpt lat="44.53672" lon="5.20037">
        <ele>566</ele>
        <time>2024-08-15T12:48:27Z</time>
      </trkpt>
      <trkpt lat="44.53661" lon="5.20065">
        <ele>567</ele>
        <time>2024-08-15T12:48:31Z</time>
      </trkpt>
      <trkpt lat="44.53648" lon="5.20089">
        <ele>567</ele>
        <time>2024-08-15T12:48:34Z</time>
      </trkpt>
      <trkpt lat="44.53606" lon="5.20153">
        <ele>565</ele>
        <time>2024-08-15T12:48:45Z</time>
      </trkpt>
      <trkpt lat="44.53593" lon="5.20175">
        <ele>564</ele>
        <time>2024-08-15T12:48:49Z</time>
      </trkpt>
      <trkpt lat="44.53581" lon="5.20199">
        <ele>565</ele>
        <time>2024-08-15T12:48:53Z</time>
      </trkpt>
      <trkpt lat="44.53559" lon="5.20235">
        <ele>568</ele>
        <time>2024-08-15T12:48:59Z</time>
      </trkpt>
      <trkpt lat="44.53545" lon="5.20254">
        <ele>568</ele>
        <time>2024-08-15T12:49:02Z</time>
      </trkpt>
      <trkpt lat="44.53538" lon="5.20267">
        <ele>568</ele>
        <time>2024-08-15T12:49:04Z</time>
      </trkpt>
      <trkpt lat="44.53535" lon="5.20278">
        <ele>568</ele>
        <time>2024-08-15T12:49:06Z</time>
      </trkpt>
      <trkpt lat="44.53528" lon="5.20328">
        <ele>570</ele>
        <time>2024-08-15T12:49:12Z</time>
      </trkpt>
      <trkpt lat="44.53527" lon="5.2035">
        <ele>571</ele>
        <time>2024-08-15T12:49:15Z</time>
      </trkpt>
      <trkpt lat="44.53529" lon="5.20401">
        <ele>575</ele>
        <time>2024-08-15T12:49:22Z</time>
      </trkpt>
      <trkpt lat="44.53528" lon="5.20431">
        <ele>577</ele>
        <time>2024-08-15T12:49:25Z</time>
      </trkpt>
      <trkpt lat="44.53522" lon="5.20469">
        <ele>579</ele>
        <time>2024-08-15T12:49:30Z</time>
      </trkpt>
      <trkpt lat="44.53509" lon="5.20515">
        <ele>578</ele>
        <time>2024-08-15T12:49:37Z</time>
      </trkpt>
      <trkpt lat="44.53498" lon="5.20533">
        <ele>578</ele>
        <time>2024-08-15T12:49:40Z</time>
      </trkpt>
      <trkpt lat="44.53487" lon="5.20544">
        <ele>580</ele>
        <time>2024-08-15T12:49:42Z</time>
      </trkpt>
      <trkpt lat="44.5347" lon="5.20555">
        <ele>579</ele>
        <time>2024-08-15T12:49:45Z</time>
      </trkpt>
      <trkpt lat="44.5345" lon="5.20567">
        <ele>578</ele>
        <time>2024-08-15T12:49:49Z</time>
      </trkpt>
      <trkpt lat="44.53398" lon="5.20586">
        <ele>570</ele>
        <time>2024-08-15T12:49:59Z</time>
      </trkpt>
      <trkpt lat="44.53381" lon="5.20596">
        <ele>570</ele>
        <time>2024-08-15T12:50:02Z</time>
      </trkpt>
      <trkpt lat="44.53373" lon="5.20603">
        <ele>569</ele>
        <time>2024-08-15T12:50:04Z</time>
      </trkpt>
      <trkpt lat="44.53362" lon="5.20618">
        <ele>570</ele>
        <time>2024-08-15T12:50:06Z</time>
      </trkpt>
      <trkpt lat="44.53352" lon="5.2064">
        <ele>570</ele>
        <time>2024-08-15T12:50:10Z</time>
      </trkpt>
      <trkpt lat="44.53346" lon="5.20665">
        <ele>571</ele>
        <time>2024-08-15T12:50:13Z</time>
      </trkpt>
      <trkpt lat="44.53323" lon="5.20829">
        <ele>576</ele>
        <time>2024-08-15T12:50:34Z</time>
      </trkpt>
      <trkpt lat="44.53312" lon="5.20873">
        <ele>578</ele>
        <time>2024-08-15T12:50:40Z</time>
      </trkpt>
      <trkpt lat="44.5329" lon="5.20944">
        <ele>578</ele>
        <time>2024-08-15T12:50:50Z</time>
      </trkpt>
      <trkpt lat="44.53285" lon="5.2097">
        <ele>577</ele>
        <time>2024-08-15T12:50:53Z</time>
      </trkpt>
      <trkpt lat="44.53286" lon="5.20987">
        <ele>578</ele>
        <time>2024-08-15T12:50:56Z</time>
      </trkpt>
      <trkpt lat="44.53291" lon="5.21009">
        <ele>578</ele>
        <time>2024-08-15T12:50:59Z</time>
      </trkpt>
      <trkpt lat="44.53326" lon="5.21113">
        <ele>581</ele>
        <time>2024-08-15T12:51:13Z</time>
      </trkpt>
      <trkpt lat="44.53351" lon="5.21176">
        <ele>582</ele>
        <time>2024-08-15T12:51:22Z</time>
      </trkpt>
      <trkpt lat="44.5336" lon="5.21192">
        <ele>583</ele>
        <time>2024-08-15T12:51:25Z</time>
      </trkpt>
      <trkpt lat="44.53392" lon="5.21226">
        <ele>585</ele>
        <time>2024-08-15T12:51:32Z</time>
      </trkpt>
      <trkpt lat="44.53414" lon="5.21254">
        <ele>586</ele>
        <time>2024-08-15T12:51:37Z</time>
      </trkpt>
      <trkpt lat="44.53429" lon="5.21277">
        <ele>588</ele>
        <time>2024-08-15T12:51:41Z</time>
      </trkpt>
      <trkpt lat="44.53453" lon="5.21323">
        <ele>590</ele>
        <time>2024-08-15T12:51:48Z</time>
      </trkpt>
      <trkpt lat="44.53461" lon="5.2135">
        <ele>590</ele>
        <time>2024-08-15T12:51:52Z</time>
      </trkpt>
      <trkpt lat="44.53462" lon="5.21359">
        <ele>590</ele>
        <time>2024-08-15T12:51:53Z</time>
      </trkpt>
      <trkpt lat="44.53459" lon="5.21387">
        <ele>588</ele>
        <time>2024-08-15T12:51:57Z</time>
      </trkpt>
      <trkpt lat="44.53455" lon="5.21399">
        <ele>587</ele>
        <time>2024-08-15T12:51:59Z</time>
      </trkpt>
      <trkpt lat="44.53446" lon="5.21413">
        <ele>586</ele>
        <time>2024-08-15T12:52:01Z</time>
      </trkpt>
      <trkpt lat="44.5338" lon="5.21515">
        <ele>587</ele>
        <time>2024-08-15T12:52:18Z</time>
      </trkpt>
      <trkpt lat="44.53362" lon="5.21532">
        <ele>588</ele>
        <time>2024-08-15T12:52:22Z</time>
      </trkpt>
      <trkpt lat="44.53152" lon="5.2168">
        <ele>588</ele>
        <time>2024-08-15T12:53:04Z</time>
      </trkpt>
      <trkpt lat="44.52887" lon="5.21811">
        <ele>591</ele>
        <time>2024-08-15T12:53:54Z</time>
      </trkpt>
      <trkpt lat="44.52772" lon="5.21871">
        <ele>590</ele>
        <time>2024-08-15T12:54:16Z</time>
      </trkpt>
      <trkpt lat="44.5275" lon="5.21881">
        <ele>590</ele>
        <time>2024-08-15T12:54:20Z</time>
      </trkpt>
      <trkpt lat="44.52735" lon="5.21883">
        <ele>590</ele>
        <time>2024-08-15T12:54:23Z</time>
      </trkpt>
      <trkpt lat="44.52715" lon="5.21883">
        <ele>591</ele>
        <time>2024-08-15T12:54:26Z</time>
      </trkpt>
      <trkpt lat="44.52472" lon="5.21824">
        <ele>593</ele>
        <time>2024-08-15T12:55:10Z</time>
      </trkpt>
      <trkpt lat="44.52407" lon="5.2182">
        <ele>597</ele>
        <time>2024-08-15T12:55:22Z</time>
      </trkpt>
      <trkpt lat="44.52383" lon="5.21814">
        <ele>597</ele>
        <time>2024-08-15T12:55:26Z</time>
      </trkpt>
      <trkpt lat="44.52368" lon="5.21809">
        <ele>598</ele>
        <time>2024-08-15T12:55:29Z</time>
      </trkpt>
      <trkpt lat="44.52349" lon="5.21798">
        <ele>597</ele>
        <time>2024-08-15T12:55:33Z</time>
      </trkpt>
      <trkpt lat="44.52296" lon="5.21755">
        <ele>596</ele>
        <time>2024-08-15T12:55:43Z</time>
      </trkpt>
      <trkpt lat="44.52271" lon="5.21745">
        <ele>596</ele>
        <time>2024-08-15T12:55:48Z</time>
      </trkpt>
      <trkpt lat="44.52244" lon="5.21751">
        <ele>597</ele>
        <time>2024-08-15T12:55:53Z</time>
      </trkpt>
      <trkpt lat="44.52215" lon="5.21762">
        <ele>600</ele>
        <time>2024-08-15T12:55:58Z</time>
      </trkpt>
      <trkpt lat="44.52202" lon="5.21765">
        <ele>600</ele>
        <time>2024-08-15T12:56:01Z</time>
      </trkpt>
      <trkpt lat="44.52181" lon="5.2176">
        <ele>601</ele>
        <time>2024-08-15T12:56:04Z</time>
      </trkpt>
      <trkpt lat="44.52024" lon="5.2169">
        <ele>607</ele>
        <time>2024-08-15T12:56:34Z</time>
      </trkpt>
      <trkpt lat="44.51976" lon="5.21674">
        <ele>609</ele>
        <time>2024-08-15T12:56:42Z</time>
      </trkpt>
      <trkpt lat="44.51954" lon="5.21655">
        <ele>611</ele>
        <time>2024-08-15T12:56:47Z</time>
      </trkpt>
      <trkpt lat="44.51933" lon="5.21634">
        <ele>612</ele>
        <time>2024-08-15T12:56:52Z</time>
      </trkpt>
      <trkpt lat="44.5192" lon="5.21622">
        <ele>612</ele>
        <time>2024-08-15T12:56:54Z</time>
      </trkpt>
      <trkpt lat="44.51865" lon="5.21583">
        <ele>613</ele>
        <time>2024-08-15T12:57:05Z</time>
      </trkpt>
      <trkpt lat="44.51848" lon="5.21575">
        <ele>613</ele>
        <time>2024-08-15T12:57:09Z</time>
      </trkpt>
      <trkpt lat="44.51776" lon="5.21556">
        <ele>616</ele>
        <time>2024-08-15T12:57:22Z</time>
      </trkpt>
      <trkpt lat="44.51758" lon="5.21555">
        <ele>617</ele>
        <time>2024-08-15T12:57:25Z</time>
      </trkpt>
      <trkpt lat="44.51693" lon="5.21559">
        <ele>616</ele>
        <time>2024-08-15T12:57:36Z</time>
      </trkpt>
      <trkpt lat="44.51672" lon="5.21591">
        <ele>616</ele>
        <time>2024-08-15T12:57:42Z</time>
      </trkpt>
      <trkpt lat="44.51652" lon="5.2161">
        <ele>619</ele>
        <time>2024-08-15T12:57:46Z</time>
      </trkpt>
      <trkpt lat="44.51623" lon="5.21647">
        <ele>623</ele>
        <time>2024-08-15T12:57:53Z</time>
      </trkpt>
      <trkpt lat="44.51601" lon="5.21668">
        <ele>622</ele>
        <time>2024-08-15T12:57:58Z</time>
      </trkpt>
      <trkpt lat="44.51576" lon="5.21706">
        <ele>624</ele>
        <time>2024-08-15T12:58:04Z</time>
      </trkpt>
      <trkpt lat="44.51549" lon="5.21807">
        <ele>634</ele>
        <time>2024-08-15T12:58:18Z</time>
      </trkpt>
      <trkpt lat="44.51538" lon="5.21859">
        <ele>636</ele>
        <time>2024-08-15T12:58:25Z</time>
      </trkpt>
      <trkpt lat="44.51519" lon="5.21893">
        <ele>635</ele>
        <time>2024-08-15T12:58:31Z</time>
      </trkpt>
      <trkpt lat="44.51476" lon="5.21981">
        <ele>643</ele>
        <time>2024-08-15T12:58:44Z</time>
      </trkpt>
      <trkpt lat="44.51436" lon="5.22096">
        <ele>642</ele>
        <time>2024-08-15T12:59:00Z</time>
      </trkpt>
      <trkpt lat="44.51428" lon="5.22146">
        <ele>642</ele>
        <time>2024-08-15T12:59:07Z</time>
      </trkpt>
      <trkpt lat="44.51411" lon="5.22218">
        <ele>642</ele>
        <time>2024-08-15T12:59:16Z</time>
      </trkpt>
      <trkpt lat="44.51403" lon="5.22246">
        <ele>644</ele>
        <time>2024-08-15T12:59:20Z</time>
      </trkpt>
      <trkpt lat="44.51392" lon="5.22274">
        <ele>646</ele>
        <time>2024-08-15T12:59:24Z</time>
      </trkpt>
      <trkpt lat="44.51338" lon="5.22376">
        <ele>648</ele>
        <time>2024-08-15T12:59:40Z</time>
      </trkpt>
      <trkpt lat="44.51326" lon="5.22404">
        <ele>650</ele>
        <time>2024-08-15T12:59:45Z</time>
      </trkpt>
      <trkpt lat="44.51319" lon="5.22428">
        <ele>653</ele>
        <time>2024-08-15T12:59:48Z</time>
      </trkpt>
      <trkpt lat="44.5131" lon="5.22478">
        <ele>658</ele>
        <time>2024-08-15T12:59:54Z</time>
      </trkpt>
      <trkpt lat="44.51297" lon="5.22538">
        <ele>662</ele>
        <time>2024-08-15T13:00:02Z</time>
      </trkpt>
      <trkpt lat="44.51296" lon="5.22549">
        <ele>663</ele>
        <time>2024-08-15T13:00:04Z</time>
      </trkpt>
      <trkpt lat="44.51298" lon="5.22593">
        <ele>668</ele>
        <time>2024-08-15T13:00:09Z</time>
      </trkpt>
      <trkpt lat="44.51296" lon="5.22634">
        <ele>672</ele>
        <time>2024-08-15T13:00:15Z</time>
      </trkpt>
      <trkpt lat="44.51293" lon="5.22654">
        <ele>673</ele>
        <time>2024-08-15T13:00:17Z</time>
      </trkpt>
      <trkpt lat="44.51288" lon="5.22673">
        <ele>672</ele>
        <time>2024-08-15T13:00:20Z</time>
      </trkpt>
      <trkpt lat="44.5126" lon="5.22718">
        <ele>665</ele>
        <time>2024-08-15T13:00:27Z</time>
      </trkpt>
      <trkpt lat="44.51253" lon="5.22734">
        <ele>663</ele>
        <time>2024-08-15T13:00:30Z</time>
      </trkpt>
      <trkpt lat="44.51248" lon="5.22748">
        <ele>664</ele>
        <time>2024-08-15T13:00:32Z</time>
      </trkpt>
      <trkpt lat="44.51245" lon="5.22771">
        <ele>664</ele>
        <time>2024-08-15T13:00:35Z</time>
      </trkpt>
      <trkpt lat="44.51247" lon="5.2279">
        <ele>664</ele>
        <time>2024-08-15T13:00:37Z</time>
      </trkpt>
      <trkpt lat="44.51251" lon="5.22805">
        <ele>664</ele>
        <time>2024-08-15T13:00:39Z</time>
      </trkpt>
      <trkpt lat="44.513" lon="5.22892">
        <ele>672</ele>
        <time>2024-08-15T13:00:53Z</time>
      </trkpt>
      <trkpt lat="44.5131" lon="5.22913">
        <ele>672</ele>
        <time>2024-08-15T13:00:56Z</time>
      </trkpt>
      <trkpt lat="44.51314" lon="5.22926">
        <ele>673</ele>
        <time>2024-08-15T13:00:58Z</time>
      </trkpt>
      <trkpt lat="44.51316" lon="5.22941">
        <ele>675</ele>
        <time>2024-08-15T13:01:00Z</time>
      </trkpt>
      <trkpt lat="44.51313" lon="5.22959">
        <ele>677</ele>
        <time>2024-08-15T13:01:02Z</time>
      </trkpt>
      <trkpt lat="44.51307" lon="5.2297">
        <ele>677</ele>
        <time>2024-08-15T13:01:04Z</time>
      </trkpt>
      <trkpt lat="44.51299" lon="5.22981">
        <ele>677</ele>
        <time>2024-08-15T13:01:06Z</time>
      </trkpt>
      <trkpt lat="44.51274" lon="5.23003">
        <ele>676</ele>
        <time>2024-08-15T13:01:11Z</time>
      </trkpt>
      <trkpt lat="44.51257" lon="5.23024">
        <ele>677</ele>
        <time>2024-08-15T13:01:16Z</time>
      </trkpt>
      <trkpt lat="44.51232" lon="5.23065">
        <ele>680</ele>
        <time>2024-08-15T13:01:22Z</time>
      </trkpt>
      <trkpt lat="44.51222" lon="5.23076">
        <ele>681</ele>
        <time>2024-08-15T13:01:25Z</time>
      </trkpt>
      <trkpt lat="44.51195" lon="5.23094">
        <ele>680</ele>
        <time>2024-08-15T13:01:30Z</time>
      </trkpt>
      <trkpt lat="44.51192" lon="5.23105">
        <ele>682</ele>
        <time>2024-08-15T13:01:31Z</time>
      </trkpt>
      <trkpt lat="44.51197" lon="5.23111">
        <ele>683</ele>
        <time>2024-08-15T13:01:33Z</time>
      </trkpt>
      <trkpt lat="44.51201" lon="5.23113">
        <ele>684</ele>
        <time>2024-08-15T13:01:33Z</time>
      </trkpt>
      <trkpt lat="44.51213" lon="5.23107">
        <ele>685</ele>
        <time>2024-08-15T13:01:36Z</time>
      </trkpt>
      <trkpt lat="44.51269" lon="5.23053">
        <ele>685</ele>
        <time>2024-08-15T13:01:48Z</time>
      </trkpt>
      <trkpt lat="44.51285" lon="5.23041">
        <ele>685</ele>
        <time>2024-08-15T13:01:51Z</time>
      </trkpt>
      <trkpt lat="44.51297" lon="5.23035">
        <ele>687</ele>
        <time>2024-08-15T13:01:53Z</time>
      </trkpt>
      <trkpt lat="44.51317" lon="5.2303">
        <ele>689</ele>
        <time>2024-08-15T13:01:57Z</time>
      </trkpt>
      <trkpt lat="44.51419" lon="5.23014">
        <ele>697</ele>
        <time>2024-08-15T13:02:15Z</time>
      </trkpt>
      <trkpt lat="44.51423" lon="5.23018">
        <ele>698</ele>
        <time>2024-08-15T13:02:16Z</time>
      </trkpt>
      <trkpt lat="44.51423" lon="5.23025">
        <ele>700</ele>
        <time>2024-08-15T13:02:17Z</time>
      </trkpt>
      <trkpt lat="44.51421" lon="5.23032">
        <ele>700</ele>
        <time>2024-08-15T13:02:18Z</time>
      </trkpt>
      <trkpt lat="44.51412" lon="5.2304">
        <ele>701</ele>
        <time>2024-08-15T13:02:20Z</time>
      </trkpt>
      <trkpt lat="44.5137" lon="5.23042">
        <ele>698</ele>
        <time>2024-08-15T13:02:27Z</time>
      </trkpt>
      <trkpt lat="44.51329" lon="5.23054">
        <ele>698</ele>
        <time>2024-08-15T13:02:35Z</time>
      </trkpt>
      <trkpt lat="44.51317" lon="5.23062">
        <ele>697</ele>
        <time>2024-08-15T13:02:37Z</time>
      </trkpt>
      <trkpt lat="44.51307" lon="5.23071">
        <ele>697</ele>
        <time>2024-08-15T13:02:39Z</time>
      </trkpt>
      <trkpt lat="44.51302" lon="5.23081">
        <ele>698</ele>
        <time>2024-08-15T13:02:41Z</time>
      </trkpt>
      <trkpt lat="44.51298" lon="5.23095">
        <ele>699</ele>
        <time>2024-08-15T13:02:43Z</time>
      </trkpt>
      <trkpt lat="44.51297" lon="5.23108">
        <ele>701</ele>
        <time>2024-08-15T13:02:44Z</time>
      </trkpt>
      <trkpt lat="44.513" lon="5.23154">
        <ele>709</ele>
        <time>2024-08-15T13:02:50Z</time>
      </trkpt>
      <trkpt lat="44.51301" lon="5.23186">
        <ele>712</ele>
        <time>2024-08-15T13:02:54Z</time>
      </trkpt>
      <trkpt lat="44.51297" lon="5.23222">
        <ele>715</ele>
        <time>2024-08-15T13:02:59Z</time>
      </trkpt>
      <trkpt lat="44.51273" lon="5.23316">
        <ele>718</ele>
        <time>2024-08-15T13:03:11Z</time>
      </trkpt>
      <trkpt lat="44.51266" lon="5.23335">
        <ele>718</ele>
        <time>2024-08-15T13:03:14Z</time>
      </trkpt>
      <trkpt lat="44.51221" lon="5.23415">
        <ele>725</ele>
        <time>2024-08-15T13:03:27Z</time>
      </trkpt>
      <trkpt lat="44.5121" lon="5.23427">
        <ele>726</ele>
        <time>2024-08-15T13:03:30Z</time>
      </trkpt>
      <trkpt lat="44.51174" lon="5.23449">
        <ele>725</ele>
        <time>2024-08-15T13:03:37Z</time>
      </trkpt>
      <trkpt lat="44.51164" lon="5.23458">
        <ele>726</ele>
        <time>2024-08-15T13:03:39Z</time>
      </trkpt>
      <trkpt lat="44.51157" lon="5.23468">
        <ele>726</ele>
        <time>2024-08-15T13:03:40Z</time>
      </trkpt>
      <trkpt lat="44.51154" lon="5.23474">
        <ele>726</ele>
        <time>2024-08-15T13:03:41Z</time>
      </trkpt>
      <trkpt lat="44.51147" lon="5.23508">
        <ele>732</ele>
        <time>2024-08-15T13:03:46Z</time>
      </trkpt>
      <trkpt lat="44.51141" lon="5.23526">
        <ele>735</ele>
        <time>2024-08-15T13:03:48Z</time>
      </trkpt>
      <trkpt lat="44.51133" lon="5.23542">
        <ele>738</ele>
        <time>2024-08-15T13:03:51Z</time>
      </trkpt>
      <trkpt lat="44.51119" lon="5.23562">
        <ele>739</ele>
        <time>2024-08-15T13:03:54Z</time>
      </trkpt>
      <trkpt lat="44.51112" lon="5.2357">
        <ele>739</ele>
        <time>2024-08-15T13:03:56Z</time>
      </trkpt>
      <trkpt lat="44.51098" lon="5.23581">
        <ele>738</ele>
        <time>2024-08-15T13:03:59Z</time>
      </trkpt>
      <trkpt lat="44.51079" lon="5.2359">
        <ele>737</ele>
        <time>2024-08-15T13:04:02Z</time>
      </trkpt>
      <trkpt lat="44.51057" lon="5.23605">
        <ele>739</ele>
        <time>2024-08-15T13:04:07Z</time>
      </trkpt>
      <trkpt lat="44.51007" lon="5.23652">
        <ele>741</ele>
        <time>2024-08-15T13:04:18Z</time>
      </trkpt>
      <trkpt lat="44.50946" lon="5.23691">
        <ele>743</ele>
        <time>2024-08-15T13:04:29Z</time>
      </trkpt>
      <trkpt lat="44.50864" lon="5.23748">
        <ele>747</ele>
        <time>2024-08-15T13:04:46Z</time>
      </trkpt>
      <trkpt lat="44.50849" lon="5.23763">
        <ele>748</ele>
        <time>2024-08-15T13:04:49Z</time>
      </trkpt>
      <trkpt lat="44.50818" lon="5.23803">
        <ele>752</ele>
        <time>2024-08-15T13:04:57Z</time>
      </trkpt>
      <trkpt lat="44.50798" lon="5.2382">
        <ele>753</ele>
        <time>2024-08-15T13:05:01Z</time>
      </trkpt>
      <trkpt lat="44.50783" lon="5.2384">
        <ele>753</ele>
        <time>2024-08-15T13:05:04Z</time>
      </trkpt>
      <trkpt lat="44.50781" lon="5.23852">
        <ele>754</ele>
        <time>2024-08-15T13:05:06Z</time>
      </trkpt>
      <trkpt lat="44.5078" lon="5.23864">
        <ele>756</ele>
        <time>2024-08-15T13:05:07Z</time>
      </trkpt>
      <trkpt lat="44.50789" lon="5.2393">
        <ele>767</ele>
        <time>2024-08-15T13:05:16Z</time>
      </trkpt>
      <trkpt lat="44.50788" lon="5.23944">
        <ele>768</ele>
        <time>2024-08-15T13:05:18Z</time>
      </trkpt>
      <trkpt lat="44.50785" lon="5.23957">
        <ele>767</ele>
        <time>2024-08-15T13:05:19Z</time>
      </trkpt>
      <trkpt lat="44.50778" lon="5.23975">
        <ele>766</ele>
        <time>2024-08-15T13:05:22Z</time>
      </trkpt>
      <trkpt lat="44.50762" lon="5.24002">
        <ele>762</ele>
        <time>2024-08-15T13:05:27Z</time>
      </trkpt>
      <trkpt lat="44.50756" lon="5.24016">
        <ele>762</ele>
        <time>2024-08-15T13:05:29Z</time>
      </trkpt>
      <trkpt lat="44.50755" lon="5.24028">
        <ele>762</ele>
        <time>2024-08-15T13:05:30Z</time>
      </trkpt>
      <trkpt lat="44.50763" lon="5.24179">
        <ele>780</ele>
        <time>2024-08-15T13:05:49Z</time>
      </trkpt>
      <trkpt lat="44.50762" lon="5.24194">
        <ele>782</ele>
        <time>2024-08-15T13:05:51Z</time>
      </trkpt>
      <trkpt lat="44.50752" lon="5.24271">
        <ele>786</ele>
        <time>2024-08-15T13:06:01Z</time>
      </trkpt>
      <trkpt lat="44.50741" lon="5.24319">
        <ele>792</ele>
        <time>2024-08-15T13:06:08Z</time>
      </trkpt>
      <trkpt lat="44.50738" lon="5.24327">
        <ele>794</ele>
        <time>2024-08-15T13:06:09Z</time>
      </trkpt>
      <trkpt lat="44.50737" lon="5.2434">
        <ele>795</ele>
        <time>2024-08-15T13:06:10Z</time>
      </trkpt>
      <trkpt lat="44.5074" lon="5.24348">
        <ele>796</ele>
        <time>2024-08-15T13:06:12Z</time>
      </trkpt>
      <trkpt lat="44.50743" lon="5.24352">
        <ele>796</ele>
        <time>2024-08-15T13:06:12Z</time>
      </trkpt>
      <trkpt lat="44.50751" lon="5.24352">
        <ele>795</ele>
        <time>2024-08-15T13:06:14Z</time>
      </trkpt>
      <trkpt lat="44.50758" lon="5.24336">
        <ele>796</ele>
        <time>2024-08-15T13:06:16Z</time>
      </trkpt>
      <trkpt lat="44.50772" lon="5.24272">
        <ele>796</ele>
        <time>2024-08-15T13:06:25Z</time>
      </trkpt>
      <trkpt lat="44.50788" lon="5.24216">
        <ele>798</ele>
        <time>2024-08-15T13:06:32Z</time>
      </trkpt>
      <trkpt lat="44.50791" lon="5.24161">
        <ele>793</ele>
        <time>2024-08-15T13:06:39Z</time>
      </trkpt>
      <trkpt lat="44.50799" lon="5.24084">
        <ele>786</ele>
        <time>2024-08-15T13:06:49Z</time>
      </trkpt>
      <trkpt lat="44.50801" lon="5.24079">
        <ele>786</ele>
        <time>2024-08-15T13:06:50Z</time>
      </trkpt>
      <trkpt lat="44.50806" lon="5.24077">
        <ele>787</ele>
        <time>2024-08-15T13:06:51Z</time>
      </trkpt>
      <trkpt lat="44.5081" lon="5.24077">
        <ele>789</ele>
        <time>2024-08-15T13:06:51Z</time>
      </trkpt>
      <trkpt lat="44.50835" lon="5.2407">
        <ele>797</ele>
        <time>2024-08-15T13:06:56Z</time>
      </trkpt>
      <trkpt lat="44.50854" lon="5.24081">
        <ele>805</ele>
        <time>2024-08-15T13:07:00Z</time>
      </trkpt>
      <trkpt lat="44.5087" lon="5.2408">
        <ele>809</ele>
        <time>2024-08-15T13:07:03Z</time>
      </trkpt>
      <trkpt lat="44.50885" lon="5.24066">
        <ele>812</ele>
        <time>2024-08-15T13:07:06Z</time>
      </trkpt>
      <trkpt lat="44.50895" lon="5.24047">
        <ele>814</ele>
        <time>2024-08-15T13:07:09Z</time>
      </trkpt>
      <trkpt lat="44.50894" lon="5.24032">
        <ele>813</ele>
        <time>2024-08-15T13:07:11Z</time>
      </trkpt>
      <trkpt lat="44.50886" lon="5.24018">
        <ele>809</ele>
        <time>2024-08-15T13:07:13Z</time>
      </trkpt>
      <trkpt lat="44.50894" lon="5.24032">
        <ele>813</ele>
        <time>2024-08-15T13:07:15Z</time>
      </trkpt>
      <trkpt lat="44.50895" lon="5.24047">
        <ele>814</ele>
        <time>2024-08-15T13:07:17Z</time>
      </trkpt>
      <trkpt lat="44.50885" lon="5.24066">
        <ele>812</ele>
        <time>2024-08-15T13:07:20Z</time>
      </trkpt>
      <trkpt lat="44.5087" lon="5.2408">
        <ele>809</ele>
        <time>2024-08-15T13:07:23Z</time>
      </trkpt>
      <trkpt lat="44.50854" lon="5.24081">
        <ele>805</ele>
        <time>2024-08-15T13:07:26Z</time>
      </trkpt>
      <trkpt lat="44.50835" lon="5.2407">
        <ele>797</ele>
        <time>2024-08-15T13:07:30Z</time>
      </trkpt>
      <trkpt lat="44.5081" lon="5.24077">
        <ele>789</ele>
        <time>2024-08-15T13:07:34Z</time>
      </trkpt>
      <trkpt lat="44.50815" lon="5.24084">
        <ele>792</ele>
        <time>2024-08-15T13:07:36Z</time>
      </trkpt>
      <trkpt lat="44.50815" lon="5.24091">
        <ele>793</ele>
        <time>2024-08-15T13:07:37Z</time>
      </trkpt>
      <trkpt lat="44.50811" lon="5.24109">
        <ele>795</ele>
        <time>2024-08-15T13:07:39Z</time>
      </trkpt>
      <trkpt lat="44.50805" lon="5.24123">
        <ele>794</ele>
        <time>2024-08-15T13:07:41Z</time>
      </trkpt>
      <trkpt lat="44.50803" lon="5.24139">
        <ele>796</ele>
        <time>2024-08-15T13:07:43Z</time>
      </trkpt>
      <trkpt lat="44.50802" lon="5.24159">
        <ele>799</ele>
        <time>2024-08-15T13:07:46Z</time>
      </trkpt>
      <trkpt lat="44.50806" lon="5.24229">
        <ele>809</ele>
        <time>2024-08-15T13:07:54Z</time>
      </trkpt>
      <trkpt lat="44.50805" lon="5.24247">
        <ele>811</ele>
        <time>2024-08-15T13:07:57Z</time>
      </trkpt>
      <trkpt lat="44.50796" lon="5.24295">
        <ele>811</ele>
        <time>2024-08-15T13:08:03Z</time>
      </trkpt>
      <trkpt lat="44.50792" lon="5.24375">
        <ele>818</ele>
        <time>2024-08-15T13:08:13Z</time>
      </trkpt>
      <trkpt lat="44.50778" lon="5.24463">
        <ele>820</ele>
        <time>2024-08-15T13:08:25Z</time>
      </trkpt>
      <trkpt lat="44.50775" lon="5.24498">
        <ele>822</ele>
        <time>2024-08-15T13:08:29Z</time>
      </trkpt>
      <trkpt lat="44.50769" lon="5.24647">
        <ele>827</ele>
        <time>2024-08-15T13:08:48Z</time>
      </trkpt>
      <trkpt lat="44.50772" lon="5.24729">
        <ele>829</ele>
        <time>2024-08-15T13:08:59Z</time>
      </trkpt>
      <trkpt lat="44.5078" lon="5.24827">
        <ele>828</ele>
        <time>2024-08-15T13:09:11Z</time>
      </trkpt>
      <trkpt lat="44.50788" lon="5.24876">
        <ele>827</ele>
        <time>2024-08-15T13:09:17Z</time>
      </trkpt>
      <trkpt lat="44.50787" lon="5.24893">
        <ele>828</ele>
        <time>2024-08-15T13:09:20Z</time>
      </trkpt>
      <trkpt lat="44.50791" lon="5.24945">
        <ele>828</ele>
        <time>2024-08-15T13:09:26Z</time>
      </trkpt>
      <trkpt lat="44.50786" lon="5.24976">
        <ele>829</ele>
        <time>2024-08-15T13:09:30Z</time>
      </trkpt>
      <trkpt lat="44.50774" lon="5.24991">
        <ele>833</ele>
        <time>2024-08-15T13:09:33Z</time>
      </trkpt>
      <trkpt lat="44.50758" lon="5.25003">
        <ele>836</ele>
        <time>2024-08-15T13:09:36Z</time>
      </trkpt>
      <trkpt lat="44.5075" lon="5.25014">
        <ele>837</ele>
        <time>2024-08-15T13:09:38Z</time>
      </trkpt>
      <trkpt lat="44.50747" lon="5.25028">
        <ele>837</ele>
        <time>2024-08-15T13:09:40Z</time>
      </trkpt>
      <trkpt lat="44.50744" lon="5.25054">
        <ele>835</ele>
        <time>2024-08-15T13:09:44Z</time>
      </trkpt>
      <trkpt lat="44.50716" lon="5.2515">
        <ele>831</ele>
        <time>2024-08-15T13:09:57Z</time>
      </trkpt>
      <trkpt lat="44.50697" lon="5.25193">
        <ele>829</ele>
        <time>2024-08-15T13:10:03Z</time>
      </trkpt>
      <trkpt lat="44.50583" lon="5.25342">
        <ele>823</ele>
        <time>2024-08-15T13:10:31Z</time>
      </trkpt>
      <trkpt lat="44.50538" lon="5.25408">
        <ele>821</ele>
        <time>2024-08-15T13:10:42Z</time>
      </trkpt>
      <trkpt lat="44.50514" lon="5.25447">
        <ele>821</ele>
        <time>2024-08-15T13:10:49Z</time>
      </trkpt>
      <trkpt lat="44.50505" lon="5.25473">
        <ele>818</ele>
        <time>2024-08-15T13:10:53Z</time>
      </trkpt>
      <trkpt lat="44.50499" lon="5.25498">
        <ele>814</ele>
        <time>2024-08-15T13:10:56Z</time>
      </trkpt>
      <trkpt lat="44.50496" lon="5.25538">
        <ele>813</ele>
        <time>2024-08-15T13:11:01Z</time>
      </trkpt>
      <trkpt lat="44.50495" lon="5.2556">
        <ele>812</ele>
        <time>2024-08-15T13:11:04Z</time>
      </trkpt>
      <trkpt lat="44.50498" lon="5.25584">
        <ele>811</ele>
        <time>2024-08-15T13:11:07Z</time>
      </trkpt>
      <trkpt lat="44.50501" lon="5.256">
        <ele>811</ele>
        <time>2024-08-15T13:11:09Z</time>
      </trkpt>
      <trkpt lat="44.50505" lon="5.25615">
        <ele>812</ele>
        <time>2024-08-15T13:11:11Z</time>
      </trkpt>
      <trkpt lat="44.50513" lon="5.2563">
        <ele>812</ele>
        <time>2024-08-15T13:11:13Z</time>
      </trkpt>
      <trkpt lat="44.50535" lon="5.2565">
        <ele>809</ele>
        <time>2024-08-15T13:11:18Z</time>
      </trkpt>
      <trkpt lat="44.50549" lon="5.25655">
        <ele>807</ele>
        <time>2024-08-15T13:11:21Z</time>
      </trkpt>
      <trkpt lat="44.5058" lon="5.25661">
        <ele>801</ele>
        <time>2024-08-15T13:11:26Z</time>
      </trkpt>
      <trkpt lat="44.50595" lon="5.25668">
        <ele>800</ele>
        <time>2024-08-15T13:11:29Z</time>
      </trkpt>
      <trkpt lat="44.50607" lon="5.25677">
        <ele>799</ele>
        <time>2024-08-15T13:11:32Z</time>
      </trkpt>
      <trkpt lat="44.50634" lon="5.25706">
        <ele>800</ele>
        <time>2024-08-15T13:11:38Z</time>
      </trkpt>
      <trkpt lat="44.50663" lon="5.25749">
        <ele>801</ele>
        <time>2024-08-15T13:11:45Z</time>
      </trkpt>
      <trkpt lat="44.50676" lon="5.25785">
        <ele>799</ele>
        <time>2024-08-15T13:11:50Z</time>
      </trkpt>
      <trkpt lat="44.50679" lon="5.2581">
        <ele>799</ele>
        <time>2024-08-15T13:11:53Z</time>
      </trkpt>
      <trkpt lat="44.50682" lon="5.25836">
        <ele>799</ele>
        <time>2024-08-15T13:11:57Z</time>
      </trkpt>
      <trkpt lat="44.50684" lon="5.25879">
        <ele>798</ele>
        <time>2024-08-15T13:12:02Z</time>
      </trkpt>
      <trkpt lat="44.50694" lon="5.25965">
        <ele>796</ele>
        <time>2024-08-15T13:12:13Z</time>
      </trkpt>
      <trkpt lat="44.50706" lon="5.26022">
        <ele>795</ele>
        <time>2024-08-15T13:12:21Z</time>
      </trkpt>
      <trkpt lat="44.50717" lon="5.26054">
        <ele>794</ele>
        <time>2024-08-15T13:12:25Z</time>
      </trkpt>
      <trkpt lat="44.50723" lon="5.26105">
        <ele>793</ele>
        <time>2024-08-15T13:12:32Z</time>
      </trkpt>
      <trkpt lat="44.50727" lon="5.26114">
        <ele>793</ele>
        <time>2024-08-15T13:12:33Z</time>
      </trkpt>
      <trkpt lat="44.50729" lon="5.26129">
        <ele>792</ele>
        <time>2024-08-15T13:12:35Z</time>
      </trkpt>
      <trkpt lat="44.50728" lon="5.26166">
        <ele>792</ele>
        <time>2024-08-15T13:12:40Z</time>
      </trkpt>
      <trkpt lat="44.50722" lon="5.26201">
        <ele>797</ele>
        <time>2024-08-15T13:12:44Z</time>
      </trkpt>
      <trkpt lat="44.50718" lon="5.26218">
        <ele>799</ele>
        <time>2024-08-15T13:12:47Z</time>
      </trkpt>
      <trkpt lat="44.50721" lon="5.26228">
        <ele>799</ele>
        <time>2024-08-15T13:12:48Z</time>
      </trkpt>
      <trkpt lat="44.50729" lon="5.26237">
        <ele>799</ele>
        <time>2024-08-15T13:12:50Z</time>
      </trkpt>
      <trkpt lat="44.5074" lon="5.26246">
        <ele>798</ele>
        <time>2024-08-15T13:12:52Z</time>
      </trkpt>
      <trkpt lat="44.5076" lon="5.26271">
        <ele>797</ele>
        <time>2024-08-15T13:12:57Z</time>
      </trkpt>
      <trkpt lat="44.50774" lon="5.26298">
        <ele>796</ele>
        <time>2024-08-15T13:13:01Z</time>
      </trkpt>
      <trkpt lat="44.5079" lon="5.2634">
        <ele>796</ele>
        <time>2024-08-15T13:13:07Z</time>
      </trkpt>
      <trkpt lat="44.50801" lon="5.2638">
        <ele>794</ele>
        <time>2024-08-15T13:13:13Z</time>
      </trkpt>
      <trkpt lat="44.50806" lon="5.2645">
        <ele>798</ele>
        <time>2024-08-15T13:13:22Z</time>
      </trkpt>
      <trkpt lat="44.50814" lon="5.26486">
        <ele>795</ele>
        <time>2024-08-15T13:13:26Z</time>
      </trkpt>
      <trkpt lat="44.50819" lon="5.26535">
        <ele>791</ele>
        <time>2024-08-15T13:13:33Z</time>
      </trkpt>
      <trkpt lat="44.50819" lon="5.26552">
        <ele>789</ele>
        <time>2024-08-15T13:13:35Z</time>
      </trkpt>
      <trkpt lat="44.50816" lon="5.26575">
        <ele>790</ele>
        <time>2024-08-15T13:13:38Z</time>
      </trkpt>
      <trkpt lat="44.50805" lon="5.26616">
        <ele>794</ele>
        <time>2024-08-15T13:13:43Z</time>
      </trkpt>
      <trkpt lat="44.50797" lon="5.26638">
        <ele>796</ele>
        <time>2024-08-15T13:13:46Z</time>
      </trkpt>
      <trkpt lat="44.50793" lon="5.26645">
        <ele>797</ele>
        <time>2024-08-15T13:13:48Z</time>
      </trkpt>
      <trkpt lat="44.50788" lon="5.26665">
        <ele>796</ele>
        <time>2024-08-15T13:13:50Z</time>
      </trkpt>
      <trkpt lat="44.50771" lon="5.26709">
        <ele>796</ele>
        <time>2024-08-15T13:13:57Z</time>
      </trkpt>
      <trkpt lat="44.50757" lon="5.26753">
        <ele>790</ele>
        <time>2024-08-15T13:14:03Z</time>
      </trkpt>
      <trkpt lat="44.50753" lon="5.26788">
        <ele>787</ele>
        <time>2024-08-15T13:14:07Z</time>
      </trkpt>
      <trkpt lat="44.50753" lon="5.26829">
        <ele>783</ele>
        <time>2024-08-15T13:14:12Z</time>
      </trkpt>
      <trkpt lat="44.50755" lon="5.26849">
        <ele>782</ele>
        <time>2024-08-15T13:14:15Z</time>
      </trkpt>
      <trkpt lat="44.50766" lon="5.26879">
        <ele>781</ele>
        <time>2024-08-15T13:14:19Z</time>
      </trkpt>
      <trkpt lat="44.5077" lon="5.26885">
        <ele>782</ele>
        <time>2024-08-15T13:14:20Z</time>
      </trkpt>
      <trkpt lat="44.50777" lon="5.26888">
        <ele>783</ele>
        <time>2024-08-15T13:14:22Z</time>
      </trkpt>
      <trkpt lat="44.50788" lon="5.26897">
        <ele>784</ele>
        <time>2024-08-15T13:14:24Z</time>
      </trkpt>
      <trkpt lat="44.50819" lon="5.26963">
        <ele>784</ele>
        <time>2024-08-15T13:14:34Z</time>
      </trkpt>
      <trkpt lat="44.50881" lon="5.27114">
        <ele>788</ele>
        <time>2024-08-15T13:14:56Z</time>
      </trkpt>
      <trkpt lat="44.50919" lon="5.27209">
        <ele>796</ele>
        <time>2024-08-15T13:15:10Z</time>
      </trkpt>
      <trkpt lat="44.50915" lon="5.27246">
        <ele>797</ele>
        <time>2024-08-15T13:15:15Z</time>
      </trkpt>
      <trkpt lat="44.50907" lon="5.27285">
        <ele>798</ele>
        <time>2024-08-15T13:15:20Z</time>
      </trkpt>
      <trkpt lat="44.50913" lon="5.27327">
        <ele>800</ele>
        <time>2024-08-15T13:15:25Z</time>
      </trkpt>
      <trkpt lat="44.50915" lon="5.27365">
        <ele>802</ele>
        <time>2024-08-15T13:15:30Z</time>
      </trkpt>
      <trkpt lat="44.50913" lon="5.27409">
        <ele>804</ele>
        <time>2024-08-15T13:15:36Z</time>
      </trkpt>
      <trkpt lat="44.50914" lon="5.2746">
        <ele>806</ele>
        <time>2024-08-15T13:15:42Z</time>
      </trkpt>
      <trkpt lat="44.50917" lon="5.27511">
        <ele>808</ele>
        <time>2024-08-15T13:15:49Z</time>
      </trkpt>
      <trkpt lat="44.50931" lon="5.2755">
        <ele>812</ele>
        <time>2024-08-15T13:15:54Z</time>
      </trkpt>
      <trkpt lat="44.50945" lon="5.27582">
        <ele>814</ele>
        <time>2024-08-15T13:15:59Z</time>
      </trkpt>
      <trkpt lat="44.50984" lon="5.27636">
        <ele>822</ele>
        <time>2024-08-15T13:16:09Z</time>
      </trkpt>
      <trkpt lat="44.50991" lon="5.2765">
        <ele>823</ele>
        <time>2024-08-15T13:16:11Z</time>
      </trkpt>
      <trkpt lat="44.50993" lon="5.27662">
        <ele>824</ele>
        <time>2024-08-15T13:16:12Z</time>
      </trkpt>
      <trkpt lat="44.5099" lon="5.27674">
        <ele>824</ele>
        <time>2024-08-15T13:16:14Z</time>
      </trkpt>
      <trkpt lat="44.50984" lon="5.27687">
        <ele>825</ele>
        <time>2024-08-15T13:16:16Z</time>
      </trkpt>
      <trkpt lat="44.50942" lon="5.27752">
        <ele>826</ele>
        <time>2024-08-15T13:16:27Z</time>
      </trkpt>
      <trkpt lat="44.50925" lon="5.27789">
        <ele>827</ele>
        <time>2024-08-15T13:16:33Z</time>
      </trkpt>
      <trkpt lat="44.50922" lon="5.27832">
        <ele>831</ele>
        <time>2024-08-15T13:16:38Z</time>
      </trkpt>
      <trkpt lat="44.50925" lon="5.27878">
        <ele>832</ele>
        <time>2024-08-15T13:16:44Z</time>
      </trkpt>
      <trkpt lat="44.50938" lon="5.27923">
        <ele>835</ele>
        <time>2024-08-15T13:16:50Z</time>
      </trkpt>
      <trkpt lat="44.50971" lon="5.28008">
        <ele>843</ele>
        <time>2024-08-15T13:17:02Z</time>
      </trkpt>
      <trkpt lat="44.50975" lon="5.28031">
        <ele>845</ele>
        <time>2024-08-15T13:17:05Z</time>
      </trkpt>
      <trkpt lat="44.5097" lon="5.28066">
        <ele>847</ele>
        <time>2024-08-15T13:17:10Z</time>
      </trkpt>
      <trkpt lat="44.50969" lon="5.28092">
        <ele>849</ele>
        <time>2024-08-15T13:17:13Z</time>
      </trkpt>
      <trkpt lat="44.50973" lon="5.28118">
        <ele>851</ele>
        <time>2024-08-15T13:17:17Z</time>
      </trkpt>
      <trkpt lat="44.50979" lon="5.28138">
        <ele>852</ele>
        <time>2024-08-15T13:17:19Z</time>
      </trkpt>
      <trkpt lat="44.50985" lon="5.28164">
        <ele>853</ele>
        <time>2024-08-15T13:17:23Z</time>
      </trkpt>
      <trkpt lat="44.50989" lon="5.28194">
        <ele>856</ele>
        <time>2024-08-15T13:17:27Z</time>
      </trkpt>
      <trkpt lat="44.50997" lon="5.28213">
        <ele>858</ele>
        <time>2024-08-15T13:17:30Z</time>
      </trkpt>
      <trkpt lat="44.51011" lon="5.28243">
        <ele>859</ele>
        <time>2024-08-15T13:17:34Z</time>
      </trkpt>
      <trkpt lat="44.51068" lon="5.28328">
        <ele>859</ele>
        <time>2024-08-15T13:17:49Z</time>
      </trkpt>
      <trkpt lat="44.51079" lon="5.2837">
        <ele>859</ele>
        <time>2024-08-15T13:17:55Z</time>
      </trkpt>
      <trkpt lat="44.51072" lon="5.28421">
        <ele>864</ele>
        <time>2024-08-15T13:18:01Z</time>
      </trkpt>
      <trkpt lat="44.51048" lon="5.28461">
        <ele>866</ele>
        <time>2024-08-15T13:18:08Z</time>
      </trkpt>
      <trkpt lat="44.50984" lon="5.28518">
        <ele>873</ele>
        <time>2024-08-15T13:18:21Z</time>
      </trkpt>
      <trkpt lat="44.50959" lon="5.28561">
        <ele>876</ele>
        <time>2024-08-15T13:18:28Z</time>
      </trkpt>
      <trkpt lat="44.50955" lon="5.28611">
        <ele>875</ele>
        <time>2024-08-15T13:18:35Z</time>
      </trkpt>
      <trkpt lat="44.50953" lon="5.28677">
        <ele>872</ele>
        <time>2024-08-15T13:18:43Z</time>
      </trkpt>
      <trkpt lat="44.50947" lon="5.28734">
        <ele>870</ele>
        <time>2024-08-15T13:18:50Z</time>
      </trkpt>
      <trkpt lat="44.50942" lon="5.28756">
        <ele>869</ele>
        <time>2024-08-15T13:18:53Z</time>
      </trkpt>
      <trkpt lat="44.50937" lon="5.28766">
        <ele>868</ele>
        <time>2024-08-15T13:18:55Z</time>
      </trkpt>
      <trkpt lat="44.5093" lon="5.28771">
        <ele>870</ele>
        <time>2024-08-15T13:18:56Z</time>
      </trkpt>
      <trkpt lat="44.5092" lon="5.28772">
        <ele>873</ele>
        <time>2024-08-15T13:18:58Z</time>
      </trkpt>
      <trkpt lat="44.50909" lon="5.2877">
        <ele>875</ele>
        <time>2024-08-15T13:19:00Z</time>
      </trkpt>
      <trkpt lat="44.50898" lon="5.28766">
        <ele>877</ele>
        <time>2024-08-15T13:19:02Z</time>
      </trkpt>
      <trkpt lat="44.50868" lon="5.28748">
        <ele>883</ele>
        <time>2024-08-15T13:19:08Z</time>
      </trkpt>
      <trkpt lat="44.50846" lon="5.28737">
        <ele>887</ele>
        <time>2024-08-15T13:19:12Z</time>
      </trkpt>
      <trkpt lat="44.50831" lon="5.28738">
        <ele>888</ele>
        <time>2024-08-15T13:19:15Z</time>
      </trkpt>
      <trkpt lat="44.50717" lon="5.28796">
        <ele>893</ele>
        <time>2024-08-15T13:19:36Z</time>
      </trkpt>
      <trkpt lat="44.50684" lon="5.28831">
        <ele>892</ele>
        <time>2024-08-15T13:19:44Z</time>
      </trkpt>
      <trkpt lat="44.50655" lon="5.28875">
        <ele>895</ele>
        <time>2024-08-15T13:19:51Z</time>
      </trkpt>
      <trkpt lat="44.50648" lon="5.28925">
        <ele>898</ele>
        <time>2024-08-15T13:19:58Z</time>
      </trkpt>
      <trkpt lat="44.50662" lon="5.28965">
        <ele>897</ele>
        <time>2024-08-15T13:20:03Z</time>
      </trkpt>
      <trkpt lat="44.50684" lon="5.29048">
        <ele>900</ele>
        <time>2024-08-15T13:20:15Z</time>
      </trkpt>
      <trkpt lat="44.50703" lon="5.2909">
        <ele>901</ele>
        <time>2024-08-15T13:20:21Z</time>
      </trkpt>
      <trkpt lat="44.50731" lon="5.29123">
        <ele>900</ele>
        <time>2024-08-15T13:20:27Z</time>
      </trkpt>
      <trkpt lat="44.50763" lon="5.29208">
        <ele>904</ele>
        <time>2024-08-15T13:20:40Z</time>
      </trkpt>
      <trkpt lat="44.50763" lon="5.29245">
        <ele>907</ele>
        <time>2024-08-15T13:20:44Z</time>
      </trkpt>
      <trkpt lat="44.50757" lon="5.29288">
        <ele>911</ele>
        <time>2024-08-15T13:20:50Z</time>
      </trkpt>
      <trkpt lat="44.50767" lon="5.29335">
        <ele>913</ele>
        <time>2024-08-15T13:20:56Z</time>
      </trkpt>
      <trkpt lat="44.50788" lon="5.29377">
        <ele>914</ele>
        <time>2024-08-15T13:21:03Z</time>
      </trkpt>
      <trkpt lat="44.50798" lon="5.2942">
        <ele>916</ele>
        <time>2024-08-15T13:21:08Z</time>
      </trkpt>
      <trkpt lat="44.50789" lon="5.2947">
        <ele>919</ele>
        <time>2024-08-15T13:21:15Z</time>
      </trkpt>
      <trkpt lat="44.50764" lon="5.2951">
        <ele>919</ele>
        <time>2024-08-15T13:21:22Z</time>
      </trkpt>
      <trkpt lat="44.50737" lon="5.2955">
        <ele>912</ele>
        <time>2024-08-15T13:21:29Z</time>
      </trkpt>
      <trkpt lat="44.50725" lon="5.29557">
        <ele>911</ele>
        <time>2024-08-15T13:21:31Z</time>
      </trkpt>
      <trkpt lat="44.50626" lon="5.29578">
        <ele>922</ele>
        <time>2024-08-15T13:21:49Z</time>
      </trkpt>
      <trkpt lat="44.50615" lon="5.29585">
        <ele>924</ele>
        <time>2024-08-15T13:21:51Z</time>
      </trkpt>
      <trkpt lat="44.50608" lon="5.29594">
        <ele>925</ele>
        <time>2024-08-15T13:21:53Z</time>
      </trkpt>
      <trkpt lat="44.50602" lon="5.29608">
        <ele>926</ele>
        <time>2024-08-15T13:21:55Z</time>
      </trkpt>
      <trkpt lat="44.506" lon="5.29646">
        <ele>922</ele>
        <time>2024-08-15T13:22:00Z</time>
      </trkpt>
      <trkpt lat="44.50602" lon="5.29669">
        <ele>919</ele>
        <time>2024-08-15T13:22:02Z</time>
      </trkpt>
      <trkpt lat="44.50637" lon="5.29836">
        <ele>918</ele>
        <time>2024-08-15T13:22:25Z</time>
      </trkpt>
      <trkpt lat="44.50639" lon="5.29861">
        <ele>918</ele>
        <time>2024-08-15T13:22:28Z</time>
      </trkpt>
      <trkpt lat="44.50642" lon="5.2988">
        <ele>917</ele>
        <time>2024-08-15T13:22:30Z</time>
      </trkpt>
      <trkpt lat="44.50629" lon="5.29942">
        <ele>919</ele>
        <time>2024-08-15T13:22:38Z</time>
      </trkpt>
      <trkpt lat="44.50599" lon="5.30016">
        <ele>919</ele>
        <time>2024-08-15T13:22:49Z</time>
      </trkpt>
      <trkpt lat="44.50539" lon="5.30141">
        <ele>917</ele>
        <time>2024-08-15T13:23:08Z</time>
      </trkpt>
      <trkpt lat="44.50527" lon="5.30155">
        <ele>916</ele>
        <time>2024-08-15T13:23:11Z</time>
      </trkpt>
      <trkpt lat="44.50494" lon="5.30169">
        <ele>919</ele>
        <time>2024-08-15T13:23:17Z</time>
      </trkpt>
      <trkpt lat="44.50485" lon="5.30179">
        <ele>919</ele>
        <time>2024-08-15T13:23:19Z</time>
      </trkpt>
      <trkpt lat="44.50478" lon="5.30191">
        <ele>920</ele>
        <time>2024-08-15T13:23:21Z</time>
      </trkpt>
      <trkpt lat="44.50475" lon="5.30202">
        <ele>919</ele>
        <time>2024-08-15T13:23:23Z</time>
      </trkpt>
      <trkpt lat="44.5045" lon="5.30355">
        <ele>918</ele>
        <time>2024-08-15T13:23:43Z</time>
      </trkpt>
      <trkpt lat="44.50449" lon="5.30369">
        <ele>919</ele>
        <time>2024-08-15T13:23:44Z</time>
      </trkpt>
      <trkpt lat="44.50459" lon="5.30456">
        <ele>917</ele>
        <time>2024-08-15T13:23:56Z</time>
      </trkpt>
      <trkpt lat="44.50478" lon="5.3053">
        <ele>915</ele>
        <time>2024-08-15T13:24:06Z</time>
      </trkpt>
      <trkpt lat="44.50478" lon="5.30551">
        <ele>915</ele>
        <time>2024-08-15T13:24:08Z</time>
      </trkpt>
      <trkpt lat="44.50472" lon="5.3058">
        <ele>916</ele>
        <time>2024-08-15T13:24:12Z</time>
      </trkpt>
      <trkpt lat="44.50461" lon="5.30599">
        <ele>915</ele>
        <time>2024-08-15T13:24:15Z</time>
      </trkpt>
      <trkpt lat="44.50407" lon="5.30648">
        <ele>909</ele>
        <time>2024-08-15T13:24:27Z</time>
      </trkpt>
      <trkpt lat="44.50355" lon="5.30694">
        <ele>908</ele>
        <time>2024-08-15T13:24:38Z</time>
      </trkpt>
      <trkpt lat="44.50308" lon="5.30726">
        <ele>906</ele>
        <time>2024-08-15T13:24:47Z</time>
      </trkpt>
      <trkpt lat="44.50179" lon="5.3085">
        <ele>896</ele>
        <time>2024-08-15T13:25:15Z</time>
      </trkpt>
      <trkpt lat="44.5016" lon="5.30857">
        <ele>895</ele>
        <time>2024-08-15T13:25:18Z</time>
      </trkpt>
      <trkpt lat="44.50118" lon="5.30861">
        <ele>895</ele>
        <time>2024-08-15T13:25:26Z</time>
      </trkpt>
      <trkpt lat="44.50055" lon="5.30842">
        <ele>897</ele>
        <time>2024-08-15T13:25:37Z</time>
      </trkpt>
      <trkpt lat="44.50023" lon="5.30847">
        <ele>897</ele>
        <time>2024-08-15T13:25:43Z</time>
      </trkpt>
      <trkpt lat="44.49946" lon="5.30898">
        <ele>891</ele>
        <time>2024-08-15T13:25:58Z</time>
      </trkpt>
      <trkpt lat="44.49914" lon="5.30912">
        <ele>888</ele>
        <time>2024-08-15T13:26:04Z</time>
      </trkpt>
      <trkpt lat="44.49897" lon="5.30924">
        <ele>887</ele>
        <time>2024-08-15T13:26:07Z</time>
      </trkpt>
      <trkpt lat="44.49855" lon="5.30963">
        <ele>879</ele>
        <time>2024-08-15T13:26:16Z</time>
      </trkpt>
      <trkpt lat="44.49846" lon="5.30966">
        <ele>879</ele>
        <time>2024-08-15T13:26:18Z</time>
      </trkpt>
      <trkpt lat="44.49835" lon="5.30966">
        <ele>880</ele>
        <time>2024-08-15T13:26:20Z</time>
      </trkpt>
      <trkpt lat="44.49809" lon="5.30956">
        <ele>878</ele>
        <time>2024-08-15T13:26:25Z</time>
      </trkpt>
      <trkpt lat="44.49798" lon="5.30947">
        <ele>877</ele>
        <time>2024-08-15T13:26:27Z</time>
      </trkpt>
      <trkpt lat="44.49764" lon="5.30852">
        <ele>890</ele>
        <time>2024-08-15T13:26:41Z</time>
      </trkpt>
      <trkpt lat="44.49758" lon="5.30844">
        <ele>890</ele>
        <time>2024-08-15T13:26:42Z</time>
      </trkpt>
      <trkpt lat="44.49752" lon="5.30842">
        <ele>890</ele>
        <time>2024-08-15T13:26:43Z</time>
      </trkpt>
      <trkpt lat="44.49745" lon="5.30842">
        <ele>889</ele>
        <time>2024-08-15T13:26:44Z</time>
      </trkpt>
      <trkpt lat="44.49714" lon="5.30867">
        <ele>881</ele>
        <time>2024-08-15T13:26:51Z</time>
      </trkpt>
      <trkpt lat="44.49691" lon="5.30878">
        <ele>878</ele>
        <time>2024-08-15T13:26:55Z</time>
      </trkpt>
      <trkpt lat="44.49671" lon="5.3088">
        <ele>877</ele>
        <time>2024-08-15T13:26:59Z</time>
      </trkpt>
      <trkpt lat="44.49649" lon="5.30878">
        <ele>874</ele>
        <time>2024-08-15T13:27:03Z</time>
      </trkpt>
      <trkpt lat="44.49636" lon="5.30871">
        <ele>872</ele>
        <time>2024-08-15T13:27:05Z</time>
      </trkpt>
      <trkpt lat="44.4962" lon="5.30858">
        <ele>870</ele>
        <time>2024-08-15T13:27:08Z</time>
      </trkpt>
      <trkpt lat="44.49609" lon="5.30843">
        <ele>869</ele>
        <time>2024-08-15T13:27:11Z</time>
      </trkpt>
      <trkpt lat="44.49596" lon="5.30819">
        <ele>866</ele>
        <time>2024-08-15T13:27:15Z</time>
      </trkpt>
      <trkpt lat="44.49555" lon="5.30722">
        <ele>861</ele>
        <time>2024-08-15T13:27:29Z</time>
      </trkpt>
      <trkpt lat="44.4952" lon="5.30659">
        <ele>857</ele>
        <time>2024-08-15T13:27:39Z</time>
      </trkpt>
      <trkpt lat="44.4949" lon="5.30618">
        <ele>855</ele>
        <time>2024-08-15T13:27:47Z</time>
      </trkpt>
      <trkpt lat="44.49466" lon="5.30597">
        <ele>854</ele>
        <time>2024-08-15T13:27:52Z</time>
      </trkpt>
      <trkpt lat="44.49397" lon="5.30573">
        <ele>844</ele>
        <time>2024-08-15T13:28:04Z</time>
      </trkpt>
      <trkpt lat="44.49376" lon="5.3056">
        <ele>842</ele>
        <time>2024-08-15T13:28:09Z</time>
      </trkpt>
      <trkpt lat="44.49361" lon="5.30545">
        <ele>841</ele>
        <time>2024-08-15T13:28:12Z</time>
      </trkpt>
      <trkpt lat="44.49345" lon="5.30525">
        <ele>840</ele>
        <time>2024-08-15T13:28:16Z</time>
      </trkpt>
      <trkpt lat="44.49299" lon="5.30444">
        <ele>835</ele>
        <time>2024-08-15T13:28:29Z</time>
      </trkpt>
      <trkpt lat="44.49274" lon="5.30394">
        <ele>831</ele>
        <time>2024-08-15T13:28:36Z</time>
      </trkpt>
      <trkpt lat="44.49267" lon="5.30354">
        <ele>830</ele>
        <time>2024-08-15T13:28:42Z</time>
      </trkpt>
      <trkpt lat="44.49268" lon="5.30332">
        <ele>832</ele>
        <time>2024-08-15T13:28:45Z</time>
      </trkpt>
      <trkpt lat="44.49278" lon="5.30253">
        <ele>832</ele>
        <time>2024-08-15T13:28:55Z</time>
      </trkpt>
      <trkpt lat="44.49278" lon="5.30246">
        <ele>831</ele>
        <time>2024-08-15T13:28:56Z</time>
      </trkpt>
      <trkpt lat="44.49276" lon="5.30241">
        <ele>831</ele>
        <time>2024-08-15T13:28:56Z</time>
      </trkpt>
      <trkpt lat="44.49271" lon="5.30238">
        <ele>829</ele>
        <time>2024-08-15T13:28:57Z</time>
      </trkpt>
      <trkpt lat="44.49278" lon="5.30204">
        <ele>830</ele>
        <time>2024-08-15T13:29:02Z</time>
      </trkpt>
      <trkpt lat="44.49293" lon="5.30181">
        <ele>833</ele>
        <time>2024-08-15T13:29:06Z</time>
      </trkpt>
      <trkpt lat="44.49293" lon="5.30169">
        <ele>833</ele>
        <time>2024-08-15T13:29:07Z</time>
      </trkpt>
      <trkpt lat="44.49288" lon="5.3016">
        <ele>832</ele>
        <time>2024-08-15T13:29:09Z</time>
      </trkpt>
      <trkpt lat="44.4927" lon="5.30151">
        <ele>830</ele>
        <time>2024-08-15T13:29:12Z</time>
      </trkpt>
      <trkpt lat="44.49259" lon="5.30098">
        <ele>833</ele>
        <time>2024-08-15T13:29:19Z</time>
      </trkpt>
      <trkpt lat="44.49233" lon="5.30064">
        <ele>837</ele>
        <time>2024-08-15T13:29:25Z</time>
      </trkpt>
      <trkpt lat="44.49215" lon="5.30057">
        <ele>838</ele>
        <time>2024-08-15T13:29:29Z</time>
      </trkpt>
      <trkpt lat="44.49221" lon="5.30041">
        <ele>840</ele>
        <time>2024-08-15T13:29:31Z</time>
      </trkpt>
      <trkpt lat="44.49245" lon="5.30025">
        <ele>841</ele>
        <time>2024-08-15T13:29:36Z</time>
      </trkpt>
      <trkpt lat="44.49266" lon="5.30022">
        <ele>841</ele>
        <time>2024-08-15T13:29:40Z</time>
      </trkpt>
      <trkpt lat="44.49274" lon="5.30016">
        <ele>842</ele>
        <time>2024-08-15T13:29:41Z</time>
      </trkpt>
      <trkpt lat="44.49314" lon="5.29925">
        <ele>850</ele>
        <time>2024-08-15T13:29:55Z</time>
      </trkpt>
      <trkpt lat="44.49314" lon="5.29914">
        <ele>852</ele>
        <time>2024-08-15T13:29:56Z</time>
      </trkpt>
      <trkpt lat="44.49309" lon="5.29908">
        <ele>852</ele>
        <time>2024-08-15T13:29:57Z</time>
      </trkpt>
      <trkpt lat="44.49279" lon="5.29894">
        <ele>854</ele>
        <time>2024-08-15T13:30:03Z</time>
      </trkpt>
      <trkpt lat="44.49255" lon="5.29868">
        <ele>858</ele>
        <time>2024-08-15T13:30:08Z</time>
      </trkpt>
      <trkpt lat="44.4924" lon="5.29856">
        <ele>861</ele>
        <time>2024-08-15T13:30:11Z</time>
      </trkpt>
      <trkpt lat="44.49224" lon="5.29847">
        <ele>864</ele>
        <time>2024-08-15T13:30:14Z</time>
      </trkpt>
      <trkpt lat="44.49206" lon="5.29845">
        <ele>866</ele>
        <time>2024-08-15T13:30:18Z</time>
      </trkpt>
      <trkpt lat="44.49187" lon="5.2985">
        <ele>868</ele>
        <time>2024-08-15T13:30:21Z</time>
      </trkpt>
      <trkpt lat="44.49173" lon="5.29862">
        <ele>869</ele>
        <time>2024-08-15T13:30:24Z</time>
      </trkpt>
      <trkpt lat="44.49167" lon="5.29858">
        <ele>870</ele>
        <time>2024-08-15T13:30:25Z</time>
      </trkpt>
      <trkpt lat="44.49168" lon="5.2985">
        <ele>871</ele>
        <time>2024-08-15T13:30:26Z</time>
      </trkpt>
      <trkpt lat="44.4918" lon="5.29831">
        <ele>872</ele>
        <time>2024-08-15T13:30:29Z</time>
      </trkpt>
      <trkpt lat="44.49195" lon="5.29812">
        <ele>872</ele>
        <time>2024-08-15T13:30:33Z</time>
      </trkpt>
      <trkpt lat="44.49205" lon="5.29805">
        <ele>872</ele>
        <time>2024-08-15T13:30:35Z</time>
      </trkpt>
      <trkpt lat="44.49209" lon="5.29798">
        <ele>872</ele>
        <time>2024-08-15T13:30:36Z</time>
      </trkpt>
      <trkpt lat="44.49207" lon="5.29791">
        <ele>873</ele>
        <time>2024-08-15T13:30:37Z</time>
      </trkpt>
      <trkpt lat="44.49202" lon="5.29789">
        <ele>874</ele>
        <time>2024-08-15T13:30:38Z</time>
      </trkpt>
      <trkpt lat="44.49184" lon="5.29801">
        <ele>875</ele>
        <time>2024-08-15T13:30:42Z</time>
      </trkpt>
      <trkpt lat="44.49135" lon="5.29816">
        <ele>881</ele>
        <time>2024-08-15T13:30:51Z</time>
      </trkpt>
      <trkpt lat="44.4912" lon="5.29828">
        <ele>882</ele>
        <time>2024-08-15T13:30:54Z</time>
      </trkpt>
      <trkpt lat="44.49101" lon="5.29862">
        <ele>879</ele>
        <time>2024-08-15T13:30:59Z</time>
      </trkpt>
      <trkpt lat="44.49089" lon="5.29873">
        <ele>879</ele>
        <time>2024-08-15T13:31:02Z</time>
      </trkpt>
      <trkpt lat="44.49058" lon="5.29872">
        <ele>877</ele>
        <time>2024-08-15T13:31:07Z</time>
      </trkpt>
      <trkpt lat="44.4905" lon="5.29865">
        <ele>878</ele>
        <time>2024-08-15T13:31:09Z</time>
      </trkpt>
      <trkpt lat="44.48986" lon="5.29717">
        <ele>896</ele>
        <time>2024-08-15T13:31:31Z</time>
      </trkpt>
      <trkpt lat="44.48962" lon="5.297">
        <ele>894</ele>
        <time>2024-08-15T13:31:36Z</time>
      </trkpt>
      <trkpt lat="44.48955" lon="5.29687">
        <ele>894</ele>
        <time>2024-08-15T13:31:38Z</time>
      </trkpt>
      <trkpt lat="44.48938" lon="5.29636">
        <ele>897</ele>
        <time>2024-08-15T13:31:45Z</time>
      </trkpt>
      <trkpt lat="44.48937" lon="5.29609">
        <ele>901</ele>
        <time>2024-08-15T13:31:48Z</time>
      </trkpt>
      <trkpt lat="44.48914" lon="5.29552">
        <ele>904</ele>
        <time>2024-08-15T13:31:57Z</time>
      </trkpt>
      <trkpt lat="44.48891" lon="5.29532">
        <ele>905</ele>
        <time>2024-08-15T13:32:01Z</time>
      </trkpt>
      <trkpt lat="44.48872" lon="5.29503">
        <ele>908</ele>
        <time>2024-08-15T13:32:06Z</time>
      </trkpt>
      <trkpt lat="44.48824" lon="5.29462">
        <ele>908</ele>
        <time>2024-08-15T13:32:16Z</time>
      </trkpt>
      <trkpt lat="44.48794" lon="5.29406">
        <ele>913</ele>
        <time>2024-08-15T13:32:25Z</time>
      </trkpt>
      <trkpt lat="44.48777" lon="5.29363">
        <ele>917</ele>
        <time>2024-08-15T13:32:31Z</time>
      </trkpt>
      <trkpt lat="44.48748" lon="5.29341">
        <ele>917</ele>
        <time>2024-08-15T13:32:37Z</time>
      </trkpt>
      <trkpt lat="44.487" lon="5.29334">
        <ele>914</ele>
        <time>2024-08-15T13:32:46Z</time>
      </trkpt>
      <trkpt lat="44.48671" lon="5.29316">
        <ele>916</ele>
        <time>2024-08-15T13:32:52Z</time>
      </trkpt>
      <trkpt lat="44.48619" lon="5.29307">
        <ele>917</ele>
        <time>2024-08-15T13:33:01Z</time>
      </trkpt>
      <trkpt lat="44.48595" lon="5.29294">
        <ele>919</ele>
        <time>2024-08-15T13:33:05Z</time>
      </trkpt>
      <trkpt lat="44.48579" lon="5.29293">
        <ele>919</ele>
        <time>2024-08-15T13:33:08Z</time>
      </trkpt>
      <trkpt lat="44.48566" lon="5.29288">
        <ele>921</ele>
        <time>2024-08-15T13:33:11Z</time>
      </trkpt>
      <trkpt lat="44.48552" lon="5.29281">
        <ele>923</ele>
        <time>2024-08-15T13:33:13Z</time>
      </trkpt>
      <trkpt lat="44.48525" lon="5.29262">
        <ele>927</ele>
        <time>2024-08-15T13:33:19Z</time>
      </trkpt>
      <trkpt lat="44.48483" lon="5.2924">
        <ele>932</ele>
        <time>2024-08-15T13:33:27Z</time>
      </trkpt>
      <trkpt lat="44.48455" lon="5.29212">
        <ele>939</ele>
        <time>2024-08-15T13:33:33Z</time>
      </trkpt>
      <trkpt lat="44.48416" lon="5.2919">
        <ele>944</ele>
        <time>2024-08-15T13:33:40Z</time>
      </trkpt>
      <trkpt lat="44.48403" lon="5.29195">
        <ele>946</ele>
        <time>2024-08-15T13:33:43Z</time>
      </trkpt>
      <trkpt lat="44.48392" lon="5.29212">
        <ele>947</ele>
        <time>2024-08-15T13:33:46Z</time>
      </trkpt>
      <trkpt lat="44.48375" lon="5.29251">
        <ele>947</ele>
        <time>2024-08-15T13:33:51Z</time>
      </trkpt>
      <trkpt lat="44.48355" lon="5.29275">
        <ele>951</ele>
        <time>2024-08-15T13:33:56Z</time>
      </trkpt>
      <trkpt lat="44.48333" lon="5.2933">
        <ele>951</ele>
        <time>2024-08-15T13:34:04Z</time>
      </trkpt>
      <trkpt lat="44.48305" lon="5.29349">
        <ele>959</ele>
        <time>2024-08-15T13:34:10Z</time>
      </trkpt>
      <trkpt lat="44.48277" lon="5.2939">
        <ele>964</ele>
        <time>2024-08-15T13:34:17Z</time>
      </trkpt>
      <trkpt lat="44.48261" lon="5.29469">
        <ele>967</ele>
        <time>2024-08-15T13:34:27Z</time>
      </trkpt>
      <trkpt lat="44.48209" lon="5.29535">
        <ele>972</ele>
        <time>2024-08-15T13:34:40Z</time>
      </trkpt>
      <trkpt lat="44.48163" lon="5.29557">
        <ele>969</ele>
        <time>2024-08-15T13:34:48Z</time>
      </trkpt>
      <trkpt lat="44.48144" lon="5.2957">
        <ele>968</ele>
        <time>2024-08-15T13:34:52Z</time>
      </trkpt>
      <trkpt lat="44.4807" lon="5.29647">
        <ele>958</ele>
        <time>2024-08-15T13:35:09Z</time>
      </trkpt>
      <trkpt lat="44.48009" lon="5.29664">
        <ele>955</ele>
        <time>2024-08-15T13:35:20Z</time>
      </trkpt>
      <trkpt lat="44.47978" lon="5.29696">
        <ele>955</ele>
        <time>2024-08-15T13:35:27Z</time>
      </trkpt>
      <trkpt lat="44.47965" lon="5.29701">
        <ele>957</ele>
        <time>2024-08-15T13:35:29Z</time>
      </trkpt>
      <trkpt lat="44.4795" lon="5.29716">
        <ele>956</ele>
        <time>2024-08-15T13:35:32Z</time>
      </trkpt>
      <trkpt lat="44.47938" lon="5.29742">
        <ele>953</ele>
        <time>2024-08-15T13:35:36Z</time>
      </trkpt>
      <trkpt lat="44.47921" lon="5.29761">
        <ele>951</ele>
        <time>2024-08-15T13:35:40Z</time>
      </trkpt>
      <trkpt lat="44.47904" lon="5.29824">
        <ele>946</ele>
        <time>2024-08-15T13:35:49Z</time>
      </trkpt>
      <trkpt lat="44.479" lon="5.29887">
        <ele>938</ele>
        <time>2024-08-15T13:35:57Z</time>
      </trkpt>
      <trkpt lat="44.47874" lon="5.2996">
        <ele>934</ele>
        <time>2024-08-15T13:36:07Z</time>
      </trkpt>
      <trkpt lat="44.4787" lon="5.29992">
        <ele>931</ele>
        <time>2024-08-15T13:36:11Z</time>
      </trkpt>
      <trkpt lat="44.47854" lon="5.30021">
        <ele>927</ele>
        <time>2024-08-15T13:36:16Z</time>
      </trkpt>
      <trkpt lat="44.47822" lon="5.30057">
        <ele>923</ele>
        <time>2024-08-15T13:36:23Z</time>
      </trkpt>
      <trkpt lat="44.47773" lon="5.30131">
        <ele>917</ele>
        <time>2024-08-15T13:36:36Z</time>
      </trkpt>
      <trkpt lat="44.47767" lon="5.30167">
        <ele>910</ele>
        <time>2024-08-15T13:36:41Z</time>
      </trkpt>
      <trkpt lat="44.47742" lon="5.30218">
        <ele>903</ele>
        <time>2024-08-15T13:36:48Z</time>
      </trkpt>
      <trkpt lat="44.47714" lon="5.30246">
        <ele>902</ele>
        <time>2024-08-15T13:36:54Z</time>
      </trkpt>
      <trkpt lat="44.47687" lon="5.30258">
        <ele>904</ele>
        <time>2024-08-15T13:37:00Z</time>
      </trkpt>
      <trkpt lat="44.47651" lon="5.30302">
        <ele>900</ele>
        <time>2024-08-15T13:37:08Z</time>
      </trkpt>
      <trkpt lat="44.47559" lon="5.30438">
        <ele>884</ele>
        <time>2024-08-15T13:37:32Z</time>
      </trkpt>
      <trkpt lat="44.47494" lon="5.30511">
        <ele>875</ele>
        <time>2024-08-15T13:37:47Z</time>
      </trkpt>
      <trkpt lat="44.4747" lon="5.30569">
        <ele>866</ele>
        <time>2024-08-15T13:37:55Z</time>
      </trkpt>
      <trkpt lat="44.47449" lon="5.3059">
        <ele>863</ele>
        <time>2024-08-15T13:38:00Z</time>
      </trkpt>
      <trkpt lat="44.47427" lon="5.30631">
        <ele>857</ele>
        <time>2024-08-15T13:38:06Z</time>
      </trkpt>
      <trkpt lat="44.47405" lon="5.30643">
        <ele>855</ele>
        <time>2024-08-15T13:38:10Z</time>
      </trkpt>
      <trkpt lat="44.47384" lon="5.30639">
        <ele>855</ele>
        <time>2024-08-15T13:38:14Z</time>
      </trkpt>
      <trkpt lat="44.47337" lon="5.30593">
        <ele>856</ele>
        <time>2024-08-15T13:38:24Z</time>
      </trkpt>
      <trkpt lat="44.47293" lon="5.3057">
        <ele>858</ele>
        <time>2024-08-15T13:38:33Z</time>
      </trkpt>
      <trkpt lat="44.47217" lon="5.30556">
        <ele>860</ele>
        <time>2024-08-15T13:38:46Z</time>
      </trkpt>
      <trkpt lat="44.47165" lon="5.30564">
        <ele>860</ele>
        <time>2024-08-15T13:38:56Z</time>
      </trkpt>
      <trkpt lat="44.47102" lon="5.30542">
        <ele>854</ele>
        <time>2024-08-15T13:39:07Z</time>
      </trkpt>
      <trkpt lat="44.47088" lon="5.30547">
        <ele>851</ele>
        <time>2024-08-15T13:39:10Z</time>
      </trkpt>
      <trkpt lat="44.47074" lon="5.30567">
        <ele>847</ele>
        <time>2024-08-15T13:39:13Z</time>
      </trkpt>
      <trkpt lat="44.47053" lon="5.30582">
        <ele>845</ele>
        <time>2024-08-15T13:39:18Z</time>
      </trkpt>
      <trkpt lat="44.4703" lon="5.30588">
        <ele>846</ele>
        <time>2024-08-15T13:39:22Z</time>
      </trkpt>
      <trkpt lat="44.47004" lon="5.30622">
        <ele>843</ele>
        <time>2024-08-15T13:39:28Z</time>
      </trkpt>
      <trkpt lat="44.46988" lon="5.30637">
        <ele>842</ele>
        <time>2024-08-15T13:39:32Z</time>
      </trkpt>
      <trkpt lat="44.46976" lon="5.30659">
        <ele>838</ele>
        <time>2024-08-15T13:39:35Z</time>
      </trkpt>
      <trkpt lat="44.4696" lon="5.30674">
        <ele>838</ele>
        <time>2024-08-15T13:39:38Z</time>
      </trkpt>
      <trkpt lat="44.46926" lon="5.30689">
        <ele>837</ele>
        <time>2024-08-15T13:39:45Z</time>
      </trkpt>
      <trkpt lat="44.46906" lon="5.30722">
        <ele>834</ele>
        <time>2024-08-15T13:39:50Z</time>
      </trkpt>
      <trkpt lat="44.46868" lon="5.30759">
        <ele>831</ele>
        <time>2024-08-15T13:39:59Z</time>
      </trkpt>
      <trkpt lat="44.46852" lon="5.30784">
        <ele>832</ele>
        <time>2024-08-15T13:40:03Z</time>
      </trkpt>
      <trkpt lat="44.46841" lon="5.30797">
        <ele>831</ele>
        <time>2024-08-15T13:40:05Z</time>
      </trkpt>
      <trkpt lat="44.46812" lon="5.30818">
        <ele>826</ele>
        <time>2024-08-15T13:40:11Z</time>
      </trkpt>
      <trkpt lat="44.46783" lon="5.30832">
        <ele>820</ele>
        <time>2024-08-15T13:40:17Z</time>
      </trkpt>
      <trkpt lat="44.46701" lon="5.30865">
        <ele>815</ele>
        <time>2024-08-15T13:40:32Z</time>
      </trkpt>
      <trkpt lat="44.46682" lon="5.30885">
        <ele>813</ele>
        <time>2024-08-15T13:40:36Z</time>
      </trkpt>
      <trkpt lat="44.46639" lon="5.30979">
        <ele>814</ele>
        <time>2024-08-15T13:40:50Z</time>
      </trkpt>
      <trkpt lat="44.46584" lon="5.31007">
        <ele>807</ele>
        <time>2024-08-15T13:41:01Z</time>
      </trkpt>
      <trkpt lat="44.46509" lon="5.31054">
        <ele>806</ele>
        <time>2024-08-15T13:41:15Z</time>
      </trkpt>
      <trkpt lat="44.46395" lon="5.31104">
        <ele>796</ele>
        <time>2024-08-15T13:41:37Z</time>
      </trkpt>
      <trkpt lat="44.46375" lon="5.31117">
        <ele>795</ele>
        <time>2024-08-15T13:41:40Z</time>
      </trkpt>
      <trkpt lat="44.4625" lon="5.3126">
        <ele>792</ele>
        <time>2024-08-15T13:42:09Z</time>
      </trkpt>
      <trkpt lat="44.46183" lon="5.31311">
        <ele>792</ele>
        <time>2024-08-15T13:42:23Z</time>
      </trkpt>
      <trkpt lat="44.46134" lon="5.31337">
        <ele>789</ele>
        <time>2024-08-15T13:42:32Z</time>
      </trkpt>
      <trkpt lat="44.46106" lon="5.31368">
        <ele>790</ele>
        <time>2024-08-15T13:42:38Z</time>
      </trkpt>
      <trkpt lat="44.46061" lon="5.31374">
        <ele>786</ele>
        <time>2024-08-15T13:42:46Z</time>
      </trkpt>
      <trkpt lat="44.46008" lon="5.31398">
        <ele>784</ele>
        <time>2024-08-15T13:42:56Z</time>
      </trkpt>
      <trkpt lat="44.4596" lon="5.31399">
        <ele>782</ele>
        <time>2024-08-15T13:43:05Z</time>
      </trkpt>
      <trkpt lat="44.45924" lon="5.31436">
        <ele>780</ele>
        <time>2024-08-15T13:43:13Z</time>
      </trkpt>
      <trkpt lat="44.45914" lon="5.31457">
        <ele>780</ele>
        <time>2024-08-15T13:43:16Z</time>
      </trkpt>
      <trkpt lat="44.45902" lon="5.31493">
        <ele>779</ele>
        <time>2024-08-15T13:43:21Z</time>
      </trkpt>
      <trkpt lat="44.45891" lon="5.3151">
        <ele>779</ele>
        <time>2024-08-15T13:43:24Z</time>
      </trkpt>
      <trkpt lat="44.45862" lon="5.31525">
        <ele>778</ele>
        <time>2024-08-15T13:43:29Z</time>
      </trkpt>
      <trkpt lat="44.45848" lon="5.31535">
        <ele>777</ele>
        <time>2024-08-15T13:43:32Z</time>
      </trkpt>
      <trkpt lat="44.45828" lon="5.31558">
        <ele>776</ele>
        <time>2024-08-15T13:43:37Z</time>
      </trkpt>
      <trkpt lat="44.45821" lon="5.3156">
        <ele>776</ele>
        <time>2024-08-15T13:43:38Z</time>
      </trkpt>
      <trkpt lat="44.45819" lon="5.31557">
        <ele>776</ele>
        <time>2024-08-15T13:43:39Z</time>
      </trkpt>
      <trkpt lat="44.45814" lon="5.31548">
        <ele>776</ele>
        <time>2024-08-15T13:43:40Z</time>
      </trkpt>
      <trkpt lat="44.45774" lon="5.31506">
        <ele>777</ele>
        <time>2024-08-15T13:43:49Z</time>
      </trkpt>
      <trkpt lat="44.45767" lon="5.31502">
        <ele>777</ele>
        <time>2024-08-15T13:43:50Z</time>
      </trkpt>
      <trkpt lat="44.45747" lon="5.31502">
        <ele>777</ele>
        <time>2024-08-15T13:43:54Z</time>
      </trkpt>
      <trkpt lat="44.45718" lon="5.31514">
        <ele>778</ele>
        <time>2024-08-15T13:43:59Z</time>
      </trkpt>
      <trkpt lat="44.45682" lon="5.3152">
        <ele>779</ele>
        <time>2024-08-15T13:44:06Z</time>
      </trkpt>
      <trkpt lat="44.45626" lon="5.31522">
        <ele>781</ele>
        <time>2024-08-15T13:44:16Z</time>
      </trkpt>
      <trkpt lat="44.45608" lon="5.3153">
        <ele>781</ele>
        <time>2024-08-15T13:44:19Z</time>
      </trkpt>
      <trkpt lat="44.45574" lon="5.31551">
        <ele>779</ele>
        <time>2024-08-15T13:44:26Z</time>
      </trkpt>
      <trkpt lat="44.45495" lon="5.31572">
        <ele>776</ele>
        <time>2024-08-15T13:44:40Z</time>
      </trkpt>
      <trkpt lat="44.45483" lon="5.31578">
        <ele>775</ele>
        <time>2024-08-15T13:44:42Z</time>
      </trkpt>
      <trkpt lat="44.4547" lon="5.3158">
        <ele>774</ele>
        <time>2024-08-15T13:44:45Z</time>
      </trkpt>
      <trkpt lat="44.45438" lon="5.31553">
        <ele>775</ele>
        <time>2024-08-15T13:44:51Z</time>
      </trkpt>
      <trkpt lat="44.45418" lon="5.3153">
        <ele>776</ele>
        <time>2024-08-15T13:44:56Z</time>
      </trkpt>
      <trkpt lat="44.45395" lon="5.31474">
        <ele>780</ele>
        <time>2024-08-15T13:45:04Z</time>
      </trkpt>
      <trkpt lat="44.45366" lon="5.31453">
        <ele>782</ele>
        <time>2024-08-15T13:45:10Z</time>
      </trkpt>
      <trkpt lat="44.45316" lon="5.31451">
        <ele>779</ele>
        <time>2024-08-15T13:45:19Z</time>
      </trkpt>
      <trkpt lat="44.45279" lon="5.31476">
        <ele>770</ele>
        <time>2024-08-15T13:45:26Z</time>
      </trkpt>
      <trkpt lat="44.45214" lon="5.31477">
        <ele>762</ele>
        <time>2024-08-15T13:45:38Z</time>
      </trkpt>
      <trkpt lat="44.45177" lon="5.31438">
        <ele>766</ele>
        <time>2024-08-15T13:45:46Z</time>
      </trkpt>
      <trkpt lat="44.45153" lon="5.31425">
        <ele>765</ele>
        <time>2024-08-15T13:45:50Z</time>
      </trkpt>
      <trkpt lat="44.45112" lon="5.31439">
        <ele>755</ele>
        <time>2024-08-15T13:45:58Z</time>
      </trkpt>
      <trkpt lat="44.45088" lon="5.31427">
        <ele>754</ele>
        <time>2024-08-15T13:46:02Z</time>
      </trkpt>
      <trkpt lat="44.45061" lon="5.31422">
        <ele>751</ele>
        <time>2024-08-15T13:46:07Z</time>
      </trkpt>
      <trkpt lat="44.45028" lon="5.31403">
        <ele>752</ele>
        <time>2024-08-15T13:46:14Z</time>
      </trkpt>
      <trkpt lat="44.44942" lon="5.31401">
        <ele>739</ele>
        <time>2024-08-15T13:46:29Z</time>
      </trkpt>
      <trkpt lat="44.44917" lon="5.31394">
        <ele>738</ele>
        <time>2024-08-15T13:46:34Z</time>
      </trkpt>
      <trkpt lat="44.44887" lon="5.31379">
        <ele>744</ele>
        <time>2024-08-15T13:46:39Z</time>
      </trkpt>
      <trkpt lat="44.44866" lon="5.31363">
        <ele>756</ele>
        <time>2024-08-15T13:46:43Z</time>
      </trkpt>
      <trkpt lat="44.44852" lon="5.3135">
        <ele>767</ele>
        <time>2024-08-15T13:46:46Z</time>
      </trkpt>
      <trkpt lat="44.44842" lon="5.31344">
        <ele>774</ele>
        <time>2024-08-15T13:46:48Z</time>
      </trkpt>
      <trkpt lat="44.44832" lon="5.31343">
        <ele>777</ele>
        <time>2024-08-15T13:46:50Z</time>
      </trkpt>
      <trkpt lat="44.44819" lon="5.31345">
        <ele>781</ele>
        <time>2024-08-15T13:46:52Z</time>
      </trkpt>
      <trkpt lat="44.44772" lon="5.31363">
        <ele>784</ele>
        <time>2024-08-15T13:47:01Z</time>
      </trkpt>
      <trkpt lat="44.44753" lon="5.31376">
        <ele>777</ele>
        <time>2024-08-15T13:47:05Z</time>
      </trkpt>
      <trkpt lat="44.44714" lon="5.31411">
        <ele>770</ele>
        <time>2024-08-15T13:47:13Z</time>
      </trkpt>
      <trkpt lat="44.44633" lon="5.31523">
        <ele>729</ele>
        <time>2024-08-15T13:47:33Z</time>
      </trkpt>
      <trkpt lat="44.44618" lon="5.31539">
        <ele>725</ele>
        <time>2024-08-15T13:47:37Z</time>
      </trkpt>
      <trkpt lat="44.44605" lon="5.31546">
        <ele>725</ele>
        <time>2024-08-15T13:47:39Z</time>
      </trkpt>
      <trkpt lat="44.44568" lon="5.31558">
        <ele>728</ele>
        <time>2024-08-15T13:47:46Z</time>
      </trkpt>
      <trkpt lat="44.44525" lon="5.31582">
        <ele>721</ele>
        <time>2024-08-15T13:47:54Z</time>
      </trkpt>
      <trkpt lat="44.44495" lon="5.31583">
        <ele>725</ele>
        <time>2024-08-15T13:48:00Z</time>
      </trkpt>
      <trkpt lat="44.44473" lon="5.31593">
        <ele>722</ele>
        <time>2024-08-15T13:48:04Z</time>
      </trkpt>
      <trkpt lat="44.44461" lon="5.31605">
        <ele>716</ele>
        <time>2024-08-15T13:48:06Z</time>
      </trkpt>
      <trkpt lat="44.44458" lon="5.31606">
        <ele>716</ele>
        <time>2024-08-15T13:48:07Z</time>
      </trkpt>
      <trkpt lat="44.4444" lon="5.31597">
        <ele>723</ele>
        <time>2024-08-15T13:48:10Z</time>
      </trkpt>
      <trkpt lat="44.44413" lon="5.3161">
        <ele>718</ele>
        <time>2024-08-15T13:48:15Z</time>
      </trkpt>
      <trkpt lat="44.44384" lon="5.31618">
        <ele>715</ele>
        <time>2024-08-15T13:48:21Z</time>
      </trkpt>
      <trkpt lat="44.44379" lon="5.31616">
        <ele>717</ele>
        <time>2024-08-15T13:48:22Z</time>
      </trkpt>
      <trkpt lat="44.44365" lon="5.31606">
        <ele>723</ele>
        <time>2024-08-15T13:48:24Z</time>
      </trkpt>
      <trkpt lat="44.4436" lon="5.31604">
        <ele>724</ele>
        <time>2024-08-15T13:48:25Z</time>
      </trkpt>
      <trkpt lat="44.44333" lon="5.31611">
        <ele>722</ele>
        <time>2024-08-15T13:48:30Z</time>
      </trkpt>
      <trkpt lat="44.44315" lon="5.31625">
        <ele>716</ele>
        <time>2024-08-15T13:48:34Z</time>
      </trkpt>
      <trkpt lat="44.44296" lon="5.31644">
        <ele>710</ele>
        <time>2024-08-15T13:48:38Z</time>
      </trkpt>
      <trkpt lat="44.44274" lon="5.31671">
        <ele>702</ele>
        <time>2024-08-15T13:48:43Z</time>
      </trkpt>
      <trkpt lat="44.44262" lon="5.31678">
        <ele>701</ele>
        <time>2024-08-15T13:48:45Z</time>
      </trkpt>
      <trkpt lat="44.44243" lon="5.31677">
        <ele>703</ele>
        <time>2024-08-15T13:48:49Z</time>
      </trkpt>
      <trkpt lat="44.44191" lon="5.31658">
        <ele>706</ele>
        <time>2024-08-15T13:48:58Z</time>
      </trkpt>
      <trkpt lat="44.44162" lon="5.31655">
        <ele>705</ele>
        <time>2024-08-15T13:49:04Z</time>
      </trkpt>
      <trkpt lat="44.4413" lon="5.31658">
        <ele>701</ele>
        <time>2024-08-15T13:49:09Z</time>
      </trkpt>
      <trkpt lat="44.4409" lon="5.31671">
        <ele>695</ele>
        <time>2024-08-15T13:49:17Z</time>
      </trkpt>
      <trkpt lat="44.44069" lon="5.31673">
        <ele>692</ele>
        <time>2024-08-15T13:49:20Z</time>
      </trkpt>
      <trkpt lat="44.44051" lon="5.3167">
        <ele>691</ele>
        <time>2024-08-15T13:49:24Z</time>
      </trkpt>
      <trkpt lat="44.44039" lon="5.31664">
        <ele>690</ele>
        <time>2024-08-15T13:49:26Z</time>
      </trkpt>
      <trkpt lat="44.44027" lon="5.31649">
        <ele>689</ele>
        <time>2024-08-15T13:49:29Z</time>
      </trkpt>
      <trkpt lat="44.44003" lon="5.31588">
        <ele>690</ele>
        <time>2024-08-15T13:49:38Z</time>
      </trkpt>
      <trkpt lat="44.43982" lon="5.31558">
        <ele>686</ele>
        <time>2024-08-15T13:49:43Z</time>
      </trkpt>
      <trkpt lat="44.43977" lon="5.31546">
        <ele>685</ele>
        <time>2024-08-15T13:49:45Z</time>
      </trkpt>
      <trkpt lat="44.43969" lon="5.31521">
        <ele>683</ele>
        <time>2024-08-15T13:49:48Z</time>
      </trkpt>
      <trkpt lat="44.43963" lon="5.31491">
        <ele>682</ele>
        <time>2024-08-15T13:49:52Z</time>
      </trkpt>
      <trkpt lat="44.43962" lon="5.31468">
        <ele>680</ele>
        <time>2024-08-15T13:49:55Z</time>
      </trkpt>
      <trkpt lat="44.43966" lon="5.31437">
        <ele>679</ele>
        <time>2024-08-15T13:49:59Z</time>
      </trkpt>
      <trkpt lat="44.43973" lon="5.31418">
        <ele>679</ele>
        <time>2024-08-15T13:50:02Z</time>
      </trkpt>
      <trkpt lat="44.43978" lon="5.31411">
        <ele>679</ele>
        <time>2024-08-15T13:50:03Z</time>
      </trkpt>
      <trkpt lat="44.43997" lon="5.3139">
        <ele>679</ele>
        <time>2024-08-15T13:50:07Z</time>
      </trkpt>
      <trkpt lat="44.43997" lon="5.31381">
        <ele>677</ele>
        <time>2024-08-15T13:50:08Z</time>
      </trkpt>
      <trkpt lat="44.43992" lon="5.31375">
        <ele>675</ele>
        <time>2024-08-15T13:50:10Z</time>
      </trkpt>
      <trkpt lat="44.43985" lon="5.31377">
        <ele>674</ele>
        <time>2024-08-15T13:50:11Z</time>
      </trkpt>
      <trkpt lat="44.43969" lon="5.31392">
        <ele>674</ele>
        <time>2024-08-15T13:50:14Z</time>
      </trkpt>
      <trkpt lat="44.43956" lon="5.31401">
        <ele>673</ele>
        <time>2024-08-15T13:50:17Z</time>
      </trkpt>
      <trkpt lat="44.43906" lon="5.31424">
        <ele>667</ele>
        <time>2024-08-15T13:50:26Z</time>
      </trkpt>
      <trkpt lat="44.43894" lon="5.31432">
        <ele>665</ele>
        <time>2024-08-15T13:50:29Z</time>
      </trkpt>
      <trkpt lat="44.4387" lon="5.31453">
        <ele>662</ele>
        <time>2024-08-15T13:50:34Z</time>
      </trkpt>
      <trkpt lat="44.43854" lon="5.31475">
        <ele>660</ele>
        <time>2024-08-15T13:50:38Z</time>
      </trkpt>
      <trkpt lat="44.43851" lon="5.31484">
        <ele>660</ele>
        <time>2024-08-15T13:50:39Z</time>
      </trkpt>
      <trkpt lat="44.43851" lon="5.315">
        <ele>661</ele>
        <time>2024-08-15T13:50:41Z</time>
      </trkpt>
      <trkpt lat="44.43858" lon="5.31524">
        <ele>659</ele>
        <time>2024-08-15T13:50:44Z</time>
      </trkpt>
      <trkpt lat="44.43859" lon="5.31529">
        <ele>659</ele>
        <time>2024-08-15T13:50:45Z</time>
      </trkpt>
      <trkpt lat="44.43857" lon="5.31533">
        <ele>658</ele>
        <time>2024-08-15T13:50:46Z</time>
      </trkpt>
      <trkpt lat="44.43854" lon="5.31535">
        <ele>657</ele>
        <time>2024-08-15T13:50:46Z</time>
      </trkpt>
      <trkpt lat="44.43846" lon="5.31532">
        <ele>655</ele>
        <time>2024-08-15T13:50:48Z</time>
      </trkpt>
      <trkpt lat="44.43823" lon="5.31495">
        <ele>656</ele>
        <time>2024-08-15T13:50:54Z</time>
      </trkpt>
      <trkpt lat="44.4382" lon="5.3148">
        <ele>655</ele>
        <time>2024-08-15T13:50:56Z</time>
      </trkpt>
      <trkpt lat="44.43821" lon="5.31464">
        <ele>654</ele>
        <time>2024-08-15T13:50:58Z</time>
      </trkpt>
      <trkpt lat="44.43865" lon="5.31364">
        <ele>651</ele>
        <time>2024-08-15T13:51:13Z</time>
      </trkpt>
      <trkpt lat="44.43875" lon="5.31335">
        <ele>648</ele>
        <time>2024-08-15T13:51:17Z</time>
      </trkpt>
      <trkpt lat="44.43878" lon="5.31307">
        <ele>645</ele>
        <time>2024-08-15T13:51:20Z</time>
      </trkpt>
      <trkpt lat="44.43885" lon="5.31289">
        <ele>644</ele>
        <time>2024-08-15T13:51:23Z</time>
      </trkpt>
      <trkpt lat="44.43907" lon="5.31261">
        <ele>644</ele>
        <time>2024-08-15T13:51:28Z</time>
      </trkpt>
      <trkpt lat="44.43912" lon="5.31238">
        <ele>641</ele>
        <time>2024-08-15T13:51:31Z</time>
      </trkpt>
      <trkpt lat="44.43915" lon="5.31213">
        <ele>638</ele>
        <time>2024-08-15T13:51:35Z</time>
      </trkpt>
      <trkpt lat="44.43922" lon="5.31202">
        <ele>637</ele>
        <time>2024-08-15T13:51:36Z</time>
      </trkpt>
      <trkpt lat="44.4394" lon="5.31198">
        <ele>640</ele>
        <time>2024-08-15T13:51:40Z</time>
      </trkpt>
      <trkpt lat="44.43965" lon="5.31201">
        <ele>645</ele>
        <time>2024-08-15T13:51:44Z</time>
      </trkpt>
      <trkpt lat="44.43969" lon="5.31196">
        <ele>645</ele>
        <time>2024-08-15T13:51:45Z</time>
      </trkpt>
      <trkpt lat="44.43967" lon="5.3119">
        <ele>644</ele>
        <time>2024-08-15T13:51:46Z</time>
      </trkpt>
      <trkpt lat="44.43964" lon="5.31187">
        <ele>643</ele>
        <time>2024-08-15T13:51:47Z</time>
      </trkpt>
      <trkpt lat="44.43948" lon="5.31188">
        <ele>640</ele>
        <time>2024-08-15T13:51:49Z</time>
      </trkpt>
      <trkpt lat="44.43931" lon="5.31183">
        <ele>636</ele>
        <time>2024-08-15T13:51:53Z</time>
      </trkpt>
      <trkpt lat="44.43877" lon="5.31164">
        <ele>626</ele>
        <time>2024-08-15T13:52:02Z</time>
      </trkpt>
      <trkpt lat="44.43868" lon="5.31164">
        <ele>625</ele>
        <time>2024-08-15T13:52:04Z</time>
      </trkpt>
      <trkpt lat="44.43858" lon="5.31168">
        <ele>625</ele>
        <time>2024-08-15T13:52:06Z</time>
      </trkpt>
      <trkpt lat="44.43852" lon="5.31167">
        <ele>624</ele>
        <time>2024-08-15T13:52:07Z</time>
      </trkpt>
      <trkpt lat="44.4385" lon="5.31163">
        <ele>623</ele>
        <time>2024-08-15T13:52:08Z</time>
      </trkpt>
      <trkpt lat="44.4385" lon="5.31158">
        <ele>622</ele>
        <time>2024-08-15T13:52:08Z</time>
      </trkpt>
      <trkpt lat="44.43853" lon="5.31153">
        <ele>622</ele>
        <time>2024-08-15T13:52:09Z</time>
      </trkpt>
      <trkpt lat="44.43856" lon="5.31152">
        <ele>622</ele>
        <time>2024-08-15T13:52:10Z</time>
      </trkpt>
      <trkpt lat="44.43916" lon="5.31155">
        <ele>630</ele>
        <time>2024-08-15T13:52:20Z</time>
      </trkpt>
      <trkpt lat="44.43921" lon="5.31153">
        <ele>631</ele>
        <time>2024-08-15T13:52:21Z</time>
      </trkpt>
      <trkpt lat="44.43925" lon="5.31148">
        <ele>631</ele>
        <time>2024-08-15T13:52:22Z</time>
      </trkpt>
      <trkpt lat="44.43926" lon="5.31142">
        <ele>631</ele>
        <time>2024-08-15T13:52:23Z</time>
      </trkpt>
      <trkpt lat="44.43925" lon="5.31135">
        <ele>630</ele>
        <time>2024-08-15T13:52:24Z</time>
      </trkpt>
      <trkpt lat="44.43907" lon="5.31098">
        <ele>622</ele>
        <time>2024-08-15T13:52:30Z</time>
      </trkpt>
      <trkpt lat="44.439" lon="5.3107">
        <ele>618</ele>
        <time>2024-08-15T13:52:33Z</time>
      </trkpt>
      <trkpt lat="44.43901" lon="5.31044">
        <ele>617</ele>
        <time>2024-08-15T13:52:37Z</time>
      </trkpt>
      <trkpt lat="44.43913" lon="5.31009">
        <ele>618</ele>
        <time>2024-08-15T13:52:42Z</time>
      </trkpt>
      <trkpt lat="44.43911" lon="5.30991">
        <ele>617</ele>
        <time>2024-08-15T13:52:44Z</time>
      </trkpt>
      <trkpt lat="44.43901" lon="5.30966">
        <ele>616</ele>
        <time>2024-08-15T13:52:48Z</time>
      </trkpt>
      <trkpt lat="44.4387" lon="5.30924">
        <ele>611</ele>
        <time>2024-08-15T13:52:55Z</time>
      </trkpt>
      <trkpt lat="44.43824" lon="5.30898">
        <ele>603</ele>
        <time>2024-08-15T13:53:04Z</time>
      </trkpt>
      <trkpt lat="44.43811" lon="5.30877">
        <ele>601</ele>
        <time>2024-08-15T13:53:08Z</time>
      </trkpt>
      <trkpt lat="44.43807" lon="5.30848">
        <ele>600</ele>
        <time>2024-08-15T13:53:11Z</time>
      </trkpt>
      <trkpt lat="44.4383" lon="5.30775">
        <ele>598</ele>
        <time>2024-08-15T13:53:21Z</time>
      </trkpt>
      <trkpt lat="44.43846" lon="5.30751">
        <ele>598</ele>
        <time>2024-08-15T13:53:26Z</time>
      </trkpt>
      <trkpt lat="44.43909" lon="5.3068">
        <ele>592</ele>
        <time>2024-08-15T13:53:40Z</time>
      </trkpt>
      <trkpt lat="44.43956" lon="5.30671">
        <ele>588</ele>
        <time>2024-08-15T13:53:48Z</time>
      </trkpt>
      <trkpt lat="44.43996" lon="5.30687">
        <ele>591</ele>
        <time>2024-08-15T13:53:56Z</time>
      </trkpt>
      <trkpt lat="44.44023" lon="5.3069">
        <ele>590</ele>
        <time>2024-08-15T13:54:01Z</time>
      </trkpt>
      <trkpt lat="44.44054" lon="5.30703">
        <ele>592</ele>
        <time>2024-08-15T13:54:06Z</time>
      </trkpt>
      <trkpt lat="44.44084" lon="5.30722">
        <ele>596</ele>
        <time>2024-08-15T13:54:12Z</time>
      </trkpt>
      <trkpt lat="44.44094" lon="5.30723">
        <ele>598</ele>
        <time>2024-08-15T13:54:14Z</time>
      </trkpt>
      <trkpt lat="44.441" lon="5.30718">
        <ele>597</ele>
        <time>2024-08-15T13:54:15Z</time>
      </trkpt>
      <trkpt lat="44.44105" lon="5.30698">
        <ele>593</ele>
        <time>2024-08-15T13:54:18Z</time>
      </trkpt>
      <trkpt lat="44.44122" lon="5.30674">
        <ele>589</ele>
        <time>2024-08-15T13:54:22Z</time>
      </trkpt>
      <trkpt lat="44.4414" lon="5.30657">
        <ele>590</ele>
        <time>2024-08-15T13:54:26Z</time>
      </trkpt>
      <trkpt lat="44.44155" lon="5.30656">
        <ele>594</ele>
        <time>2024-08-15T13:54:29Z</time>
      </trkpt>
      <trkpt lat="44.4417" lon="5.30658">
        <ele>598</ele>
        <time>2024-08-15T13:54:32Z</time>
      </trkpt>
      <trkpt lat="44.44177" lon="5.30654">
        <ele>601</ele>
        <time>2024-08-15T13:54:33Z</time>
      </trkpt>
      <trkpt lat="44.44182" lon="5.30644">
        <ele>604</ele>
        <time>2024-08-15T13:54:34Z</time>
      </trkpt>
      <trkpt lat="44.44179" lon="5.30629">
        <ele>602</ele>
        <time>2024-08-15T13:54:36Z</time>
      </trkpt>
      <trkpt lat="44.44146" lon="5.30569">
        <ele>588</ele>
        <time>2024-08-15T13:54:46Z</time>
      </trkpt>
      <trkpt lat="44.44111" lon="5.30517">
        <ele>577</ele>
        <time>2024-08-15T13:54:55Z</time>
      </trkpt>
      <trkpt lat="44.44086" lon="5.30444">
        <ele>566</ele>
        <time>2024-08-15T13:55:05Z</time>
      </trkpt>
      <trkpt lat="44.4409" lon="5.30415">
        <ele>567</ele>
        <time>2024-08-15T13:55:09Z</time>
      </trkpt>
      <trkpt lat="44.44127" lon="5.30367">
        <ele>581</ele>
        <time>2024-08-15T13:55:18Z</time>
      </trkpt>
      <trkpt lat="44.4413" lon="5.30348">
        <ele>581</ele>
        <time>2024-08-15T13:55:21Z</time>
      </trkpt>
      <trkpt lat="44.44119" lon="5.30321">
        <ele>577</ele>
        <time>2024-08-15T13:55:25Z</time>
      </trkpt>
      <trkpt lat="44.44114" lon="5.30281">
        <ele>579</ele>
        <time>2024-08-15T13:55:30Z</time>
      </trkpt>
      <trkpt lat="44.44104" lon="5.30259">
        <ele>578</ele>
        <time>2024-08-15T13:55:33Z</time>
      </trkpt>
      <trkpt lat="44.44061" lon="5.30215">
        <ele>570</ele>
        <time>2024-08-15T13:55:42Z</time>
      </trkpt>
      <trkpt lat="44.44002" lon="5.30185">
        <ele>561</ele>
        <time>2024-08-15T13:55:54Z</time>
      </trkpt>
      <trkpt lat="44.43984" lon="5.30172">
        <ele>558</ele>
        <time>2024-08-15T13:55:57Z</time>
      </trkpt>
      <trkpt lat="44.43966" lon="5.30148">
        <ele>554</ele>
        <time>2024-08-15T13:56:02Z</time>
      </trkpt>
      <trkpt lat="44.43959" lon="5.30129">
        <ele>552</ele>
        <time>2024-08-15T13:56:04Z</time>
      </trkpt>
      <trkpt lat="44.43959" lon="5.30097">
        <ele>553</ele>
        <time>2024-08-15T13:56:08Z</time>
      </trkpt>
      <trkpt lat="44.43982" lon="5.30073">
        <ele>555</ele>
        <time>2024-08-15T13:56:14Z</time>
      </trkpt>
      <trkpt lat="44.44041" lon="5.30031">
        <ele>561</ele>
        <time>2024-08-15T13:56:25Z</time>
      </trkpt>
      <trkpt lat="44.44055" lon="5.30001">
        <ele>561</ele>
        <time>2024-08-15T13:56:30Z</time>
      </trkpt>
      <trkpt lat="44.44057" lon="5.29988">
        <ele>562</ele>
        <time>2024-08-15T13:56:32Z</time>
      </trkpt>
      <trkpt lat="44.44052" lon="5.2998">
        <ele>560</ele>
        <time>2024-08-15T13:56:33Z</time>
      </trkpt>
      <trkpt lat="44.4403" lon="5.2997">
        <ele>553</ele>
        <time>2024-08-15T13:56:37Z</time>
      </trkpt>
      <trkpt lat="44.43995" lon="5.29877">
        <ele>540</ele>
        <time>2024-08-15T13:56:50Z</time>
      </trkpt>
      <trkpt lat="44.43995" lon="5.29859">
        <ele>540</ele>
        <time>2024-08-15T13:56:53Z</time>
      </trkpt>
      <trkpt lat="44.44049" lon="5.29697">
        <ele>539</ele>
        <time>2024-08-15T13:57:15Z</time>
      </trkpt>
      <trkpt lat="44.44066" lon="5.29682">
        <ele>543</ele>
        <time>2024-08-15T13:57:19Z</time>
      </trkpt>
      <trkpt lat="44.44063" lon="5.29651">
        <ele>541</ele>
        <time>2024-08-15T13:57:23Z</time>
      </trkpt>
      <trkpt lat="44.44031" lon="5.29611">
        <ele>534</ele>
        <time>2024-08-15T13:57:31Z</time>
      </trkpt>
      <trkpt lat="44.43984" lon="5.29603">
        <ele>525</ele>
        <time>2024-08-15T13:57:39Z</time>
      </trkpt>
      <trkpt lat="44.43961" lon="5.29606">
        <ele>519</ele>
        <time>2024-08-15T13:57:43Z</time>
      </trkpt>
      <trkpt lat="44.4395" lon="5.29599">
        <ele>518</ele>
        <time>2024-08-15T13:57:45Z</time>
      </trkpt>
      <trkpt lat="44.43958" lon="5.29501">
        <ele>516</ele>
        <time>2024-08-15T13:57:58Z</time>
      </trkpt>
      <trkpt lat="44.43977" lon="5.29469">
        <ele>515</ele>
        <time>2024-08-15T13:58:03Z</time>
      </trkpt>
      <trkpt lat="44.44016" lon="5.29478">
        <ele>523</ele>
        <time>2024-08-15T13:58:10Z</time>
      </trkpt>
      <trkpt lat="44.44055" lon="5.29457">
        <ele>519</ele>
        <time>2024-08-15T13:58:18Z</time>
      </trkpt>
      <trkpt lat="44.44077" lon="5.29449">
        <ele>518</ele>
        <time>2024-08-15T13:58:22Z</time>
      </trkpt>
      <trkpt lat="44.44153" lon="5.29443">
        <ele>515</ele>
        <time>2024-08-15T13:58:35Z</time>
      </trkpt>
      <trkpt lat="44.44169" lon="5.29454">
        <ele>517</ele>
        <time>2024-08-15T13:58:38Z</time>
      </trkpt>
      <trkpt lat="44.44186" lon="5.29476">
        <ele>523</ele>
        <time>2024-08-15T13:58:42Z</time>
      </trkpt>
      <trkpt lat="44.44197" lon="5.29474">
        <ele>523</ele>
        <time>2024-08-15T13:58:44Z</time>
      </trkpt>
      <trkpt lat="44.44216" lon="5.29449">
        <ele>520</ele>
        <time>2024-08-15T13:58:49Z</time>
      </trkpt>
      <trkpt lat="44.44246" lon="5.2944">
        <ele>521</ele>
        <time>2024-08-15T13:58:55Z</time>
      </trkpt>
      <trkpt lat="44.4425" lon="5.29425">
        <ele>519</ele>
        <time>2024-08-15T13:58:57Z</time>
      </trkpt>
      <trkpt lat="44.44222" lon="5.29367">
        <ele>510</ele>
        <time>2024-08-15T13:59:05Z</time>
      </trkpt>
      <trkpt lat="44.44222" lon="5.29351">
        <ele>509</ele>
        <time>2024-08-15T13:59:07Z</time>
      </trkpt>
      <trkpt lat="44.44226" lon="5.29338">
        <ele>508</ele>
        <time>2024-08-15T13:59:09Z</time>
      </trkpt>
      <trkpt lat="44.44244" lon="5.29321">
        <ele>510</ele>
        <time>2024-08-15T13:59:13Z</time>
      </trkpt>
      <trkpt lat="44.44262" lon="5.29312">
        <ele>514</ele>
        <time>2024-08-15T13:59:17Z</time>
      </trkpt>
      <trkpt lat="44.4427" lon="5.29299">
        <ele>516</ele>
        <time>2024-08-15T13:59:19Z</time>
      </trkpt>
      <trkpt lat="44.44268" lon="5.29286">
        <ele>515</ele>
        <time>2024-08-15T13:59:20Z</time>
      </trkpt>
      <trkpt lat="44.44228" lon="5.29208">
        <ele>507</ele>
        <time>2024-08-15T13:59:33Z</time>
      </trkpt>
      <trkpt lat="44.44194" lon="5.29111">
        <ele>501</ele>
        <time>2024-08-15T13:59:46Z</time>
      </trkpt>
      <trkpt lat="44.44187" lon="5.29031">
        <ele>495</ele>
        <time>2024-08-15T13:59:57Z</time>
      </trkpt>
      <trkpt lat="44.44185" lon="5.28954">
        <ele>489</ele>
        <time>2024-08-15T14:00:06Z</time>
      </trkpt>
      <trkpt lat="44.44187" lon="5.2891">
        <ele>486</ele>
        <time>2024-08-15T14:00:12Z</time>
      </trkpt>
      <trkpt lat="44.44186" lon="5.28849">
        <ele>484</ele>
        <time>2024-08-15T14:00:20Z</time>
      </trkpt>
      <trkpt lat="44.44165" lon="5.28775">
        <ele>484</ele>
        <time>2024-08-15T14:00:30Z</time>
      </trkpt>
      <trkpt lat="44.44162" lon="5.28701">
        <ele>482</ele>
        <time>2024-08-15T14:00:39Z</time>
      </trkpt>
      <trkpt lat="44.44168" lon="5.28687">
        <ele>482</ele>
        <time>2024-08-15T14:00:41Z</time>
      </trkpt>
      <trkpt lat="44.44178" lon="5.2867">
        <ele>481</ele>
        <time>2024-08-15T14:00:44Z</time>
      </trkpt>
      <trkpt lat="44.44203" lon="5.28647">
        <ele>477</ele>
        <time>2024-08-15T14:00:49Z</time>
      </trkpt>
      <trkpt lat="44.44194" lon="5.28645">
        <ele>476</ele>
        <time>2024-08-15T14:00:51Z</time>
      </trkpt>
      <trkpt lat="44.44138" lon="5.28679">
        <ele>475</ele>
        <time>2024-08-15T14:01:02Z</time>
      </trkpt>
      <trkpt lat="44.44118" lon="5.28692">
        <ele>472</ele>
        <time>2024-08-15T14:01:06Z</time>
      </trkpt>
      <trkpt lat="44.44113" lon="5.28699">
        <ele>471</ele>
        <time>2024-08-15T14:01:07Z</time>
      </trkpt>
      <trkpt lat="44.44112" lon="5.28706">
        <ele>471</ele>
        <time>2024-08-15T14:01:08Z</time>
      </trkpt>
      <trkpt lat="44.44111" lon="5.28724">
        <ele>472</ele>
        <time>2024-08-15T14:01:10Z</time>
      </trkpt>
      <trkpt lat="44.44118" lon="5.28816">
        <ele>472</ele>
        <time>2024-08-15T14:01:22Z</time>
      </trkpt>
      <trkpt lat="44.44115" lon="5.28836">
        <ele>471</ele>
        <time>2024-08-15T14:01:25Z</time>
      </trkpt>
      <trkpt lat="44.441" lon="5.28855">
        <ele>469</ele>
        <time>2024-08-15T14:01:28Z</time>
      </trkpt>
      <trkpt lat="44.4408" lon="5.28866">
        <ele>467</ele>
        <time>2024-08-15T14:01:32Z</time>
      </trkpt>
      <trkpt lat="44.43955" lon="5.28842">
        <ele>456</ele>
        <time>2024-08-15T14:01:55Z</time>
      </trkpt>
      <trkpt lat="44.4391" lon="5.28799">
        <ele>451</ele>
        <time>2024-08-15T14:02:04Z</time>
      </trkpt>
      <trkpt lat="44.43899" lon="5.28794">
        <ele>451</ele>
        <time>2024-08-15T14:02:06Z</time>
      </trkpt>
      <trkpt lat="44.43891" lon="5.28793">
        <ele>450</ele>
        <time>2024-08-15T14:02:08Z</time>
      </trkpt>
      <trkpt lat="44.43873" lon="5.28796">
        <ele>449</ele>
        <time>2024-08-15T14:02:11Z</time>
      </trkpt>
      <trkpt lat="44.43857" lon="5.28803">
        <ele>449</ele>
        <time>2024-08-15T14:02:14Z</time>
      </trkpt>
      <trkpt lat="44.43829" lon="5.2884">
        <ele>447</ele>
        <time>2024-08-15T14:02:21Z</time>
      </trkpt>
      <trkpt lat="44.43807" lon="5.28879">
        <ele>446</ele>
        <time>2024-08-15T14:02:27Z</time>
      </trkpt>
      <trkpt lat="44.43733" lon="5.28905">
        <ele>440</ele>
        <time>2024-08-15T14:02:41Z</time>
      </trkpt>
      <trkpt lat="44.43731" lon="5.28924">
        <ele>441</ele>
        <time>2024-08-15T14:02:43Z</time>
      </trkpt>
      <trkpt lat="44.43749" lon="5.28961">
        <ele>443</ele>
        <time>2024-08-15T14:02:49Z</time>
      </trkpt>
      <trkpt lat="44.43749" lon="5.28969">
        <ele>444</ele>
        <time>2024-08-15T14:02:50Z</time>
      </trkpt>
      <trkpt lat="44.43739" lon="5.28976">
        <ele>444</ele>
        <time>2024-08-15T14:02:52Z</time>
      </trkpt>
      <trkpt lat="44.43691" lon="5.28914">
        <ele>438</ele>
        <time>2024-08-15T14:03:03Z</time>
      </trkpt>
      <trkpt lat="44.43635" lon="5.28876">
        <ele>435</ele>
        <time>2024-08-15T14:03:14Z</time>
      </trkpt>
      <trkpt lat="44.43558" lon="5.28885">
        <ele>429</ele>
        <time>2024-08-15T14:03:28Z</time>
      </trkpt>
      <trkpt lat="44.43543" lon="5.28895">
        <ele>426</ele>
        <time>2024-08-15T14:03:31Z</time>
      </trkpt>
      <trkpt lat="44.43519" lon="5.28933">
        <ele>422</ele>
        <time>2024-08-15T14:03:38Z</time>
      </trkpt>
      <trkpt lat="44.435" lon="5.28948">
        <ele>419</ele>
        <time>2024-08-15T14:03:41Z</time>
      </trkpt>
      <trkpt lat="44.43452" lon="5.28953">
        <ele>406</ele>
        <time>2024-08-15T14:03:50Z</time>
      </trkpt>
      <trkpt lat="44.43443" lon="5.28965">
        <ele>403</ele>
        <time>2024-08-15T14:03:52Z</time>
      </trkpt>
      <trkpt lat="44.43441" lon="5.28974">
        <ele>402</ele>
        <time>2024-08-15T14:03:53Z</time>
      </trkpt>
      <trkpt lat="44.4345" lon="5.29011">
        <ele>405</ele>
        <time>2024-08-15T14:03:58Z</time>
      </trkpt>
      <trkpt lat="44.43451" lon="5.29057">
        <ele>406</ele>
        <time>2024-08-15T14:04:04Z</time>
      </trkpt>
      <trkpt lat="44.43471" lon="5.29083">
        <ele>412</ele>
        <time>2024-08-15T14:04:09Z</time>
      </trkpt>
      <trkpt lat="44.43479" lon="5.29115">
        <ele>411</ele>
        <time>2024-08-15T14:04:13Z</time>
      </trkpt>
      <trkpt lat="44.43479" lon="5.2915">
        <ele>408</ele>
        <time>2024-08-15T14:04:18Z</time>
      </trkpt>
      <trkpt lat="44.43461" lon="5.29254">
        <ele>402</ele>
        <time>2024-08-15T14:04:31Z</time>
      </trkpt>
      <trkpt lat="44.43465" lon="5.29277">
        <ele>401</ele>
        <time>2024-08-15T14:04:34Z</time>
      </trkpt>
      <trkpt lat="44.43471" lon="5.29298">
        <ele>399</ele>
        <time>2024-08-15T14:04:37Z</time>
      </trkpt>
      <trkpt lat="44.43491" lon="5.29329">
        <ele>393</ele>
        <time>2024-08-15T14:04:43Z</time>
      </trkpt>
      <trkpt lat="44.43502" lon="5.29338">
        <ele>392</ele>
        <time>2024-08-15T14:04:45Z</time>
      </trkpt>
      <trkpt lat="44.43512" lon="5.29343">
        <ele>393</ele>
        <time>2024-08-15T14:04:47Z</time>
      </trkpt>
      <trkpt lat="44.43528" lon="5.29338">
        <ele>391</ele>
        <time>2024-08-15T14:04:50Z</time>
      </trkpt>
      <trkpt lat="44.43542" lon="5.29326">
        <ele>391</ele>
        <time>2024-08-15T14:04:53Z</time>
      </trkpt>
      <trkpt lat="44.43553" lon="5.29323">
        <ele>391</ele>
        <time>2024-08-15T14:04:55Z</time>
      </trkpt>
      <trkpt lat="44.43538" lon="5.29343">
        <ele>392</ele>
        <time>2024-08-15T14:04:58Z</time>
      </trkpt>
      <trkpt lat="44.43529" lon="5.2935">
        <ele>394</ele>
        <time>2024-08-15T14:05:00Z</time>
      </trkpt>
      <trkpt lat="44.43518" lon="5.29353">
        <ele>394</ele>
        <time>2024-08-15T14:05:02Z</time>
      </trkpt>
      <trkpt lat="44.43502" lon="5.29351">
        <ele>394</ele>
        <time>2024-08-15T14:05:05Z</time>
      </trkpt>
      <trkpt lat="44.4349" lon="5.29344">
        <ele>395</ele>
        <time>2024-08-15T14:05:07Z</time>
      </trkpt>
      <trkpt lat="44.43473" lon="5.29323">
        <ele>397</ele>
        <time>2024-08-15T14:05:11Z</time>
      </trkpt>
      <trkpt lat="44.43455" lon="5.29282">
        <ele>401</ele>
        <time>2024-08-15T14:05:17Z</time>
      </trkpt>
      <trkpt lat="44.43449" lon="5.29248">
        <ele>403</ele>
        <time>2024-08-15T14:05:22Z</time>
      </trkpt>
      <trkpt lat="44.43447" lon="5.29208">
        <ele>403</ele>
        <time>2024-08-15T14:05:27Z</time>
      </trkpt>
      <trkpt lat="44.43451" lon="5.29128">
        <ele>405</ele>
        <time>2024-08-15T14:05:37Z</time>
      </trkpt>
      <trkpt lat="44.43447" lon="5.29091">
        <ele>405</ele>
        <time>2024-08-15T14:05:42Z</time>
      </trkpt>
      <trkpt lat="44.43441" lon="5.29053">
        <ele>403</ele>
        <time>2024-08-15T14:05:47Z</time>
      </trkpt>
      <trkpt lat="44.43432" lon="5.29019">
        <ele>400</ele>
        <time>2024-08-15T14:05:52Z</time>
      </trkpt>
      <trkpt lat="44.43367" lon="5.28832">
        <ele>395</ele>
        <time>2024-08-15T14:06:18Z</time>
      </trkpt>
      <trkpt lat="44.43354" lon="5.28809">
        <ele>396</ele>
        <time>2024-08-15T14:06:22Z</time>
      </trkpt>
      <trkpt lat="44.43339" lon="5.28791">
        <ele>398</ele>
        <time>2024-08-15T14:06:25Z</time>
      </trkpt>
      <trkpt lat="44.4331" lon="5.28777">
        <ele>400</ele>
        <time>2024-08-15T14:06:31Z</time>
      </trkpt>
      <trkpt lat="44.43281" lon="5.28776">
        <ele>401</ele>
        <time>2024-08-15T14:06:36Z</time>
      </trkpt>
      <trkpt lat="44.4326" lon="5.28782">
        <ele>400</ele>
        <time>2024-08-15T14:06:40Z</time>
      </trkpt>
      <trkpt lat="44.43234" lon="5.28793">
        <ele>400</ele>
        <time>2024-08-15T14:06:44Z</time>
      </trkpt>
      <trkpt lat="44.43221" lon="5.28794">
        <ele>400</ele>
        <time>2024-08-15T14:06:47Z</time>
      </trkpt>
      <trkpt lat="44.43209" lon="5.28791">
        <ele>400</ele>
        <time>2024-08-15T14:06:49Z</time>
      </trkpt>
      <trkpt lat="44.432" lon="5.28779">
        <ele>400</ele>
        <time>2024-08-15T14:06:51Z</time>
      </trkpt>
      <trkpt lat="44.43196" lon="5.28767">
        <ele>399</ele>
        <time>2024-08-15T14:06:53Z</time>
      </trkpt>
      <trkpt lat="44.43194" lon="5.28744">
        <ele>397</ele>
        <time>2024-08-15T14:06:56Z</time>
      </trkpt>
      <trkpt lat="44.43192" lon="5.2865">
        <ele>403</ele>
        <time>2024-08-15T14:07:08Z</time>
      </trkpt>
      <trkpt lat="44.43194" lon="5.28616">
        <ele>404</ele>
        <time>2024-08-15T14:07:12Z</time>
      </trkpt>
      <trkpt lat="44.43199" lon="5.28593">
        <ele>405</ele>
        <time>2024-08-15T14:07:15Z</time>
      </trkpt>
      <trkpt lat="44.43224" lon="5.28525">
        <ele>403</ele>
        <time>2024-08-15T14:07:25Z</time>
      </trkpt>
      <trkpt lat="44.43286" lon="5.28407">
        <ele>396</ele>
        <time>2024-08-15T14:07:43Z</time>
      </trkpt>
      <trkpt lat="44.43314" lon="5.28341">
        <ele>394</ele>
        <time>2024-08-15T14:07:53Z</time>
      </trkpt>
      <trkpt lat="44.43322" lon="5.28315">
        <ele>396</ele>
        <time>2024-08-15T14:07:57Z</time>
      </trkpt>
      <trkpt lat="44.43326" lon="5.28291">
        <ele>400</ele>
        <time>2024-08-15T14:08:00Z</time>
      </trkpt>
      <trkpt lat="44.43324" lon="5.28262">
        <ele>403</ele>
        <time>2024-08-15T14:08:04Z</time>
      </trkpt>
      <trkpt lat="44.43317" lon="5.28246">
        <ele>403</ele>
        <time>2024-08-15T14:08:06Z</time>
      </trkpt>
      <trkpt lat="44.43304" lon="5.28228">
        <ele>406</ele>
        <time>2024-08-15T14:08:09Z</time>
      </trkpt>
      <trkpt lat="44.43292" lon="5.28216">
        <ele>407</ele>
        <time>2024-08-15T14:08:12Z</time>
      </trkpt>
      <trkpt lat="44.43276" lon="5.28208">
        <ele>406</ele>
        <time>2024-08-15T14:08:15Z</time>
      </trkpt>
      <trkpt lat="44.43256" lon="5.28208">
        <ele>400</ele>
        <time>2024-08-15T14:08:18Z</time>
      </trkpt>
      <trkpt lat="44.43225" lon="5.28217">
        <ele>391</ele>
        <time>2024-08-15T14:08:24Z</time>
      </trkpt>
      <trkpt lat="44.43188" lon="5.28222">
        <ele>384</ele>
        <time>2024-08-15T14:08:31Z</time>
      </trkpt>
      <trkpt lat="44.43178" lon="5.2822">
        <ele>383</ele>
        <time>2024-08-15T14:08:33Z</time>
      </trkpt>
      <trkpt lat="44.43168" lon="5.2821">
        <ele>382</ele>
        <time>2024-08-15T14:08:35Z</time>
      </trkpt>
      <trkpt lat="44.43159" lon="5.28194">
        <ele>387</ele>
        <time>2024-08-15T14:08:37Z</time>
      </trkpt>
      <trkpt lat="44.43156" lon="5.28175">
        <ele>390</ele>
        <time>2024-08-15T14:08:40Z</time>
      </trkpt>
      <trkpt lat="44.43156" lon="5.28156">
        <ele>390</ele>
        <time>2024-08-15T14:08:42Z</time>
      </trkpt>
      <trkpt lat="44.43161" lon="5.28132">
        <ele>388</ele>
        <time>2024-08-15T14:08:45Z</time>
      </trkpt>
      <trkpt lat="44.43205" lon="5.27997">
        <ele>404</ele>
        <time>2024-08-15T14:09:04Z</time>
      </trkpt>
      <trkpt lat="44.43207" lon="5.27972">
        <ele>405</ele>
        <time>2024-08-15T14:09:07Z</time>
      </trkpt>
      <trkpt lat="44.43201" lon="5.27904">
        <ele>403</ele>
        <time>2024-08-15T14:09:16Z</time>
      </trkpt>
      <trkpt lat="44.43195" lon="5.2788">
        <ele>404</ele>
        <time>2024-08-15T14:09:19Z</time>
      </trkpt>
      <trkpt lat="44.43185" lon="5.27854">
        <ele>402</ele>
        <time>2024-08-15T14:09:23Z</time>
      </trkpt>
      <trkpt lat="44.43161" lon="5.27808">
        <ele>395</ele>
        <time>2024-08-15T14:09:30Z</time>
      </trkpt>
      <trkpt lat="44.43138" lon="5.27776">
        <ele>391</ele>
        <time>2024-08-15T14:09:36Z</time>
      </trkpt>
      <trkpt lat="44.43112" lon="5.27746">
        <ele>385</ele>
        <time>2024-08-15T14:09:42Z</time>
      </trkpt>
      <trkpt lat="44.43097" lon="5.27732">
        <ele>383</ele>
        <time>2024-08-15T14:09:45Z</time>
      </trkpt>
      <trkpt lat="44.43068" lon="5.27711">
        <ele>383</ele>
        <time>2024-08-15T14:09:51Z</time>
      </trkpt>
      <trkpt lat="44.43032" lon="5.27691">
        <ele>384</ele>
        <time>2024-08-15T14:09:58Z</time>
      </trkpt>
      <trkpt lat="44.42987" lon="5.27672">
        <ele>386</ele>
        <time>2024-08-15T14:10:06Z</time>
      </trkpt>
      <trkpt lat="44.42978" lon="5.27671">
        <ele>386</ele>
        <time>2024-08-15T14:10:08Z</time>
      </trkpt>
      <trkpt lat="44.42964" lon="5.27669">
        <ele>387</ele>
        <time>2024-08-15T14:10:10Z</time>
      </trkpt>
      <trkpt lat="44.42949" lon="5.27671">
        <ele>386</ele>
        <time>2024-08-15T14:10:13Z</time>
      </trkpt>
      <trkpt lat="44.42921" lon="5.27681">
        <ele>384</ele>
        <time>2024-08-15T14:10:18Z</time>
      </trkpt>
      <trkpt lat="44.429" lon="5.27692">
        <ele>393</ele>
        <time>2024-08-15T14:10:22Z</time>
      </trkpt>
      <trkpt lat="44.42885" lon="5.27705">
        <ele>399</ele>
        <time>2024-08-15T14:10:25Z</time>
      </trkpt>
      <trkpt lat="44.42867" lon="5.2773">
        <ele>398</ele>
        <time>2024-08-15T14:10:30Z</time>
      </trkpt>
      <trkpt lat="44.42851" lon="5.27766">
        <ele>393</ele>
        <time>2024-08-15T14:10:35Z</time>
      </trkpt>
      <trkpt lat="44.42846" lon="5.27789">
        <ele>390</ele>
        <time>2024-08-15T14:10:38Z</time>
      </trkpt>
      <trkpt lat="44.42822" lon="5.27929">
        <ele>373</ele>
        <time>2024-08-15T14:10:57Z</time>
      </trkpt>
      <trkpt lat="44.42814" lon="5.27959">
        <ele>371</ele>
        <time>2024-08-15T14:11:01Z</time>
      </trkpt>
      <trkpt lat="44.42801" lon="5.27978">
        <ele>369</ele>
        <time>2024-08-15T14:11:04Z</time>
      </trkpt>
      <trkpt lat="44.4279" lon="5.27981">
        <ele>369</ele>
        <time>2024-08-15T14:11:06Z</time>
      </trkpt>
      <trkpt lat="44.4278" lon="5.27978">
        <ele>369</ele>
        <time>2024-08-15T14:11:08Z</time>
      </trkpt>
      <trkpt lat="44.42767" lon="5.27971">
        <ele>371</ele>
        <time>2024-08-15T14:11:10Z</time>
      </trkpt>
      <trkpt lat="44.42743" lon="5.27954">
        <ele>374</ele>
        <time>2024-08-15T14:11:15Z</time>
      </trkpt>
      <trkpt lat="44.42729" lon="5.27936">
        <ele>376</ele>
        <time>2024-08-15T14:11:19Z</time>
      </trkpt>
      <trkpt lat="44.42704" lon="5.27897">
        <ele>380</ele>
        <time>2024-08-15T14:11:25Z</time>
      </trkpt>
      <trkpt lat="44.42679" lon="5.27861">
        <ele>385</ele>
        <time>2024-08-15T14:11:32Z</time>
      </trkpt>
      <trkpt lat="44.42651" lon="5.2783">
        <ele>385</ele>
        <time>2024-08-15T14:11:38Z</time>
      </trkpt>
      <trkpt lat="44.42623" lon="5.27805">
        <ele>388</ele>
        <time>2024-08-15T14:11:44Z</time>
      </trkpt>
      <trkpt lat="44.42602" lon="5.2779">
        <ele>387</ele>
        <time>2024-08-15T14:11:48Z</time>
      </trkpt>
      <trkpt lat="44.42447" lon="5.27691">
        <ele>380</ele>
        <time>2024-08-15T14:12:18Z</time>
      </trkpt>
      <trkpt lat="44.42396" lon="5.27669">
        <ele>374</ele>
        <time>2024-08-15T14:12:28Z</time>
      </trkpt>
      <trkpt lat="44.42351" lon="5.27653">
        <ele>373</ele>
        <time>2024-08-15T14:12:36Z</time>
      </trkpt>
      <trkpt lat="44.42296" lon="5.27623">
        <ele>374</ele>
        <time>2024-08-15T14:12:47Z</time>
      </trkpt>
      <trkpt lat="44.42217" lon="5.27591">
        <ele>372</ele>
        <time>2024-08-15T14:13:01Z</time>
      </trkpt>
      <trkpt lat="44.42179" lon="5.27572">
        <ele>370</ele>
        <time>2024-08-15T14:13:08Z</time>
      </trkpt>
      <trkpt lat="44.42141" lon="5.27542">
        <ele>371</ele>
        <time>2024-08-15T14:13:16Z</time>
      </trkpt>
      <trkpt lat="44.42085" lon="5.27479">
        <ele>369</ele>
        <time>2024-08-15T14:13:29Z</time>
      </trkpt>
      <trkpt lat="44.41999" lon="5.27371">
        <ele>372</ele>
        <time>2024-08-15T14:13:50Z</time>
      </trkpt>
      <trkpt lat="44.41975" lon="5.27344">
        <ele>373</ele>
        <time>2024-08-15T14:13:55Z</time>
      </trkpt>
      <trkpt lat="44.41911" lon="5.27297">
        <ele>368</ele>
        <time>2024-08-15T14:14:08Z</time>
      </trkpt>
      <trkpt lat="44.41862" lon="5.2724">
        <ele>368</ele>
        <time>2024-08-15T14:14:19Z</time>
      </trkpt>
      <trkpt lat="44.41826" lon="5.27207">
        <ele>368</ele>
        <time>2024-08-15T14:14:27Z</time>
      </trkpt>
      <trkpt lat="44.41784" lon="5.27165">
        <ele>368</ele>
        <time>2024-08-15T14:14:36Z</time>
      </trkpt>
      <trkpt lat="44.41659" lon="5.27043">
        <ele>372</ele>
        <time>2024-08-15T14:15:03Z</time>
      </trkpt>
      <trkpt lat="44.41547" lon="5.26951">
        <ele>366</ele>
        <time>2024-08-15T14:15:26Z</time>
      </trkpt>
      <trkpt lat="44.41531" lon="5.26932">
        <ele>365</ele>
        <time>2024-08-15T14:15:30Z</time>
      </trkpt>
      <trkpt lat="44.41514" lon="5.26901">
        <ele>365</ele>
        <time>2024-08-15T14:15:35Z</time>
      </trkpt>
      <trkpt lat="44.4151" lon="5.26887">
        <ele>365</ele>
        <time>2024-08-15T14:15:37Z</time>
      </trkpt>
      <trkpt lat="44.41497" lon="5.26858">
        <ele>366</ele>
        <time>2024-08-15T14:15:41Z</time>
      </trkpt>
      <trkpt lat="44.41443" lon="5.26749">
        <ele>364</ele>
        <time>2024-08-15T14:15:58Z</time>
      </trkpt>
      <trkpt lat="44.41437" lon="5.26733">
        <ele>363</ele>
        <time>2024-08-15T14:16:00Z</time>
      </trkpt>
      <trkpt lat="44.41432" lon="5.26717">
        <ele>362</ele>
        <time>2024-08-15T14:16:03Z</time>
      </trkpt>
      <trkpt lat="44.41428" lon="5.26692">
        <ele>361</ele>
        <time>2024-08-15T14:16:06Z</time>
      </trkpt>
      <trkpt lat="44.41427" lon="5.26665">
        <ele>361</ele>
        <time>2024-08-15T14:16:09Z</time>
      </trkpt>
      <trkpt lat="44.4143" lon="5.2662">
        <ele>361</ele>
        <time>2024-08-15T14:16:15Z</time>
      </trkpt>
      <trkpt lat="44.41442" lon="5.26496">
        <ele>364</ele>
        <time>2024-08-15T14:16:31Z</time>
      </trkpt>
      <trkpt lat="44.4144" lon="5.2648">
        <ele>364</ele>
        <time>2024-08-15T14:16:33Z</time>
      </trkpt>
      <trkpt lat="44.41436" lon="5.26458">
        <ele>364</ele>
        <time>2024-08-15T14:16:36Z</time>
      </trkpt>
      <trkpt lat="44.41426" lon="5.2642">
        <ele>362</ele>
        <time>2024-08-15T14:16:41Z</time>
      </trkpt>
      <trkpt lat="44.41393" lon="5.26342">
        <ele>365</ele>
        <time>2024-08-15T14:16:53Z</time>
      </trkpt>
      <trkpt lat="44.41363" lon="5.26291">
        <ele>366</ele>
        <time>2024-08-15T14:17:01Z</time>
      </trkpt>
      <trkpt lat="44.41342" lon="5.26267">
        <ele>363</ele>
        <time>2024-08-15T14:17:06Z</time>
      </trkpt>
      <trkpt lat="44.41298" lon="5.26231">
        <ele>361</ele>
        <time>2024-08-15T14:17:15Z</time>
      </trkpt>
      <trkpt lat="44.41272" lon="5.26198">
        <ele>361</ele>
        <time>2024-08-15T14:17:21Z</time>
      </trkpt>
      <trkpt lat="44.41265" lon="5.26179">
        <ele>361</ele>
        <time>2024-08-15T14:17:24Z</time>
      </trkpt>
      <trkpt lat="44.41258" lon="5.26154">
        <ele>361</ele>
        <time>2024-08-15T14:17:27Z</time>
      </trkpt>
      <trkpt lat="44.41247" lon="5.26126">
        <ele>361</ele>
        <time>2024-08-15T14:17:31Z</time>
      </trkpt>
      <trkpt lat="44.41209" lon="5.26054">
        <ele>359</ele>
        <time>2024-08-15T14:17:43Z</time>
      </trkpt>
      <trkpt lat="44.41196" lon="5.26018">
        <ele>358</ele>
        <time>2024-08-15T14:17:48Z</time>
      </trkpt>
      <trkpt lat="44.41187" lon="5.2598">
        <ele>358</ele>
        <time>2024-08-15T14:17:53Z</time>
      </trkpt>
      <trkpt lat="44.41164" lon="5.2584">
        <ele>360</ele>
        <time>2024-08-15T14:18:11Z</time>
      </trkpt>
      <trkpt lat="44.41154" lon="5.25812">
        <ele>361</ele>
        <time>2024-08-15T14:18:15Z</time>
      </trkpt>
      <trkpt lat="44.41143" lon="5.25793">
        <ele>360</ele>
        <time>2024-08-15T14:18:18Z</time>
      </trkpt>
      <trkpt lat="44.41096" lon="5.25734">
        <ele>355</ele>
        <time>2024-08-15T14:18:29Z</time>
      </trkpt>
      <trkpt lat="44.41082" lon="5.25706">
        <ele>353</ele>
        <time>2024-08-15T14:18:34Z</time>
      </trkpt>
      <trkpt lat="44.41075" lon="5.25673">
        <ele>354</ele>
        <time>2024-08-15T14:18:38Z</time>
      </trkpt>
      <trkpt lat="44.41067" lon="5.25579">
        <ele>356</ele>
        <time>2024-08-15T14:18:50Z</time>
      </trkpt>
      <trkpt lat="44.41062" lon="5.25551">
        <ele>355</ele>
        <time>2024-08-15T14:18:54Z</time>
      </trkpt>
      <trkpt lat="44.41055" lon="5.2553">
        <ele>353</ele>
        <time>2024-08-15T14:18:57Z</time>
      </trkpt>
      <trkpt lat="44.41048" lon="5.25514">
        <ele>352</ele>
        <time>2024-08-15T14:18:59Z</time>
      </trkpt>
      <trkpt lat="44.41027" lon="5.25486">
        <ele>352</ele>
        <time>2024-08-15T14:19:04Z</time>
      </trkpt>
      <trkpt lat="44.40986" lon="5.25439">
        <ele>356</ele>
        <time>2024-08-15T14:19:14Z</time>
      </trkpt>
      <trkpt lat="44.4097" lon="5.25425">
        <ele>356</ele>
        <time>2024-08-15T14:19:17Z</time>
      </trkpt>
      <trkpt lat="44.40921" lon="5.25395">
        <ele>354</ele>
        <time>2024-08-15T14:19:27Z</time>
      </trkpt>
      <trkpt lat="44.40905" lon="5.25381">
        <ele>354</ele>
        <time>2024-08-15T14:19:30Z</time>
      </trkpt>
      <trkpt lat="44.40889" lon="5.25361">
        <ele>355</ele>
        <time>2024-08-15T14:19:34Z</time>
      </trkpt>
      <trkpt lat="44.40839" lon="5.25271">
        <ele>354</ele>
        <time>2024-08-15T14:19:48Z</time>
      </trkpt>
      <trkpt lat="44.4082" lon="5.2524">
        <ele>354</ele>
        <time>2024-08-15T14:19:54Z</time>
      </trkpt>
      <trkpt lat="44.40807" lon="5.25224">
        <ele>355</ele>
        <time>2024-08-15T14:19:57Z</time>
      </trkpt>
      <trkpt lat="44.40794" lon="5.25213">
        <ele>356</ele>
        <time>2024-08-15T14:19:59Z</time>
      </trkpt>
      <trkpt lat="44.40768" lon="5.25196">
        <ele>356</ele>
        <time>2024-08-15T14:20:04Z</time>
      </trkpt>
      <trkpt lat="44.40769" lon="5.2519">
        <ele>356</ele>
        <time>2024-08-15T14:20:05Z</time>
      </trkpt>
      <trkpt lat="44.40762" lon="5.25172">
        <ele>358</ele>
        <time>2024-08-15T14:20:08Z</time>
      </trkpt>
      <trkpt lat="44.40738" lon="5.25169">
        <ele>357</ele>
        <time>2024-08-15T14:20:12Z</time>
      </trkpt>
      <trkpt lat="44.40713" lon="5.25157">
        <ele>356</ele>
        <time>2024-08-15T14:20:17Z</time>
      </trkpt>
      <trkpt lat="44.40675" lon="5.25131">
        <ele>355</ele>
        <time>2024-08-15T14:20:24Z</time>
      </trkpt>
      <trkpt lat="44.40666" lon="5.25108">
        <ele>357</ele>
        <time>2024-08-15T14:20:28Z</time>
      </trkpt>
      <trkpt lat="44.40666" lon="5.25012">
        <ele>370</ele>
        <time>2024-08-15T14:20:40Z</time>
      </trkpt>
      <trkpt lat="44.40653" lon="5.24996">
        <ele>371</ele>
        <time>2024-08-15T14:20:43Z</time>
      </trkpt>
      <trkpt lat="44.40588" lon="5.24948">
        <ele>371</ele>
        <time>2024-08-15T14:20:56Z</time>
      </trkpt>
      <trkpt lat="44.4058" lon="5.2493">
        <ele>372</ele>
        <time>2024-08-15T14:20:59Z</time>
      </trkpt>
      <trkpt lat="44.40572" lon="5.24877">
        <ele>381</ele>
        <time>2024-08-15T14:21:06Z</time>
      </trkpt>
      <trkpt lat="44.40565" lon="5.24852">
        <ele>385</ele>
        <time>2024-08-15T14:21:09Z</time>
      </trkpt>
      <trkpt lat="44.40521" lon="5.24774">
        <ele>395</ele>
        <time>2024-08-15T14:21:22Z</time>
      </trkpt>
      <trkpt lat="44.40495" lon="5.24755">
        <ele>393</ele>
        <time>2024-08-15T14:21:27Z</time>
      </trkpt>
      <trkpt lat="44.40471" lon="5.24722">
        <ele>401</ele>
        <time>2024-08-15T14:21:33Z</time>
      </trkpt>
      <trkpt lat="44.40397" lon="5.24704">
        <ele>397</ele>
        <time>2024-08-15T14:21:46Z</time>
      </trkpt>
      <trkpt lat="44.4036" lon="5.24707">
        <ele>394</ele>
        <time>2024-08-15T14:21:53Z</time>
      </trkpt>
      <trkpt lat="44.40337" lon="5.24702">
        <ele>393</ele>
        <time>2024-08-15T14:21:57Z</time>
      </trkpt>
      <trkpt lat="44.40314" lon="5.24685">
        <ele>393</ele>
        <time>2024-08-15T14:22:02Z</time>
      </trkpt>
      <trkpt lat="44.40307" lon="5.24671">
        <ele>394</ele>
        <time>2024-08-15T14:22:04Z</time>
      </trkpt>
      <trkpt lat="44.40305" lon="5.24661">
        <ele>395</ele>
        <time>2024-08-15T14:22:05Z</time>
      </trkpt>
      <trkpt lat="44.40315" lon="5.24626">
        <ele>399</ele>
        <time>2024-08-15T14:22:10Z</time>
      </trkpt>
      <trkpt lat="44.40343" lon="5.24585">
        <ele>411</ele>
        <time>2024-08-15T14:22:17Z</time>
      </trkpt>
      <trkpt lat="44.40352" lon="5.2456">
        <ele>414</ele>
        <time>2024-08-15T14:22:21Z</time>
      </trkpt>
      <trkpt lat="44.4035" lon="5.24536">
        <ele>414</ele>
        <time>2024-08-15T14:22:24Z</time>
      </trkpt>
      <trkpt lat="44.40343" lon="5.24513">
        <ele>413</ele>
        <time>2024-08-15T14:22:27Z</time>
      </trkpt>
      <trkpt lat="44.40342" lon="5.24499">
        <ele>413</ele>
        <time>2024-08-15T14:22:29Z</time>
      </trkpt>
      <trkpt lat="44.40346" lon="5.24495">
        <ele>415</ele>
        <time>2024-08-15T14:22:30Z</time>
      </trkpt>
      <trkpt lat="44.40352" lon="5.24495">
        <ele>417</ele>
        <time>2024-08-15T14:22:31Z</time>
      </trkpt>
      <trkpt lat="44.40358" lon="5.24511">
        <ele>419</ele>
        <time>2024-08-15T14:22:33Z</time>
      </trkpt>
      <trkpt lat="44.40381" lon="5.24589">
        <ele>420</ele>
        <time>2024-08-15T14:22:44Z</time>
      </trkpt>
      <trkpt lat="44.40392" lon="5.24615">
        <ele>418</ele>
        <time>2024-08-15T14:22:47Z</time>
      </trkpt>
      <trkpt lat="44.40405" lon="5.24625">
        <ele>419</ele>
        <time>2024-08-15T14:22:50Z</time>
      </trkpt>
      <trkpt lat="44.4041" lon="5.24613">
        <ele>422</ele>
        <time>2024-08-15T14:22:52Z</time>
      </trkpt>
      <trkpt lat="44.40398" lon="5.24589">
        <ele>425</ele>
        <time>2024-08-15T14:22:56Z</time>
      </trkpt>
      <trkpt lat="44.40396" lon="5.24545">
        <ele>430</ele>
        <time>2024-08-15T14:23:01Z</time>
      </trkpt>
      <trkpt lat="44.40385" lon="5.24503">
        <ele>430</ele>
        <time>2024-08-15T14:23:07Z</time>
      </trkpt>
      <trkpt lat="44.40367" lon="5.24395">
        <ele>445</ele>
        <time>2024-08-15T14:23:21Z</time>
      </trkpt>
      <trkpt lat="44.40337" lon="5.2433">
        <ele>439</ele>
        <time>2024-08-15T14:23:31Z</time>
      </trkpt>
      <trkpt lat="44.40326" lon="5.24266">
        <ele>438</ele>
        <time>2024-08-15T14:23:39Z</time>
      </trkpt>
      <trkpt lat="44.4033" lon="5.24232">
        <ele>439</ele>
        <time>2024-08-15T14:23:44Z</time>
      </trkpt>
      <trkpt lat="44.40374" lon="5.24161">
        <ele>444</ele>
        <time>2024-08-15T14:23:56Z</time>
      </trkpt>
      <trkpt lat="44.40421" lon="5.24151">
        <ele>459</ele>
        <time>2024-08-15T14:24:04Z</time>
      </trkpt>
      <trkpt lat="44.40478" lon="5.24108">
        <ele>464</ele>
        <time>2024-08-15T14:24:15Z</time>
      </trkpt>
      <trkpt lat="44.40511" lon="5.24067">
        <ele>459</ele>
        <time>2024-08-15T14:24:23Z</time>
      </trkpt>
      <trkpt lat="44.40533" lon="5.24049">
        <ele>458</ele>
        <time>2024-08-15T14:24:28Z</time>
      </trkpt>
      <trkpt lat="44.40576" lon="5.24034">
        <ele>464</ele>
        <time>2024-08-15T14:24:36Z</time>
      </trkpt>
      <trkpt lat="44.40638" lon="5.24046">
        <ele>478</ele>
        <time>2024-08-15T14:24:47Z</time>
      </trkpt>
      <trkpt lat="44.40692" lon="5.24048">
        <ele>485</ele>
        <time>2024-08-15T14:24:57Z</time>
      </trkpt>
      <trkpt lat="44.40721" lon="5.24065">
        <ele>495</ele>
        <time>2024-08-15T14:25:02Z</time>
      </trkpt>
      <trkpt lat="44.40772" lon="5.24041">
        <ele>499</ele>
        <time>2024-08-15T14:25:12Z</time>
      </trkpt>
      <trkpt lat="44.40804" lon="5.23991">
        <ele>494</ele>
        <time>2024-08-15T14:25:20Z</time>
      </trkpt>
      <trkpt lat="44.40844" lon="5.23943">
        <ele>495</ele>
        <time>2024-08-15T14:25:30Z</time>
      </trkpt>
      <trkpt lat="44.40891" lon="5.23925">
        <ele>505</ele>
        <time>2024-08-15T14:25:38Z</time>
      </trkpt>
      <trkpt lat="44.40914" lon="5.23895">
        <ele>506</ele>
        <time>2024-08-15T14:25:44Z</time>
      </trkpt>
      <trkpt lat="44.4093" lon="5.2385">
        <ele>504</ele>
        <time>2024-08-15T14:25:50Z</time>
      </trkpt>
      <trkpt lat="44.40939" lon="5.23808">
        <ele>503</ele>
        <time>2024-08-15T14:25:56Z</time>
      </trkpt>
      <trkpt lat="44.40959" lon="5.23768">
        <ele>505</ele>
        <time>2024-08-15T14:26:02Z</time>
      </trkpt>
      <trkpt lat="44.40973" lon="5.23704">
        <ele>502</ele>
        <time>2024-08-15T14:26:11Z</time>
      </trkpt>
      <trkpt lat="44.40986" lon="5.23684">
        <ele>500</ele>
        <time>2024-08-15T14:26:14Z</time>
      </trkpt>
      <trkpt lat="44.41013" lon="5.23681">
        <ele>499</ele>
        <time>2024-08-15T14:26:19Z</time>
      </trkpt>
      <trkpt lat="44.41087" lon="5.23688">
        <ele>504</ele>
        <time>2024-08-15T14:26:32Z</time>
      </trkpt>
      <trkpt lat="44.41164" lon="5.23744">
        <ele>503</ele>
        <time>2024-08-15T14:26:47Z</time>
      </trkpt>
      <trkpt lat="44.41192" lon="5.23773">
        <ele>506</ele>
        <time>2024-08-15T14:26:54Z</time>
      </trkpt>
      <trkpt lat="44.41202" lon="5.23778">
        <ele>506</ele>
        <time>2024-08-15T14:26:55Z</time>
      </trkpt>
      <trkpt lat="44.41208" lon="5.23776">
        <ele>505</ele>
        <time>2024-08-15T14:26:57Z</time>
      </trkpt>
      <trkpt lat="44.41218" lon="5.23771">
        <ele>504</ele>
        <time>2024-08-15T14:26:58Z</time>
      </trkpt>
      <trkpt lat="44.41229" lon="5.23771">
        <ele>504</ele>
        <time>2024-08-15T14:27:00Z</time>
      </trkpt>
      <trkpt lat="44.41251" lon="5.23788">
        <ele>504</ele>
        <time>2024-08-15T14:27:05Z</time>
      </trkpt>
      <trkpt lat="44.4126" lon="5.23789">
        <ele>505</ele>
        <time>2024-08-15T14:27:07Z</time>
      </trkpt>
      <trkpt lat="44.41275" lon="5.23784">
        <ele>505</ele>
        <time>2024-08-15T14:27:09Z</time>
      </trkpt>
      <trkpt lat="44.41308" lon="5.23768">
        <ele>505</ele>
        <time>2024-08-15T14:27:15Z</time>
      </trkpt>
      <trkpt lat="44.41313" lon="5.23765">
        <ele>505</ele>
        <time>2024-08-15T14:27:16Z</time>
      </trkpt>
      <trkpt lat="44.41322" lon="5.23755">
        <ele>504</ele>
        <time>2024-08-15T14:27:18Z</time>
      </trkpt>
      <trkpt lat="44.41337" lon="5.23718">
        <ele>507</ele>
        <time>2024-08-15T14:27:24Z</time>
      </trkpt>
      <trkpt lat="44.41339" lon="5.23667">
        <ele>511</ele>
        <time>2024-08-15T14:27:30Z</time>
      </trkpt>
      <trkpt lat="44.41332" lon="5.23631">
        <ele>513</ele>
        <time>2024-08-15T14:27:35Z</time>
      </trkpt>
      <trkpt lat="44.41321" lon="5.2359">
        <ele>517</ele>
        <time>2024-08-15T14:27:41Z</time>
      </trkpt>
      <trkpt lat="44.41309" lon="5.23559">
        <ele>520</ele>
        <time>2024-08-15T14:27:45Z</time>
      </trkpt>
      <trkpt lat="44.41309" lon="5.23529">
        <ele>521</ele>
        <time>2024-08-15T14:27:49Z</time>
      </trkpt>
      <trkpt lat="44.41326" lon="5.23487">
        <ele>520</ele>
        <time>2024-08-15T14:27:55Z</time>
      </trkpt>
      <trkpt lat="44.41393" lon="5.23432">
        <ele>526</ele>
        <time>2024-08-15T14:28:09Z</time>
      </trkpt>
      <trkpt lat="44.41429" lon="5.23357">
        <ele>529</ele>
        <time>2024-08-15T14:28:20Z</time>
      </trkpt>
      <trkpt lat="44.41457" lon="5.2332">
        <ele>531</ele>
        <time>2024-08-15T14:28:27Z</time>
      </trkpt>
      <trkpt lat="44.41497" lon="5.23279">
        <ele>533</ele>
        <time>2024-08-15T14:28:36Z</time>
      </trkpt>
      <trkpt lat="44.41513" lon="5.2325">
        <ele>531</ele>
        <time>2024-08-15T14:28:41Z</time>
      </trkpt>
      <trkpt lat="44.41524" lon="5.23224">
        <ele>532</ele>
        <time>2024-08-15T14:28:45Z</time>
      </trkpt>
      <trkpt lat="44.4152" lon="5.23172">
        <ele>530</ele>
        <time>2024-08-15T14:28:51Z</time>
      </trkpt>
      <trkpt lat="44.41514" lon="5.23138">
        <ele>531</ele>
        <time>2024-08-15T14:28:56Z</time>
      </trkpt>
      <trkpt lat="44.41515" lon="5.23113">
        <ele>532</ele>
        <time>2024-08-15T14:28:59Z</time>
      </trkpt>
      <trkpt lat="44.41519" lon="5.23093">
        <ele>532</ele>
        <time>2024-08-15T14:29:02Z</time>
      </trkpt>
      <trkpt lat="44.4152" lon="5.23065">
        <ele>533</ele>
        <time>2024-08-15T14:29:05Z</time>
      </trkpt>
      <trkpt lat="44.41522" lon="5.23055">
        <ele>534</ele>
        <time>2024-08-15T14:29:06Z</time>
      </trkpt>
      <trkpt lat="44.41525" lon="5.23051">
        <ele>534</ele>
        <time>2024-08-15T14:29:07Z</time>
      </trkpt>
      <trkpt lat="44.41532" lon="5.23046">
        <ele>535</ele>
        <time>2024-08-15T14:29:09Z</time>
      </trkpt>
      <trkpt lat="44.41552" lon="5.23033">
        <ele>536</ele>
        <time>2024-08-15T14:29:12Z</time>
      </trkpt>
      <trkpt lat="44.41563" lon="5.23034">
        <ele>537</ele>
        <time>2024-08-15T14:29:14Z</time>
      </trkpt>
      <trkpt lat="44.41586" lon="5.23058">
        <ele>536</ele>
        <time>2024-08-15T14:29:20Z</time>
      </trkpt>
      <trkpt lat="44.41606" lon="5.23068">
        <ele>537</ele>
        <time>2024-08-15T14:29:23Z</time>
      </trkpt>
      <trkpt lat="44.41621" lon="5.23069">
        <ele>538</ele>
        <time>2024-08-15T14:29:26Z</time>
      </trkpt>
      <trkpt lat="44.4163" lon="5.23068">
        <ele>539</ele>
        <time>2024-08-15T14:29:28Z</time>
      </trkpt>
      <trkpt lat="44.4167" lon="5.2306">
        <ele>543</ele>
        <time>2024-08-15T14:29:35Z</time>
      </trkpt>
      <trkpt lat="44.4172" lon="5.23076">
        <ele>546</ele>
        <time>2024-08-15T14:29:44Z</time>
      </trkpt>
      <trkpt lat="44.4175" lon="5.23094">
        <ele>547</ele>
        <time>2024-08-15T14:29:50Z</time>
      </trkpt>
      <trkpt lat="44.41753" lon="5.23089">
        <ele>548</ele>
        <time>2024-08-15T14:29:51Z</time>
      </trkpt>
      <trkpt lat="44.41718" lon="5.22981">
        <ele>553</ele>
        <time>2024-08-15T14:30:06Z</time>
      </trkpt>
      <trkpt lat="44.41707" lon="5.22935">
        <ele>555</ele>
        <time>2024-08-15T14:30:12Z</time>
      </trkpt>
      <trkpt lat="44.41709" lon="5.22919">
        <ele>556</ele>
        <time>2024-08-15T14:30:14Z</time>
      </trkpt>
      <trkpt lat="44.41724" lon="5.22886">
        <ele>559</ele>
        <time>2024-08-15T14:30:19Z</time>
      </trkpt>
      <trkpt lat="44.41754" lon="5.22859">
        <ele>562</ele>
        <time>2024-08-15T14:30:25Z</time>
      </trkpt>
      <trkpt lat="44.41771" lon="5.22851">
        <ele>565</ele>
        <time>2024-08-15T14:30:28Z</time>
      </trkpt>
      <trkpt lat="44.41785" lon="5.22831">
        <ele>568</ele>
        <time>2024-08-15T14:30:32Z</time>
      </trkpt>
      <trkpt lat="44.41806" lon="5.22764">
        <ele>573</ele>
        <time>2024-08-15T14:30:41Z</time>
      </trkpt>
      <trkpt lat="44.41808" lon="5.22733">
        <ele>574</ele>
        <time>2024-08-15T14:30:45Z</time>
      </trkpt>
      <trkpt lat="44.41798" lon="5.22667">
        <ele>576</ele>
        <time>2024-08-15T14:30:54Z</time>
      </trkpt>
      <trkpt lat="44.4176" lon="5.22638">
        <ele>571</ele>
        <time>2024-08-15T14:31:01Z</time>
      </trkpt>
      <trkpt lat="44.41754" lon="5.22622">
        <ele>571</ele>
        <time>2024-08-15T14:31:04Z</time>
      </trkpt>
      <trkpt lat="44.41756" lon="5.22601">
        <ele>572</ele>
        <time>2024-08-15T14:31:06Z</time>
      </trkpt>
      <trkpt lat="44.41834" lon="5.22542">
        <ele>580</ele>
        <time>2024-08-15T14:31:22Z</time>
      </trkpt>
      <trkpt lat="44.41863" lon="5.22505">
        <ele>583</ele>
        <time>2024-08-15T14:31:29Z</time>
      </trkpt>
      <trkpt lat="44.41903" lon="5.22479">
        <ele>588</ele>
        <time>2024-08-15T14:31:37Z</time>
      </trkpt>
      <trkpt lat="44.41937" lon="5.22448">
        <ele>589</ele>
        <time>2024-08-15T14:31:44Z</time>
      </trkpt>
      <trkpt lat="44.4195" lon="5.22444">
        <ele>589</ele>
        <time>2024-08-15T14:31:47Z</time>
      </trkpt>
      <trkpt lat="44.4199" lon="5.22448">
        <ele>592</ele>
        <time>2024-08-15T14:31:54Z</time>
      </trkpt>
      <trkpt lat="44.41995" lon="5.22443">
        <ele>591</ele>
        <time>2024-08-15T14:31:55Z</time>
      </trkpt>
      <trkpt lat="44.42006" lon="5.2243">
        <ele>591</ele>
        <time>2024-08-15T14:31:57Z</time>
      </trkpt>
      <trkpt lat="44.42041" lon="5.22352">
        <ele>586</ele>
        <time>2024-08-15T14:32:09Z</time>
      </trkpt>
      <trkpt lat="44.42054" lon="5.2234">
        <ele>585</ele>
        <time>2024-08-15T14:32:12Z</time>
      </trkpt>
      <trkpt lat="44.42079" lon="5.22333">
        <ele>587</ele>
        <time>2024-08-15T14:32:16Z</time>
      </trkpt>
      <trkpt lat="44.42106" lon="5.22303">
        <ele>587</ele>
        <time>2024-08-15T14:32:23Z</time>
      </trkpt>
      <trkpt lat="44.42122" lon="5.22264">
        <ele>582</ele>
        <time>2024-08-15T14:32:28Z</time>
      </trkpt>
      <trkpt lat="44.4214" lon="5.22238">
        <ele>579</ele>
        <time>2024-08-15T14:32:33Z</time>
      </trkpt>
      <trkpt lat="44.42159" lon="5.22195">
        <ele>570</ele>
        <time>2024-08-15T14:32:39Z</time>
      </trkpt>
      <trkpt lat="44.42174" lon="5.22157">
        <ele>560</ele>
        <time>2024-08-15T14:32:45Z</time>
      </trkpt>
      <trkpt lat="44.42184" lon="5.22147">
        <ele>557</ele>
        <time>2024-08-15T14:32:47Z</time>
      </trkpt>
      <trkpt lat="44.42193" lon="5.22145">
        <ele>556</ele>
        <time>2024-08-15T14:32:49Z</time>
      </trkpt>
      <trkpt lat="44.4222" lon="5.22157">
        <ele>559</ele>
        <time>2024-08-15T14:32:54Z</time>
      </trkpt>
      <trkpt lat="44.42244" lon="5.22153">
        <ele>557</ele>
        <time>2024-08-15T14:32:58Z</time>
      </trkpt>
      <trkpt lat="44.42251" lon="5.22156">
        <ele>558</ele>
        <time>2024-08-15T14:32:59Z</time>
      </trkpt>
      <trkpt lat="44.42262" lon="5.22168">
        <ele>559</ele>
        <time>2024-08-15T14:33:02Z</time>
      </trkpt>
      <trkpt lat="44.42273" lon="5.22183">
        <ele>561</ele>
        <time>2024-08-15T14:33:04Z</time>
      </trkpt>
      <trkpt lat="44.42286" lon="5.22191">
        <ele>561</ele>
        <time>2024-08-15T14:33:07Z</time>
      </trkpt>
      <trkpt lat="44.42301" lon="5.22196">
        <ele>560</ele>
        <time>2024-08-15T14:33:10Z</time>
      </trkpt>
      <trkpt lat="44.4232" lon="5.22214">
        <ele>564</ele>
        <time>2024-08-15T14:33:14Z</time>
      </trkpt>
      <trkpt lat="44.42346" lon="5.22212">
        <ele>559</ele>
        <time>2024-08-15T14:33:18Z</time>
      </trkpt>
      <trkpt lat="44.42409" lon="5.22198">
        <ele>541</ele>
        <time>2024-08-15T14:33:30Z</time>
      </trkpt>
      <trkpt lat="44.42418" lon="5.22199">
        <ele>539</ele>
        <time>2024-08-15T14:33:31Z</time>
      </trkpt>
      <trkpt lat="44.42426" lon="5.22201">
        <ele>539</ele>
        <time>2024-08-15T14:33:33Z</time>
      </trkpt>
      <trkpt lat="44.42446" lon="5.22226">
        <ele>545</ele>
        <time>2024-08-15T14:33:38Z</time>
      </trkpt>
      <trkpt lat="44.42462" lon="5.22236">
        <ele>546</ele>
        <time>2024-08-15T14:33:41Z</time>
      </trkpt>
      <trkpt lat="44.42475" lon="5.2224">
        <ele>544</ele>
        <time>2024-08-15T14:33:43Z</time>
      </trkpt>
      <trkpt lat="44.42506" lon="5.22244">
        <ele>538</ele>
        <time>2024-08-15T14:33:49Z</time>
      </trkpt>
      <trkpt lat="44.42512" lon="5.22243">
        <ele>536</ele>
        <time>2024-08-15T14:33:50Z</time>
      </trkpt>
      <trkpt lat="44.42514" lon="5.22236">
        <ele>533</ele>
        <time>2024-08-15T14:33:51Z</time>
      </trkpt>
      <trkpt lat="44.42511" lon="5.22232">
        <ele>533</ele>
        <time>2024-08-15T14:33:51Z</time>
      </trkpt>
      <trkpt lat="44.42488" lon="5.2223">
        <ele>537</ele>
        <time>2024-08-15T14:33:56Z</time>
      </trkpt>
      <trkpt lat="44.4248" lon="5.22227">
        <ele>538</ele>
        <time>2024-08-15T14:33:57Z</time>
      </trkpt>
      <trkpt lat="44.42443" lon="5.22197">
        <ele>534</ele>
        <time>2024-08-15T14:34:05Z</time>
      </trkpt>
      <trkpt lat="44.42434" lon="5.22185">
        <ele>530</ele>
        <time>2024-08-15T14:34:07Z</time>
      </trkpt>
      <trkpt lat="44.42433" lon="5.22178">
        <ele>527</ele>
        <time>2024-08-15T14:34:08Z</time>
      </trkpt>
      <trkpt lat="44.42437" lon="5.22176">
        <ele>526</ele>
        <time>2024-08-15T14:34:08Z</time>
      </trkpt>
      <trkpt lat="44.42445" lon="5.22185">
        <ele>528</ele>
        <time>2024-08-15T14:34:10Z</time>
      </trkpt>
      <trkpt lat="44.42455" lon="5.22192">
        <ele>529</ele>
        <time>2024-08-15T14:34:12Z</time>
      </trkpt>
      <trkpt lat="44.42486" lon="5.22205">
        <ele>528</ele>
        <time>2024-08-15T14:34:18Z</time>
      </trkpt>
      <trkpt lat="44.42497" lon="5.22202">
        <ele>525</ele>
        <time>2024-08-15T14:34:20Z</time>
      </trkpt>
      <trkpt lat="44.42506" lon="5.22197">
        <ele>521</ele>
        <time>2024-08-15T14:34:22Z</time>
      </trkpt>
      <trkpt lat="44.42527" lon="5.22176">
        <ele>511</ele>
        <time>2024-08-15T14:34:26Z</time>
      </trkpt>
      <trkpt lat="44.42534" lon="5.22173">
        <ele>510</ele>
        <time>2024-08-15T14:34:28Z</time>
      </trkpt>
      <trkpt lat="44.42575" lon="5.22174">
        <ele>505</ele>
        <time>2024-08-15T14:34:35Z</time>
      </trkpt>
      <trkpt lat="44.42591" lon="5.2217">
        <ele>502</ele>
        <time>2024-08-15T14:34:38Z</time>
      </trkpt>
      <trkpt lat="44.426" lon="5.22173">
        <ele>500</ele>
        <time>2024-08-15T14:34:39Z</time>
      </trkpt>
      <trkpt lat="44.42603" lon="5.22181">
        <ele>501</ele>
        <time>2024-08-15T14:34:41Z</time>
      </trkpt>
      <trkpt lat="44.42608" lon="5.22217">
        <ele>505</ele>
        <time>2024-08-15T14:34:45Z</time>
      </trkpt>
      <trkpt lat="44.42616" lon="5.22255">
        <ele>508</ele>
        <time>2024-08-15T14:34:50Z</time>
      </trkpt>
      <trkpt lat="44.42622" lon="5.22308">
        <ele>510</ele>
        <time>2024-08-15T14:34:57Z</time>
      </trkpt>
      <trkpt lat="44.42625" lon="5.22318">
        <ele>510</ele>
        <time>2024-08-15T14:34:59Z</time>
      </trkpt>
      <trkpt lat="44.4263" lon="5.22327">
        <ele>509</ele>
        <time>2024-08-15T14:35:00Z</time>
      </trkpt>
      <trkpt lat="44.42666" lon="5.22354">
        <ele>501</ele>
        <time>2024-08-15T14:35:07Z</time>
      </trkpt>
      <trkpt lat="44.42691" lon="5.22367">
        <ele>496</ele>
        <time>2024-08-15T14:35:12Z</time>
      </trkpt>
      <trkpt lat="44.42695" lon="5.22378">
        <ele>497</ele>
        <time>2024-08-15T14:35:14Z</time>
      </trkpt>
      <trkpt lat="44.42707" lon="5.22388">
        <ele>495</ele>
        <time>2024-08-15T14:35:16Z</time>
      </trkpt>
      <trkpt lat="44.4271" lon="5.22382">
        <ele>493</ele>
        <time>2024-08-15T14:35:17Z</time>
      </trkpt>
      <trkpt lat="44.42709" lon="5.22376">
        <ele>492</ele>
        <time>2024-08-15T14:35:18Z</time>
      </trkpt>
      <trkpt lat="44.42674" lon="5.22326">
        <ele>494</ele>
        <time>2024-08-15T14:35:27Z</time>
      </trkpt>
      <trkpt lat="44.42666" lon="5.22305">
        <ele>494</ele>
        <time>2024-08-15T14:35:30Z</time>
      </trkpt>
      <trkpt lat="44.42669" lon="5.22298">
        <ele>493</ele>
        <time>2024-08-15T14:35:31Z</time>
      </trkpt>
      <trkpt lat="44.42681" lon="5.22289">
        <ele>488</ele>
        <time>2024-08-15T14:35:33Z</time>
      </trkpt>
      <trkpt lat="44.42691" lon="5.22275">
        <ele>484</ele>
        <time>2024-08-15T14:35:36Z</time>
      </trkpt>
      <trkpt lat="44.42695" lon="5.22258">
        <ele>481</ele>
        <time>2024-08-15T14:35:38Z</time>
      </trkpt>
      <trkpt lat="44.42697" lon="5.22227">
        <ele>478</ele>
        <time>2024-08-15T14:35:42Z</time>
      </trkpt>
      <trkpt lat="44.42693" lon="5.22184">
        <ele>477</ele>
        <time>2024-08-15T14:35:47Z</time>
      </trkpt>
      <trkpt lat="44.42694" lon="5.22172">
        <ele>477</ele>
        <time>2024-08-15T14:35:49Z</time>
      </trkpt>
      <trkpt lat="44.42713" lon="5.22132">
        <ele>467</ele>
        <time>2024-08-15T14:35:55Z</time>
      </trkpt>
      <trkpt lat="44.42733" lon="5.22113">
        <ele>461</ele>
        <time>2024-08-15T14:35:59Z</time>
      </trkpt>
      <trkpt lat="44.42739" lon="5.22118">
        <ele>461</ele>
        <time>2024-08-15T14:36:01Z</time>
      </trkpt>
      <trkpt lat="44.42737" lon="5.22125">
        <ele>462</ele>
        <time>2024-08-15T14:36:02Z</time>
      </trkpt>
      <trkpt lat="44.42716" lon="5.22151">
        <ele>469</ele>
        <time>2024-08-15T14:36:07Z</time>
      </trkpt>
      <trkpt lat="44.42713" lon="5.22167">
        <ele>471</ele>
        <time>2024-08-15T14:36:09Z</time>
      </trkpt>
      <trkpt lat="44.42713" lon="5.22183">
        <ele>472</ele>
        <time>2024-08-15T14:36:11Z</time>
      </trkpt>
      <trkpt lat="44.42726" lon="5.22207">
        <ele>469</ele>
        <time>2024-08-15T14:36:14Z</time>
      </trkpt>
      <trkpt lat="44.4273" lon="5.22225">
        <ele>469</ele>
        <time>2024-08-15T14:36:17Z</time>
      </trkpt>
      <trkpt lat="44.42735" lon="5.22234">
        <ele>468</ele>
        <time>2024-08-15T14:36:18Z</time>
      </trkpt>
      <trkpt lat="44.42742" lon="5.22235">
        <ele>466</ele>
        <time>2024-08-15T14:36:20Z</time>
      </trkpt>
      <trkpt lat="44.42747" lon="5.22227">
        <ele>464</ele>
        <time>2024-08-15T14:36:21Z</time>
      </trkpt>
      <trkpt lat="44.42743" lon="5.22213">
        <ele>465</ele>
        <time>2024-08-15T14:36:23Z</time>
      </trkpt>
      <trkpt lat="44.42739" lon="5.2219">
        <ele>465</ele>
        <time>2024-08-15T14:36:26Z</time>
      </trkpt>
      <trkpt lat="44.42739" lon="5.22173">
        <ele>464</ele>
        <time>2024-08-15T14:36:28Z</time>
      </trkpt>
      <trkpt lat="44.42766" lon="5.22131">
        <ele>453</ele>
        <time>2024-08-15T14:36:35Z</time>
      </trkpt>
      <trkpt lat="44.42773" lon="5.2211">
        <ele>449</ele>
        <time>2024-08-15T14:36:38Z</time>
      </trkpt>
      <trkpt lat="44.42775" lon="5.22092">
        <ele>448</ele>
        <time>2024-08-15T14:36:40Z</time>
      </trkpt>
      <trkpt lat="44.42762" lon="5.22043">
        <ele>443</ele>
        <time>2024-08-15T14:36:47Z</time>
      </trkpt>
      <trkpt lat="44.42768" lon="5.21997">
        <ele>431</ele>
        <time>2024-08-15T14:36:53Z</time>
      </trkpt>
      <trkpt lat="44.42768" lon="5.21979">
        <ele>428</ele>
        <time>2024-08-15T14:36:55Z</time>
      </trkpt>
      <trkpt lat="44.4277" lon="5.2197">
        <ele>426</ele>
        <time>2024-08-15T14:36:57Z</time>
      </trkpt>
      <trkpt lat="44.42776" lon="5.21972">
        <ele>425</ele>
        <time>2024-08-15T14:36:58Z</time>
      </trkpt>
      <trkpt lat="44.42779" lon="5.21982">
        <ele>427</ele>
        <time>2024-08-15T14:36:59Z</time>
      </trkpt>
      <trkpt lat="44.42781" lon="5.21999">
        <ele>429</ele>
        <time>2024-08-15T14:37:01Z</time>
      </trkpt>
      <trkpt lat="44.4278" lon="5.22025">
        <ele>434</ele>
        <time>2024-08-15T14:37:05Z</time>
      </trkpt>
      <trkpt lat="44.42782" lon="5.22038">
        <ele>436</ele>
        <time>2024-08-15T14:37:06Z</time>
      </trkpt>
      <trkpt lat="44.42786" lon="5.22053">
        <ele>438</ele>
        <time>2024-08-15T14:37:08Z</time>
      </trkpt>
      <trkpt lat="44.42804" lon="5.22082">
        <ele>436</ele>
        <time>2024-08-15T14:37:13Z</time>
      </trkpt>
      <trkpt lat="44.42811" lon="5.22118">
        <ele>435</ele>
        <time>2024-08-15T14:37:18Z</time>
      </trkpt>
      <trkpt lat="44.42815" lon="5.22174">
        <ele>436</ele>
        <time>2024-08-15T14:37:25Z</time>
      </trkpt>
      <trkpt lat="44.42833" lon="5.2221">
        <ele>432</ele>
        <time>2024-08-15T14:37:31Z</time>
      </trkpt>
      <trkpt lat="44.42839" lon="5.2221">
        <ele>431</ele>
        <time>2024-08-15T14:37:32Z</time>
      </trkpt>
      <trkpt lat="44.42842" lon="5.22205">
        <ele>430</ele>
        <time>2024-08-15T14:37:32Z</time>
      </trkpt>
      <trkpt lat="44.42837" lon="5.2218">
        <ele>429</ele>
        <time>2024-08-15T14:37:36Z</time>
      </trkpt>
      <trkpt lat="44.42836" lon="5.22169">
        <ele>428</ele>
        <time>2024-08-15T14:37:37Z</time>
      </trkpt>
      <trkpt lat="44.42839" lon="5.22159">
        <ele>427</ele>
        <time>2024-08-15T14:37:39Z</time>
      </trkpt>
      <trkpt lat="44.42857" lon="5.22141">
        <ele>425</ele>
        <time>2024-08-15T14:37:43Z</time>
      </trkpt>
      <trkpt lat="44.42906" lon="5.22119">
        <ele>420</ele>
        <time>2024-08-15T14:37:52Z</time>
      </trkpt>
      <trkpt lat="44.42921" lon="5.22122">
        <ele>420</ele>
        <time>2024-08-15T14:37:54Z</time>
      </trkpt>
      <trkpt lat="44.42934" lon="5.22121">
        <ele>421</ele>
        <time>2024-08-15T14:37:57Z</time>
      </trkpt>
      <trkpt lat="44.42944" lon="5.22113">
        <ele>422</ele>
        <time>2024-08-15T14:37:59Z</time>
      </trkpt>
      <trkpt lat="44.42929" lon="5.22069">
        <ele>422</ele>
        <time>2024-08-15T14:38:05Z</time>
      </trkpt>
      <trkpt lat="44.42894" lon="5.22003">
        <ele>425</ele>
        <time>2024-08-15T14:38:15Z</time>
      </trkpt>
      <trkpt lat="44.42875" lon="5.2191">
        <ele>424</ele>
        <time>2024-08-15T14:38:28Z</time>
      </trkpt>
      <trkpt lat="44.42863" lon="5.21871">
        <ele>425</ele>
        <time>2024-08-15T14:38:33Z</time>
      </trkpt>
      <trkpt lat="44.42852" lon="5.21846">
        <ele>424</ele>
        <time>2024-08-15T14:38:37Z</time>
      </trkpt>
      <trkpt lat="44.42785" lon="5.21772">
        <ele>417</ele>
        <time>2024-08-15T14:38:52Z</time>
      </trkpt>
      <trkpt lat="44.42777" lon="5.21748">
        <ele>417</ele>
        <time>2024-08-15T14:38:55Z</time>
      </trkpt>
      <trkpt lat="44.42873" lon="5.21705">
        <ele>423</ele>
        <time>2024-08-15T14:39:13Z</time>
      </trkpt>
      <trkpt lat="44.42905" lon="5.21677">
        <ele>422</ele>
        <time>2024-08-15T14:39:20Z</time>
      </trkpt>
      <trkpt lat="44.43103" lon="5.21456">
        <ele>429</ele>
        <time>2024-08-15T14:40:05Z</time>
      </trkpt>
      <trkpt lat="44.4317" lon="5.21393">
        <ele>434</ele>
        <time>2024-08-15T14:40:19Z</time>
      </trkpt>
      <trkpt lat="44.43243" lon="5.21329">
        <ele>436</ele>
        <time>2024-08-15T14:40:35Z</time>
      </trkpt>
      <trkpt lat="44.43268" lon="5.21313">
        <ele>439</ele>
        <time>2024-08-15T14:40:40Z</time>
      </trkpt>
      <trkpt lat="44.43318" lon="5.2129">
        <ele>445</ele>
        <time>2024-08-15T14:40:49Z</time>
      </trkpt>
      <trkpt lat="44.43343" lon="5.21287">
        <ele>447</ele>
        <time>2024-08-15T14:40:53Z</time>
      </trkpt>
      <trkpt lat="44.43394" lon="5.21287">
        <ele>451</ele>
        <time>2024-08-15T14:41:03Z</time>
      </trkpt>
      <trkpt lat="44.4341" lon="5.21285">
        <ele>451</ele>
        <time>2024-08-15T14:41:05Z</time>
      </trkpt>
      <trkpt lat="44.43513" lon="5.21228">
        <ele>447</ele>
        <time>2024-08-15T14:41:25Z</time>
      </trkpt>
      <trkpt lat="44.43521" lon="5.21224">
        <ele>448</ele>
        <time>2024-08-15T14:41:27Z</time>
      </trkpt>
      <trkpt lat="44.43543" lon="5.21211">
        <ele>448</ele>
        <time>2024-08-15T14:41:31Z</time>
      </trkpt>
      <trkpt lat="44.43574" lon="5.21198">
        <ele>449</ele>
        <time>2024-08-15T14:41:37Z</time>
      </trkpt>
      <trkpt lat="44.43639" lon="5.21178">
        <ele>454</ele>
        <time>2024-08-15T14:41:48Z</time>
      </trkpt>
      <trkpt lat="44.43659" lon="5.21169">
        <ele>455</ele>
        <time>2024-08-15T14:41:52Z</time>
      </trkpt>
      <trkpt lat="44.43672" lon="5.21161">
        <ele>455</ele>
        <time>2024-08-15T14:41:55Z</time>
      </trkpt>
      <trkpt lat="44.43691" lon="5.21138">
        <ele>456</ele>
        <time>2024-08-15T14:41:59Z</time>
      </trkpt>
      <trkpt lat="44.4372" lon="5.21088">
        <ele>456</ele>
        <time>2024-08-15T14:42:07Z</time>
      </trkpt>
      <trkpt lat="44.43728" lon="5.21077">
        <ele>456</ele>
        <time>2024-08-15T14:42:09Z</time>
      </trkpt>
      <trkpt lat="44.43736" lon="5.21068">
        <ele>457</ele>
        <time>2024-08-15T14:42:11Z</time>
      </trkpt>
      <trkpt lat="44.43778" lon="5.21019">
        <ele>457</ele>
        <time>2024-08-15T14:42:21Z</time>
      </trkpt>
      <trkpt lat="44.43809" lon="5.20978">
        <ele>458</ele>
        <time>2024-08-15T14:42:28Z</time>
      </trkpt>
      <trkpt lat="44.43835" lon="5.20962">
        <ele>459</ele>
        <time>2024-08-15T14:42:34Z</time>
      </trkpt>
      <trkpt lat="44.43859" lon="5.20954">
        <ele>460</ele>
        <time>2024-08-15T14:42:38Z</time>
      </trkpt>
      <trkpt lat="44.43912" lon="5.20962">
        <ele>465</ele>
        <time>2024-08-15T14:42:47Z</time>
      </trkpt>
      <trkpt lat="44.43981" lon="5.20946">
        <ele>468</ele>
        <time>2024-08-15T14:43:00Z</time>
      </trkpt>
      <trkpt lat="44.4409" lon="5.20955">
        <ele>473</ele>
        <time>2024-08-15T14:43:19Z</time>
      </trkpt>
      <trkpt lat="44.44103" lon="5.20956">
        <ele>473</ele>
        <time>2024-08-15T14:43:22Z</time>
      </trkpt>
      <trkpt lat="44.44112" lon="5.20953">
        <ele>473</ele>
        <time>2024-08-15T14:43:23Z</time>
      </trkpt>
      <trkpt lat="44.4413" lon="5.20938">
        <ele>471</ele>
        <time>2024-08-15T14:43:27Z</time>
      </trkpt>
      <trkpt lat="44.44164" lon="5.2091">
        <ele>473</ele>
        <time>2024-08-15T14:43:34Z</time>
      </trkpt>
      <trkpt lat="44.44156" lon="5.20899">
        <ele>475</ele>
        <time>2024-08-15T14:43:36Z</time>
      </trkpt>
      <trkpt lat="44.44095" lon="5.20844">
        <ele>475</ele>
        <time>2024-08-15T14:43:49Z</time>
      </trkpt>
      <trkpt lat="44.44084" lon="5.20831">
        <ele>475</ele>
        <time>2024-08-15T14:43:51Z</time>
      </trkpt>
      <trkpt lat="44.44053" lon="5.20769">
        <ele>480</ele>
        <time>2024-08-15T14:44:01Z</time>
      </trkpt>
      <trkpt lat="44.44033" lon="5.20739">
        <ele>478</ele>
        <time>2024-08-15T14:44:06Z</time>
      </trkpt>
      <trkpt lat="44.44029" lon="5.20729">
        <ele>477</ele>
        <time>2024-08-15T14:44:08Z</time>
      </trkpt>
      <trkpt lat="44.44028" lon="5.20715">
        <ele>478</ele>
        <time>2024-08-15T14:44:10Z</time>
      </trkpt>
      <trkpt lat="44.44043" lon="5.20596">
        <ele>486</ele>
        <time>2024-08-15T14:44:25Z</time>
      </trkpt>
      <trkpt lat="44.4405" lon="5.20561">
        <ele>488</ele>
        <time>2024-08-15T14:44:29Z</time>
      </trkpt>
      <trkpt lat="44.44063" lon="5.20518">
        <ele>489</ele>
        <time>2024-08-15T14:44:35Z</time>
      </trkpt>
      <trkpt lat="44.4409" lon="5.2045">
        <ele>486</ele>
        <time>2024-08-15T14:44:45Z</time>
      </trkpt>
      <trkpt lat="44.441" lon="5.20428">
        <ele>485</ele>
        <time>2024-08-15T14:44:49Z</time>
      </trkpt>
      <trkpt lat="44.44117" lon="5.2041">
        <ele>489</ele>
        <time>2024-08-15T14:44:52Z</time>
      </trkpt>
      <trkpt lat="44.44165" lon="5.20378">
        <ele>497</ele>
        <time>2024-08-15T14:45:02Z</time>
      </trkpt>
      <trkpt lat="44.44179" lon="5.20365">
        <ele>500</ele>
        <time>2024-08-15T14:45:05Z</time>
      </trkpt>
      <trkpt lat="44.44213" lon="5.20306">
        <ele>505</ele>
        <time>2024-08-15T14:45:14Z</time>
      </trkpt>
      <trkpt lat="44.4425" lon="5.20222">
        <ele>504</ele>
        <time>2024-08-15T14:45:27Z</time>
      </trkpt>
      <trkpt lat="44.44261" lon="5.20204">
        <ele>509</ele>
        <time>2024-08-15T14:45:30Z</time>
      </trkpt>
      <trkpt lat="44.44275" lon="5.2019">
        <ele>511</ele>
        <time>2024-08-15T14:45:33Z</time>
      </trkpt>
      <trkpt lat="44.44319" lon="5.20164">
        <ele>507</ele>
        <time>2024-08-15T14:45:42Z</time>
      </trkpt>
      <trkpt lat="44.44334" lon="5.20161">
        <ele>507</ele>
        <time>2024-08-15T14:45:44Z</time>
      </trkpt>
      <trkpt lat="44.44346" lon="5.20162">
        <ele>507</ele>
        <time>2024-08-15T14:45:46Z</time>
      </trkpt>
      <trkpt lat="44.44437" lon="5.20183">
        <ele>519</ele>
        <time>2024-08-15T14:46:03Z</time>
      </trkpt>
      <trkpt lat="44.44447" lon="5.20181">
        <ele>519</ele>
        <time>2024-08-15T14:46:05Z</time>
      </trkpt>
      <trkpt lat="44.44472" lon="5.20165">
        <ele>515</ele>
        <time>2024-08-15T14:46:10Z</time>
      </trkpt>
      <trkpt lat="44.44482" lon="5.20167">
        <ele>515</ele>
        <time>2024-08-15T14:46:11Z</time>
      </trkpt>
      <trkpt lat="44.4449" lon="5.20176">
        <ele>519</ele>
        <time>2024-08-15T14:46:13Z</time>
      </trkpt>
      <trkpt lat="44.44496" lon="5.2019">
        <ele>524</ele>
        <time>2024-08-15T14:46:15Z</time>
      </trkpt>
      <trkpt lat="44.44502" lon="5.20198">
        <ele>527</ele>
        <time>2024-08-15T14:46:17Z</time>
      </trkpt>
      <trkpt lat="44.44514" lon="5.20204">
        <ele>529</ele>
        <time>2024-08-15T14:46:19Z</time>
      </trkpt>
      <trkpt lat="44.44526" lon="5.20203">
        <ele>528</ele>
        <time>2024-08-15T14:46:21Z</time>
      </trkpt>
      <trkpt lat="44.44543" lon="5.20196">
        <ele>527</ele>
        <time>2024-08-15T14:46:24Z</time>
      </trkpt>
      <trkpt lat="44.44555" lon="5.20194">
        <ele>527</ele>
        <time>2024-08-15T14:46:26Z</time>
      </trkpt>
      <trkpt lat="44.44565" lon="5.20196">
        <ele>528</ele>
        <time>2024-08-15T14:46:28Z</time>
      </trkpt>
      <trkpt lat="44.44585" lon="5.20207">
        <ele>530</ele>
        <time>2024-08-15T14:46:32Z</time>
      </trkpt>
      <trkpt lat="44.44606" lon="5.20205">
        <ele>532</ele>
        <time>2024-08-15T14:46:36Z</time>
      </trkpt>
      <trkpt lat="44.44623" lon="5.20216">
        <ele>535</ele>
        <time>2024-08-15T14:46:39Z</time>
      </trkpt>
      <trkpt lat="44.44646" lon="5.20218">
        <ele>537</ele>
        <time>2024-08-15T14:46:43Z</time>
      </trkpt>
      <trkpt lat="44.44661" lon="5.20212">
        <ele>538</ele>
        <time>2024-08-15T14:46:46Z</time>
      </trkpt>
      <trkpt lat="44.44674" lon="5.20198">
        <ele>537</ele>
        <time>2024-08-15T14:46:49Z</time>
      </trkpt>
      <trkpt lat="44.44681" lon="5.20181">
        <ele>534</ele>
        <time>2024-08-15T14:46:51Z</time>
      </trkpt>
      <trkpt lat="44.44686" lon="5.20163">
        <ele>532</ele>
        <time>2024-08-15T14:46:54Z</time>
      </trkpt>
      <trkpt lat="44.44694" lon="5.20157">
        <ele>531</ele>
        <time>2024-08-15T14:46:55Z</time>
      </trkpt>
      <trkpt lat="44.44703" lon="5.20163">
        <ele>529</ele>
        <time>2024-08-15T14:46:57Z</time>
      </trkpt>
      <trkpt lat="44.44713" lon="5.20166">
        <ele>527</ele>
        <time>2024-08-15T14:46:59Z</time>
      </trkpt>
      <trkpt lat="44.44733" lon="5.20155">
        <ele>524</ele>
        <time>2024-08-15T14:47:03Z</time>
      </trkpt>
      <trkpt lat="44.44741" lon="5.20154">
        <ele>523</ele>
        <time>2024-08-15T14:47:04Z</time>
      </trkpt>
      <trkpt lat="44.44752" lon="5.20162">
        <ele>521</ele>
        <time>2024-08-15T14:47:07Z</time>
      </trkpt>
      <trkpt lat="44.44765" lon="5.20166">
        <ele>522</ele>
        <time>2024-08-15T14:47:09Z</time>
      </trkpt>
      <trkpt lat="44.44783" lon="5.20165">
        <ele>524</ele>
        <time>2024-08-15T14:47:12Z</time>
      </trkpt>
      <trkpt lat="44.44834" lon="5.2017">
        <ele>531</ele>
        <time>2024-08-15T14:47:21Z</time>
      </trkpt>
      <trkpt lat="44.44915" lon="5.20156">
        <ele>523</ele>
        <time>2024-08-15T14:47:36Z</time>
      </trkpt>
      <trkpt lat="44.44924" lon="5.20149">
        <ele>523</ele>
        <time>2024-08-15T14:47:38Z</time>
      </trkpt>
      <trkpt lat="44.44926" lon="5.20137">
        <ele>522</ele>
        <time>2024-08-15T14:47:39Z</time>
      </trkpt>
      <trkpt lat="44.44926" lon="5.20122">
        <ele>522</ele>
        <time>2024-08-15T14:47:41Z</time>
      </trkpt>
      <trkpt lat="44.44926" lon="5.20097">
        <ele>521</ele>
        <time>2024-08-15T14:47:44Z</time>
      </trkpt>
      <trkpt lat="44.44931" lon="5.2008">
        <ele>521</ele>
        <time>2024-08-15T14:47:47Z</time>
      </trkpt>
      <trkpt lat="44.44939" lon="5.20068">
        <ele>524</ele>
        <time>2024-08-15T14:47:49Z</time>
      </trkpt>
      <trkpt lat="44.44962" lon="5.20059">
        <ele>526</ele>
        <time>2024-08-15T14:47:53Z</time>
      </trkpt>
      <trkpt lat="44.44995" lon="5.20055">
        <ele>528</ele>
        <time>2024-08-15T14:47:59Z</time>
      </trkpt>
      <trkpt lat="44.45006" lon="5.20049">
        <ele>529</ele>
        <time>2024-08-15T14:48:01Z</time>
      </trkpt>
      <trkpt lat="44.45009" lon="5.20038">
        <ele>530</ele>
        <time>2024-08-15T14:48:02Z</time>
      </trkpt>
      <trkpt lat="44.45007" lon="5.20028">
        <ele>531</ele>
        <time>2024-08-15T14:48:04Z</time>
      </trkpt>
      <trkpt lat="44.44987" lon="5.20009">
        <ele>533</ele>
        <time>2024-08-15T14:48:08Z</time>
      </trkpt>
      <trkpt lat="44.44955" lon="5.19997">
        <ele>535</ele>
        <time>2024-08-15T14:48:14Z</time>
      </trkpt>
      <trkpt lat="44.44926" lon="5.20001">
        <ele>534</ele>
        <time>2024-08-15T14:48:19Z</time>
      </trkpt>
      <trkpt lat="44.44895" lon="5.2001">
        <ele>533</ele>
        <time>2024-08-15T14:48:25Z</time>
      </trkpt>
      <trkpt lat="44.44885" lon="5.20006">
        <ele>533</ele>
        <time>2024-08-15T14:48:27Z</time>
      </trkpt>
      <trkpt lat="44.4487" lon="5.19989">
        <ele>537</ele>
        <time>2024-08-15T14:48:30Z</time>
      </trkpt>
      <trkpt lat="44.44858" lon="5.19968">
        <ele>541</ele>
        <time>2024-08-15T14:48:33Z</time>
      </trkpt>
      <trkpt lat="44.44831" lon="5.19954">
        <ele>545</ele>
        <time>2024-08-15T14:48:38Z</time>
      </trkpt>
      <trkpt lat="44.44797" lon="5.19949">
        <ele>549</ele>
        <time>2024-08-15T14:48:45Z</time>
      </trkpt>
      <trkpt lat="44.44776" lon="5.19963">
        <ele>548</ele>
        <time>2024-08-15T14:48:49Z</time>
      </trkpt>
      <trkpt lat="44.44763" lon="5.19981">
        <ele>545</ele>
        <time>2024-08-15T14:48:52Z</time>
      </trkpt>
      <trkpt lat="44.44756" lon="5.1998">
        <ele>545</ele>
        <time>2024-08-15T14:48:53Z</time>
      </trkpt>
      <trkpt lat="44.44752" lon="5.19976">
        <ele>547</ele>
        <time>2024-08-15T14:48:54Z</time>
      </trkpt>
      <trkpt lat="44.44753" lon="5.19968">
        <ele>548</ele>
        <time>2024-08-15T14:48:55Z</time>
      </trkpt>
      <trkpt lat="44.44797" lon="5.19917">
        <ele>556</ele>
        <time>2024-08-15T14:49:05Z</time>
      </trkpt>
      <trkpt lat="44.44829" lon="5.19903">
        <ele>558</ele>
        <time>2024-08-15T14:49:11Z</time>
      </trkpt>
      <trkpt lat="44.44854" lon="5.19903">
        <ele>556</ele>
        <time>2024-08-15T14:49:16Z</time>
      </trkpt>
      <trkpt lat="44.44875" lon="5.19893">
        <ele>559</ele>
        <time>2024-08-15T14:49:20Z</time>
      </trkpt>
      <trkpt lat="44.44893" lon="5.19891">
        <ele>559</ele>
        <time>2024-08-15T14:49:23Z</time>
      </trkpt>
      <trkpt lat="44.44914" lon="5.19896">
        <ele>556</ele>
        <time>2024-08-15T14:49:27Z</time>
      </trkpt>
      <trkpt lat="44.44931" lon="5.19895">
        <ele>557</ele>
        <time>2024-08-15T14:49:30Z</time>
      </trkpt>
      <trkpt lat="44.44946" lon="5.19888">
        <ele>560</ele>
        <time>2024-08-15T14:49:32Z</time>
      </trkpt>
      <trkpt lat="44.44956" lon="5.19888">
        <ele>561</ele>
        <time>2024-08-15T14:49:34Z</time>
      </trkpt>
      <trkpt lat="44.44964" lon="5.19891">
        <ele>560</ele>
        <time>2024-08-15T14:49:36Z</time>
      </trkpt>
      <trkpt lat="44.44993" lon="5.19912">
        <ele>557</ele>
        <time>2024-08-15T14:49:42Z</time>
      </trkpt>
      <trkpt lat="44.4501" lon="5.19913">
        <ele>557</ele>
        <time>2024-08-15T14:49:45Z</time>
      </trkpt>
      <trkpt lat="44.45016" lon="5.19908">
        <ele>558</ele>
        <time>2024-08-15T14:49:46Z</time>
      </trkpt>
      <trkpt lat="44.45021" lon="5.19896">
        <ele>561</ele>
        <time>2024-08-15T14:49:48Z</time>
      </trkpt>
      <trkpt lat="44.45022" lon="5.19853">
        <ele>573</ele>
        <time>2024-08-15T14:49:53Z</time>
      </trkpt>
      <trkpt lat="44.45025" lon="5.19844">
        <ele>576</ele>
        <time>2024-08-15T14:49:54Z</time>
      </trkpt>
      <trkpt lat="44.45031" lon="5.19841">
        <ele>577</ele>
        <time>2024-08-15T14:49:55Z</time>
      </trkpt>
      <trkpt lat="44.45039" lon="5.19842">
        <ele>577</ele>
        <time>2024-08-15T14:49:57Z</time>
      </trkpt>
      <trkpt lat="44.45066" lon="5.19878">
        <ele>567</ele>
        <time>2024-08-15T14:50:04Z</time>
      </trkpt>
      <trkpt lat="44.45075" lon="5.19885">
        <ele>565</ele>
        <time>2024-08-15T14:50:05Z</time>
      </trkpt>
      <trkpt lat="44.45088" lon="5.19884">
        <ele>565</ele>
        <time>2024-08-15T14:50:08Z</time>
      </trkpt>
      <trkpt lat="44.45121" lon="5.19867">
        <ele>572</ele>
        <time>2024-08-15T14:50:14Z</time>
      </trkpt>
      <trkpt lat="44.45178" lon="5.1982">
        <ele>590</ele>
        <time>2024-08-15T14:50:26Z</time>
      </trkpt>
      <trkpt lat="44.45242" lon="5.19781">
        <ele>591</ele>
        <time>2024-08-15T14:50:38Z</time>
      </trkpt>
      <trkpt lat="44.45253" lon="5.19761">
        <ele>596</ele>
        <time>2024-08-15T14:50:41Z</time>
      </trkpt>
      <trkpt lat="44.45269" lon="5.19753">
        <ele>596</ele>
        <time>2024-08-15T14:50:44Z</time>
      </trkpt>
      <trkpt lat="44.45289" lon="5.19745">
        <ele>595</ele>
        <time>2024-08-15T14:50:48Z</time>
      </trkpt>
      <trkpt lat="44.45372" lon="5.19681">
        <ele>599</ele>
        <time>2024-08-15T14:51:05Z</time>
      </trkpt>
      <trkpt lat="44.45385" lon="5.19659">
        <ele>602</ele>
        <time>2024-08-15T14:51:09Z</time>
      </trkpt>
      <trkpt lat="44.45393" lon="5.19632">
        <ele>607</ele>
        <time>2024-08-15T14:51:12Z</time>
      </trkpt>
      <trkpt lat="44.45425" lon="5.19564">
        <ele>614</ele>
        <time>2024-08-15T14:51:23Z</time>
      </trkpt>
      <trkpt lat="44.45453" lon="5.19474">
        <ele>625</ele>
        <time>2024-08-15T14:51:35Z</time>
      </trkpt>
      <trkpt lat="44.45462" lon="5.19457">
        <ele>625</ele>
        <time>2024-08-15T14:51:38Z</time>
      </trkpt>
      <trkpt lat="44.45494" lon="5.19424">
        <ele>620</ele>
        <time>2024-08-15T14:51:45Z</time>
      </trkpt>
      <trkpt lat="44.45506" lon="5.19404">
        <ele>621</ele>
        <time>2024-08-15T14:51:48Z</time>
      </trkpt>
      <trkpt lat="44.45515" lon="5.19373">
        <ele>624</ele>
        <time>2024-08-15T14:51:52Z</time>
      </trkpt>
      <trkpt lat="44.45552" lon="5.19298">
        <ele>629</ele>
        <time>2024-08-15T14:52:04Z</time>
      </trkpt>
      <trkpt lat="44.45554" lon="5.19284">
        <ele>631</ele>
        <time>2024-08-15T14:52:06Z</time>
      </trkpt>
      <trkpt lat="44.45551" lon="5.19268">
        <ele>635</ele>
        <time>2024-08-15T14:52:08Z</time>
      </trkpt>
      <trkpt lat="44.4555" lon="5.19234">
        <ele>642</ele>
        <time>2024-08-15T14:52:12Z</time>
      </trkpt>
      <trkpt lat="44.45563" lon="5.19174">
        <ele>649</ele>
        <time>2024-08-15T14:52:20Z</time>
      </trkpt>
      <trkpt lat="44.4558" lon="5.19145">
        <ele>648</ele>
        <time>2024-08-15T14:52:25Z</time>
      </trkpt>
      <trkpt lat="44.45583" lon="5.19129">
        <ele>650</ele>
        <time>2024-08-15T14:52:27Z</time>
      </trkpt>
      <trkpt lat="44.45582" lon="5.19099">
        <ele>657</ele>
        <time>2024-08-15T14:52:31Z</time>
      </trkpt>
      <trkpt lat="44.45585" lon="5.19076">
        <ele>662</ele>
        <time>2024-08-15T14:52:34Z</time>
      </trkpt>
      <trkpt lat="44.45595" lon="5.19059">
        <ele>663</ele>
        <time>2024-08-15T14:52:37Z</time>
      </trkpt>
      <trkpt lat="44.45617" lon="5.19048">
        <ele>660</ele>
        <time>2024-08-15T14:52:41Z</time>
      </trkpt>
      <trkpt lat="44.45649" lon="5.19015">
        <ele>660</ele>
        <time>2024-08-15T14:52:48Z</time>
      </trkpt>
      <trkpt lat="44.45678" lon="5.18991">
        <ele>660</ele>
        <time>2024-08-15T14:52:54Z</time>
      </trkpt>
      <trkpt lat="44.45695" lon="5.18984">
        <ele>658</ele>
        <time>2024-08-15T14:52:57Z</time>
      </trkpt>
      <trkpt lat="44.45719" lon="5.18971">
        <ele>657</ele>
        <time>2024-08-15T14:53:02Z</time>
      </trkpt>
      <trkpt lat="44.45727" lon="5.18962">
        <ele>657</ele>
        <time>2024-08-15T14:53:03Z</time>
      </trkpt>
      <trkpt lat="44.4573" lon="5.18944">
        <ele>661</ele>
        <time>2024-08-15T14:53:06Z</time>
      </trkpt>
      <trkpt lat="44.45731" lon="5.18916">
        <ele>667</ele>
        <time>2024-08-15T14:53:09Z</time>
      </trkpt>
      <trkpt lat="44.45738" lon="5.1888">
        <ele>671</ele>
        <time>2024-08-15T14:53:14Z</time>
      </trkpt>
      <trkpt lat="44.45757" lon="5.18856">
        <ele>672</ele>
        <time>2024-08-15T14:53:19Z</time>
      </trkpt>
      <trkpt lat="44.45781" lon="5.1884">
        <ele>672</ele>
        <time>2024-08-15T14:53:23Z</time>
      </trkpt>
      <trkpt lat="44.45809" lon="5.18824">
        <ele>671</ele>
        <time>2024-08-15T14:53:29Z</time>
      </trkpt>
      <trkpt lat="44.45817" lon="5.18814">
        <ele>672</ele>
        <time>2024-08-15T14:53:31Z</time>
      </trkpt>
      <trkpt lat="44.45828" lon="5.18793">
        <ele>674</ele>
        <time>2024-08-15T14:53:34Z</time>
      </trkpt>
      <trkpt lat="44.45855" lon="5.18711">
        <ele>682</ele>
        <time>2024-08-15T14:53:45Z</time>
      </trkpt>
      <trkpt lat="44.45862" lon="5.18703">
        <ele>682</ele>
        <time>2024-08-15T14:53:47Z</time>
      </trkpt>
      <trkpt lat="44.45883" lon="5.18685">
        <ele>681</ele>
        <time>2024-08-15T14:53:51Z</time>
      </trkpt>
      <trkpt lat="44.45889" lon="5.18673">
        <ele>682</ele>
        <time>2024-08-15T14:53:53Z</time>
      </trkpt>
      <trkpt lat="44.45895" lon="5.18652">
        <ele>683</ele>
        <time>2024-08-15T14:53:56Z</time>
      </trkpt>
      <trkpt lat="44.45899" lon="5.18628">
        <ele>684</ele>
        <time>2024-08-15T14:53:59Z</time>
      </trkpt>
      <trkpt lat="44.459" lon="5.186">
        <ele>686</ele>
        <time>2024-08-15T14:54:03Z</time>
      </trkpt>
      <trkpt lat="44.45896" lon="5.18578">
        <ele>689</ele>
        <time>2024-08-15T14:54:06Z</time>
      </trkpt>
      <trkpt lat="44.45887" lon="5.18549">
        <ele>692</ele>
        <time>2024-08-15T14:54:10Z</time>
      </trkpt>
      <trkpt lat="44.45875" lon="5.1853">
        <ele>696</ele>
        <time>2024-08-15T14:54:13Z</time>
      </trkpt>
      <trkpt lat="44.45874" lon="5.18514">
        <ele>697</ele>
        <time>2024-08-15T14:54:15Z</time>
      </trkpt>
      <trkpt lat="44.45881" lon="5.18323">
        <ele>708</ele>
        <time>2024-08-15T14:54:39Z</time>
      </trkpt>
      <trkpt lat="44.45883" lon="5.18303">
        <ele>710</ele>
        <time>2024-08-15T14:54:42Z</time>
      </trkpt>
      <trkpt lat="44.45888" lon="5.18278">
        <ele>712</ele>
        <time>2024-08-15T14:54:45Z</time>
      </trkpt>
      <trkpt lat="44.45897" lon="5.18256">
        <ele>712</ele>
        <time>2024-08-15T14:54:48Z</time>
      </trkpt>
      <trkpt lat="44.45911" lon="5.18185">
        <ele>715</ele>
        <time>2024-08-15T14:54:58Z</time>
      </trkpt>
      <trkpt lat="44.45925" lon="5.18149">
        <ele>714</ele>
        <time>2024-08-15T14:55:03Z</time>
      </trkpt>
      <trkpt lat="44.45925" lon="5.1814">
        <ele>714</ele>
        <time>2024-08-15T14:55:04Z</time>
      </trkpt>
      <trkpt lat="44.45923" lon="5.18129">
        <ele>714</ele>
        <time>2024-08-15T14:55:05Z</time>
      </trkpt>
      <trkpt lat="44.45916" lon="5.1812">
        <ele>715</ele>
        <time>2024-08-15T14:55:07Z</time>
      </trkpt>
      <trkpt lat="44.45903" lon="5.18113">
        <ele>717</ele>
        <time>2024-08-15T14:55:10Z</time>
      </trkpt>
      <trkpt lat="44.45893" lon="5.18098">
        <ele>719</ele>
        <time>2024-08-15T14:55:12Z</time>
      </trkpt>
      <trkpt lat="44.45884" lon="5.18046">
        <ele>722</ele>
        <time>2024-08-15T14:55:19Z</time>
      </trkpt>
      <trkpt lat="44.45885" lon="5.18036">
        <ele>722</ele>
        <time>2024-08-15T14:55:20Z</time>
      </trkpt>
      <trkpt lat="44.45901" lon="5.17996">
        <ele>720</ele>
        <time>2024-08-15T14:55:26Z</time>
      </trkpt>
      <trkpt lat="44.45904" lon="5.17962">
        <ele>721</ele>
        <time>2024-08-15T14:55:30Z</time>
      </trkpt>
      <trkpt lat="44.45902" lon="5.17923">
        <ele>723</ele>
        <time>2024-08-15T14:55:35Z</time>
      </trkpt>
      <trkpt lat="44.45894" lon="5.1786">
        <ele>734</ele>
        <time>2024-08-15T14:55:44Z</time>
      </trkpt>
      <trkpt lat="44.45904" lon="5.17838">
        <ele>735</ele>
        <time>2024-08-15T14:55:47Z</time>
      </trkpt>
      <trkpt lat="44.45938" lon="5.1781">
        <ele>734</ele>
        <time>2024-08-15T14:55:54Z</time>
      </trkpt>
      <trkpt lat="44.46095" lon="5.17602">
        <ele>739</ele>
        <time>2024-08-15T14:56:32Z</time>
      </trkpt>
      <trkpt lat="44.46127" lon="5.1759">
        <ele>738</ele>
        <time>2024-08-15T14:56:38Z</time>
      </trkpt>
      <trkpt lat="44.46157" lon="5.17591">
        <ele>736</ele>
        <time>2024-08-15T14:56:44Z</time>
      </trkpt>
      <trkpt lat="44.46175" lon="5.17596">
        <ele>735</ele>
        <time>2024-08-15T14:56:47Z</time>
      </trkpt>
      <trkpt lat="44.46186" lon="5.17569">
        <ele>735</ele>
        <time>2024-08-15T14:56:51Z</time>
      </trkpt>
      <trkpt lat="44.46217" lon="5.1752">
        <ele>735</ele>
        <time>2024-08-15T14:56:59Z</time>
      </trkpt>
      <trkpt lat="44.46238" lon="5.1749">
        <ele>733</ele>
        <time>2024-08-15T14:57:04Z</time>
      </trkpt>
      <trkpt lat="44.46243" lon="5.17453">
        <ele>735</ele>
        <time>2024-08-15T14:57:09Z</time>
      </trkpt>
      <trkpt lat="44.46252" lon="5.17416">
        <ele>736</ele>
        <time>2024-08-15T14:57:14Z</time>
      </trkpt>
      <trkpt lat="44.46272" lon="5.17372">
        <ele>730</ele>
        <time>2024-08-15T14:57:21Z</time>
      </trkpt>
      <trkpt lat="44.46275" lon="5.17359">
        <ele>729</ele>
        <time>2024-08-15T14:57:23Z</time>
      </trkpt>
      <trkpt lat="44.4627" lon="5.17346">
        <ele>730</ele>
        <time>2024-08-15T14:57:24Z</time>
      </trkpt>
      <trkpt lat="44.46254" lon="5.17311">
        <ele>729</ele>
        <time>2024-08-15T14:57:30Z</time>
      </trkpt>
      <trkpt lat="44.4624" lon="5.17268">
        <ele>728</ele>
        <time>2024-08-15T14:57:36Z</time>
      </trkpt>
      <trkpt lat="44.46193" lon="5.17172">
        <ele>735</ele>
        <time>2024-08-15T14:57:50Z</time>
      </trkpt>
      <trkpt lat="44.46189" lon="5.17158">
        <ele>736</ele>
        <time>2024-08-15T14:57:52Z</time>
      </trkpt>
      <trkpt lat="44.46191" lon="5.17152">
        <ele>735</ele>
        <time>2024-08-15T14:57:53Z</time>
      </trkpt>
      <trkpt lat="44.4621" lon="5.17128">
        <ele>726</ele>
        <time>2024-08-15T14:57:58Z</time>
      </trkpt>
      <trkpt lat="44.46233" lon="5.17094">
        <ele>715</ele>
        <time>2024-08-15T14:58:04Z</time>
      </trkpt>
      <trkpt lat="44.46237" lon="5.17079">
        <ele>712</ele>
        <time>2024-08-15T14:58:06Z</time>
      </trkpt>
      <trkpt lat="44.46234" lon="5.17068">
        <ele>711</ele>
        <time>2024-08-15T14:58:07Z</time>
      </trkpt>
      <trkpt lat="44.4617" lon="5.16982">
        <ele>713</ele>
        <time>2024-08-15T14:58:23Z</time>
      </trkpt>
      <trkpt lat="44.46083" lon="5.1693">
        <ele>712</ele>
        <time>2024-08-15T14:58:40Z</time>
      </trkpt>
      <trkpt lat="44.46041" lon="5.16912">
        <ele>711</ele>
        <time>2024-08-15T14:58:48Z</time>
      </trkpt>
      <trkpt lat="44.46002" lon="5.16866">
        <ele>705</ele>
        <time>2024-08-15T14:58:57Z</time>
      </trkpt>
      <trkpt lat="44.45986" lon="5.16837">
        <ele>700</ele>
        <time>2024-08-15T14:59:01Z</time>
      </trkpt>
      <trkpt lat="44.45948" lon="5.1683">
        <ele>703</ele>
        <time>2024-08-15T14:59:08Z</time>
      </trkpt>
      <trkpt lat="44.45892" lon="5.16774">
        <ele>701</ele>
        <time>2024-08-15T14:59:20Z</time>
      </trkpt>
      <trkpt lat="44.45868" lon="5.1677">
        <ele>702</ele>
        <time>2024-08-15T14:59:25Z</time>
      </trkpt>
      <trkpt lat="44.45856" lon="5.16747">
        <ele>701</ele>
        <time>2024-08-15T14:59:28Z</time>
      </trkpt>
      <trkpt lat="44.45847" lon="5.16599">
        <ele>692</ele>
        <time>2024-08-15T14:59:47Z</time>
      </trkpt>
      <trkpt lat="44.45855" lon="5.16571">
        <ele>686</ele>
        <time>2024-08-15T14:59:51Z</time>
      </trkpt>
      <trkpt lat="44.4586" lon="5.16531">
        <ele>677</ele>
        <time>2024-08-15T14:59:56Z</time>
      </trkpt>
      <trkpt lat="44.45834" lon="5.1648">
        <ele>674</ele>
        <time>2024-08-15T15:00:04Z</time>
      </trkpt>
      <trkpt lat="44.45814" lon="5.16475">
        <ele>673</ele>
        <time>2024-08-15T15:00:08Z</time>
      </trkpt>
      <trkpt lat="44.45765" lon="5.16517">
        <ele>686</ele>
        <time>2024-08-15T15:00:18Z</time>
      </trkpt>
      <trkpt lat="44.45729" lon="5.16498">
        <ele>686</ele>
        <time>2024-08-15T15:00:25Z</time>
      </trkpt>
      <trkpt lat="44.45696" lon="5.16493">
        <ele>693</ele>
        <time>2024-08-15T15:00:31Z</time>
      </trkpt>
      <trkpt lat="44.45691" lon="5.16479">
        <ele>695</ele>
        <time>2024-08-15T15:00:33Z</time>
      </trkpt>
      <trkpt lat="44.45726" lon="5.16422">
        <ele>681</ele>
        <time>2024-08-15T15:00:42Z</time>
      </trkpt>
      <trkpt lat="44.4575" lon="5.16401">
        <ele>671</ele>
        <time>2024-08-15T15:00:47Z</time>
      </trkpt>
      <trkpt lat="44.45769" lon="5.1634">
        <ele>669</ele>
        <time>2024-08-15T15:00:56Z</time>
      </trkpt>
      <trkpt lat="44.45751" lon="5.16282">
        <ele>671</ele>
        <time>2024-08-15T15:01:04Z</time>
      </trkpt>
      <trkpt lat="44.45739" lon="5.16163">
        <ele>663</ele>
        <time>2024-08-15T15:01:19Z</time>
      </trkpt>
      <trkpt lat="44.45728" lon="5.16101">
        <ele>660</ele>
        <time>2024-08-15T15:01:27Z</time>
      </trkpt>
      <trkpt lat="44.4571" lon="5.16049">
        <ele>658</ele>
        <time>2024-08-15T15:01:35Z</time>
      </trkpt>
      <trkpt lat="44.45706" lon="5.16001">
        <ele>652</ele>
        <time>2024-08-15T15:01:41Z</time>
      </trkpt>
      <trkpt lat="44.45699" lon="5.15955">
        <ele>649</ele>
        <time>2024-08-15T15:01:47Z</time>
      </trkpt>
      <trkpt lat="44.45653" lon="5.15854">
        <ele>648</ele>
        <time>2024-08-15T15:02:02Z</time>
      </trkpt>
      <trkpt lat="44.45623" lon="5.15811">
        <ele>649</ele>
        <time>2024-08-15T15:02:10Z</time>
      </trkpt>
      <trkpt lat="44.45612" lon="5.1578">
        <ele>649</ele>
        <time>2024-08-15T15:02:14Z</time>
      </trkpt>
      <trkpt lat="44.45622" lon="5.15741">
        <ele>643</ele>
        <time>2024-08-15T15:02:19Z</time>
      </trkpt>
      <trkpt lat="44.45617" lon="5.15678">
        <ele>637</ele>
        <time>2024-08-15T15:02:27Z</time>
      </trkpt>
      <trkpt lat="44.45606" lon="5.15647">
        <ele>634</ele>
        <time>2024-08-15T15:02:32Z</time>
      </trkpt>
      <trkpt lat="44.45591" lon="5.15628">
        <ele>633</ele>
        <time>2024-08-15T15:02:35Z</time>
      </trkpt>
      <trkpt lat="44.45554" lon="5.15621">
        <ele>634</ele>
        <time>2024-08-15T15:02:42Z</time>
      </trkpt>
      <trkpt lat="44.4551" lon="5.15589">
        <ele>629</ele>
        <time>2024-08-15T15:02:51Z</time>
      </trkpt>
      <trkpt lat="44.45492" lon="5.15581">
        <ele>628</ele>
        <time>2024-08-15T15:02:54Z</time>
      </trkpt>
      <trkpt lat="44.45471" lon="5.1558">
        <ele>630</ele>
        <time>2024-08-15T15:02:58Z</time>
      </trkpt>
      <trkpt lat="44.45458" lon="5.15575">
        <ele>630</ele>
        <time>2024-08-15T15:03:00Z</time>
      </trkpt>
      <trkpt lat="44.45446" lon="5.15567">
        <ele>629</ele>
        <time>2024-08-15T15:03:03Z</time>
      </trkpt>
      <trkpt lat="44.45441" lon="5.1556">
        <ele>629</ele>
        <time>2024-08-15T15:03:04Z</time>
      </trkpt>
      <trkpt lat="44.45436" lon="5.1555">
        <ele>627</ele>
        <time>2024-08-15T15:03:05Z</time>
      </trkpt>
      <trkpt lat="44.45428" lon="5.15509">
        <ele>622</ele>
        <time>2024-08-15T15:03:11Z</time>
      </trkpt>
      <trkpt lat="44.45423" lon="5.15497">
        <ele>620</ele>
        <time>2024-08-15T15:03:13Z</time>
      </trkpt>
      <trkpt lat="44.45406" lon="5.15487">
        <ele>620</ele>
        <time>2024-08-15T15:03:16Z</time>
      </trkpt>
      <trkpt lat="44.45351" lon="5.15473">
        <ele>621</ele>
        <time>2024-08-15T15:03:26Z</time>
      </trkpt>
      <trkpt lat="44.45336" lon="5.15466">
        <ele>621</ele>
        <time>2024-08-15T15:03:29Z</time>
      </trkpt>
      <trkpt lat="44.45322" lon="5.1545">
        <ele>620</ele>
        <time>2024-08-15T15:03:32Z</time>
      </trkpt>
      <trkpt lat="44.45311" lon="5.15429">
        <ele>619</ele>
        <time>2024-08-15T15:03:35Z</time>
      </trkpt>
      <trkpt lat="44.45298" lon="5.15411">
        <ele>618</ele>
        <time>2024-08-15T15:03:38Z</time>
      </trkpt>
      <trkpt lat="44.45287" lon="5.15399">
        <ele>617</ele>
        <time>2024-08-15T15:03:41Z</time>
      </trkpt>
      <trkpt lat="44.45264" lon="5.1538">
        <ele>617</ele>
        <time>2024-08-15T15:03:46Z</time>
      </trkpt>
      <trkpt lat="44.45254" lon="5.15366">
        <ele>617</ele>
        <time>2024-08-15T15:03:48Z</time>
      </trkpt>
      <trkpt lat="44.45249" lon="5.15336">
        <ele>614</ele>
        <time>2024-08-15T15:03:52Z</time>
      </trkpt>
      <trkpt lat="44.45249" lon="5.15291">
        <ele>615</ele>
        <time>2024-08-15T15:03:58Z</time>
      </trkpt>
      <trkpt lat="44.4525" lon="5.15278">
        <ele>615</ele>
        <time>2024-08-15T15:03:59Z</time>
      </trkpt>
      <trkpt lat="44.4525" lon="5.15261">
        <ele>615</ele>
        <time>2024-08-15T15:04:02Z</time>
      </trkpt>
      <trkpt lat="44.45264" lon="5.15248">
        <ele>615</ele>
        <time>2024-08-15T15:04:05Z</time>
      </trkpt>
      <trkpt lat="44.453" lon="5.15252">
        <ele>613</ele>
        <time>2024-08-15T15:04:11Z</time>
      </trkpt>
      <trkpt lat="44.45445" lon="5.15289">
        <ele>610</ele>
        <time>2024-08-15T15:04:37Z</time>
      </trkpt>
      <trkpt lat="44.45543" lon="5.15298">
        <ele>609</ele>
        <time>2024-08-15T15:04:55Z</time>
      </trkpt>
      <trkpt lat="44.45667" lon="5.15287">
        <ele>602</ele>
        <time>2024-08-15T15:05:17Z</time>
      </trkpt>
      <trkpt lat="44.45684" lon="5.15282">
        <ele>602</ele>
        <time>2024-08-15T15:05:20Z</time>
      </trkpt>
      <trkpt lat="44.45701" lon="5.1527">
        <ele>601</ele>
        <time>2024-08-15T15:05:23Z</time>
      </trkpt>
      <trkpt lat="44.45716" lon="5.15253">
        <ele>601</ele>
        <time>2024-08-15T15:05:27Z</time>
      </trkpt>
      <trkpt lat="44.45769" lon="5.15168">
        <ele>603</ele>
        <time>2024-08-15T15:05:41Z</time>
      </trkpt>
      <trkpt lat="44.4581" lon="5.15115">
        <ele>607</ele>
        <time>2024-08-15T15:05:51Z</time>
      </trkpt>
      <trkpt lat="44.45829" lon="5.15102">
        <ele>607</ele>
        <time>2024-08-15T15:05:55Z</time>
      </trkpt>
      <trkpt lat="44.45862" lon="5.15097">
        <ele>603</ele>
        <time>2024-08-15T15:06:01Z</time>
      </trkpt>
      <trkpt lat="44.45912" lon="5.15066">
        <ele>600</ele>
        <time>2024-08-15T15:06:10Z</time>
      </trkpt>
      <trkpt lat="44.45982" lon="5.15009">
        <ele>597</ele>
        <time>2024-08-15T15:06:25Z</time>
      </trkpt>
      <trkpt lat="44.46051" lon="5.14924">
        <ele>596</ele>
        <time>2024-08-15T15:06:41Z</time>
      </trkpt>
      <trkpt lat="44.46079" lon="5.14865">
        <ele>599</ele>
        <time>2024-08-15T15:06:50Z</time>
      </trkpt>
      <trkpt lat="44.46179" lon="5.14752">
        <ele>586</ele>
        <time>2024-08-15T15:07:13Z</time>
      </trkpt>
      <trkpt lat="44.4619" lon="5.1474">
        <ele>586</ele>
        <time>2024-08-15T15:07:15Z</time>
      </trkpt>
      <trkpt lat="44.4622" lon="5.14707">
        <ele>587</ele>
        <time>2024-08-15T15:07:22Z</time>
      </trkpt>
      <trkpt lat="44.46282" lon="5.14727">
        <ele>583</ele>
        <time>2024-08-15T15:07:34Z</time>
      </trkpt>
      <trkpt lat="44.46298" lon="5.14722">
        <ele>583</ele>
        <time>2024-08-15T15:07:36Z</time>
      </trkpt>
      <trkpt lat="44.46322" lon="5.14685">
        <ele>584</ele>
        <time>2024-08-15T15:07:43Z</time>
      </trkpt>
      <trkpt lat="44.46406" lon="5.14509">
        <ele>584</ele>
        <time>2024-08-15T15:08:10Z</time>
      </trkpt>
      <trkpt lat="44.46496" lon="5.14258">
        <ele>580</ele>
        <time>2024-08-15T15:08:45Z</time>
      </trkpt>
      <trkpt lat="44.46544" lon="5.14204">
        <ele>582</ele>
        <time>2024-08-15T15:08:56Z</time>
      </trkpt>
      <trkpt lat="44.46784" lon="5.14018">
        <ele>568</ele>
        <time>2024-08-15T15:09:45Z</time>
      </trkpt>
      <trkpt lat="44.46801" lon="5.13996">
        <ele>568</ele>
        <time>2024-08-15T15:09:49Z</time>
      </trkpt>
      <trkpt lat="44.46806" lon="5.13988">
        <ele>568</ele>
        <time>2024-08-15T15:09:51Z</time>
      </trkpt>
      <trkpt lat="44.46896" lon="5.13863">
        <ele>566</ele>
        <time>2024-08-15T15:10:13Z</time>
      </trkpt>
      <trkpt lat="44.46953" lon="5.13708">
        <ele>568</ele>
        <time>2024-08-15T15:10:35Z</time>
      </trkpt>
      <trkpt lat="44.47002" lon="5.13621">
        <ele>557</ele>
        <time>2024-08-15T15:10:49Z</time>
      </trkpt>
      <trkpt lat="44.47017" lon="5.13609">
        <ele>557</ele>
        <time>2024-08-15T15:10:52Z</time>
      </trkpt>
      <trkpt lat="44.47033" lon="5.1361">
        <ele>556</ele>
        <time>2024-08-15T15:10:55Z</time>
      </trkpt>
      <trkpt lat="44.47055" lon="5.13616">
        <ele>554</ele>
        <time>2024-08-15T15:10:59Z</time>
      </trkpt>
      <trkpt lat="44.47078" lon="5.13622">
        <ele>552</ele>
        <time>2024-08-15T15:11:03Z</time>
      </trkpt>
      <trkpt lat="44.47111" lon="5.13617">
        <ele>556</ele>
        <time>2024-08-15T15:11:09Z</time>
      </trkpt>
      <trkpt lat="44.47137" lon="5.13597">
        <ele>558</ele>
        <time>2024-08-15T15:11:15Z</time>
      </trkpt>
      <trkpt lat="44.47293" lon="5.13393">
        <ele>554</ele>
        <time>2024-08-15T15:11:53Z</time>
      </trkpt>
      <trkpt lat="44.47414" lon="5.13306">
        <ele>554</ele>
        <time>2024-08-15T15:12:17Z</time>
      </trkpt>
      <trkpt lat="44.47485" lon="5.13236">
        <ele>551</ele>
        <time>2024-08-15T15:12:32Z</time>
      </trkpt>
      <trkpt lat="44.47538" lon="5.13148">
        <ele>547</ele>
        <time>2024-08-15T15:12:47Z</time>
      </trkpt>
      <trkpt lat="44.47613" lon="5.13048">
        <ele>544</ele>
        <time>2024-08-15T15:13:05Z</time>
      </trkpt>
      <trkpt lat="44.47654" lon="5.13025">
        <ele>545</ele>
        <time>2024-08-15T15:13:13Z</time>
      </trkpt>
      <trkpt lat="44.47873" lon="5.12885">
        <ele>539</ele>
        <time>2024-08-15T15:13:56Z</time>
      </trkpt>
      <trkpt lat="44.47924" lon="5.12877">
        <ele>540</ele>
        <time>2024-08-15T15:14:05Z</time>
      </trkpt>
      <trkpt lat="44.48172" lon="5.12848">
        <ele>534</ele>
        <time>2024-08-15T15:14:49Z</time>
      </trkpt>
      <trkpt lat="44.48291" lon="5.12809">
        <ele>523</ele>
        <time>2024-08-15T15:15:11Z</time>
      </trkpt>
      <trkpt lat="44.48312" lon="5.12802">
        <ele>523</ele>
        <time>2024-08-15T15:15:15Z</time>
      </trkpt>
      <trkpt lat="44.4837" lon="5.12781">
        <ele>529</ele>
        <time>2024-08-15T15:15:26Z</time>
      </trkpt>
      <trkpt lat="44.48389" lon="5.1277">
        <ele>530</ele>
        <time>2024-08-15T15:15:29Z</time>
      </trkpt>
      <trkpt lat="44.48406" lon="5.12756">
        <ele>528</ele>
        <time>2024-08-15T15:15:33Z</time>
      </trkpt>
      <trkpt lat="44.48416" lon="5.12745">
        <ele>526</ele>
        <time>2024-08-15T15:15:35Z</time>
      </trkpt>
      <trkpt lat="44.48425" lon="5.12732">
        <ele>528</ele>
        <time>2024-08-15T15:15:37Z</time>
      </trkpt>
      <trkpt lat="44.48437" lon="5.12707">
        <ele>528</ele>
        <time>2024-08-15T15:15:41Z</time>
      </trkpt>
      <trkpt lat="44.48478" lon="5.126">
        <ele>519</ele>
        <time>2024-08-15T15:15:57Z</time>
      </trkpt>
      <trkpt lat="44.48488" lon="5.12579">
        <ele>518</ele>
        <time>2024-08-15T15:16:00Z</time>
      </trkpt>
      <trkpt lat="44.487" lon="5.12259">
        <ele>507</ele>
        <time>2024-08-15T15:16:55Z</time>
      </trkpt>
      <trkpt lat="44.48723" lon="5.12204">
        <ele>506</ele>
        <time>2024-08-15T15:17:03Z</time>
      </trkpt>
      <trkpt lat="44.48726" lon="5.12196">
        <ele>506</ele>
        <time>2024-08-15T15:17:04Z</time>
      </trkpt>
      <trkpt lat="44.48795" lon="5.12024">
        <ele>505</ele>
        <time>2024-08-15T15:17:29Z</time>
      </trkpt>
      <trkpt lat="44.48808" lon="5.12">
        <ele>505</ele>
        <time>2024-08-15T15:17:33Z</time>
      </trkpt>
      <trkpt lat="44.48818" lon="5.1199">
        <ele>505</ele>
        <time>2024-08-15T15:17:35Z</time>
      </trkpt>
      <trkpt lat="44.48837" lon="5.11977">
        <ele>506</ele>
        <time>2024-08-15T15:17:39Z</time>
      </trkpt>
      <trkpt lat="44.48883" lon="5.11956">
        <ele>509</ele>
        <time>2024-08-15T15:17:48Z</time>
      </trkpt>
      <trkpt lat="44.49134" lon="5.11816">
        <ele>508</ele>
        <time>2024-08-15T15:18:36Z</time>
      </trkpt>
      <trkpt lat="44.49211" lon="5.11777">
        <ele>503</ele>
        <time>2024-08-15T15:18:50Z</time>
      </trkpt>
      <trkpt lat="44.49251" lon="5.11763">
        <ele>502</ele>
        <time>2024-08-15T15:18:58Z</time>
      </trkpt>
      <trkpt lat="44.49413" lon="5.11694">
        <ele>494</ele>
        <time>2024-08-15T15:19:28Z</time>
      </trkpt>
      <trkpt lat="44.49434" lon="5.11679">
        <ele>493</ele>
        <time>2024-08-15T15:19:32Z</time>
      </trkpt>
      <trkpt lat="44.4945" lon="5.11664">
        <ele>492</ele>
        <time>2024-08-15T15:19:36Z</time>
      </trkpt>
      <trkpt lat="44.49531" lon="5.11562">
        <ele>487</ele>
        <time>2024-08-15T15:19:55Z</time>
      </trkpt>
      <trkpt lat="44.49551" lon="5.11544">
        <ele>486</ele>
        <time>2024-08-15T15:19:59Z</time>
      </trkpt>
      <trkpt lat="44.49563" lon="5.11537">
        <ele>486</ele>
        <time>2024-08-15T15:20:01Z</time>
      </trkpt>
      <trkpt lat="44.4964" lon="5.11507">
        <ele>483</ele>
        <time>2024-08-15T15:20:16Z</time>
      </trkpt>
      <trkpt lat="44.49659" lon="5.11504">
        <ele>483</ele>
        <time>2024-08-15T15:20:19Z</time>
      </trkpt>
      <trkpt lat="44.49679" lon="5.11497">
        <ele>482</ele>
        <time>2024-08-15T15:20:23Z</time>
      </trkpt>
      <trkpt lat="44.49711" lon="5.11479">
        <ele>481</ele>
        <time>2024-08-15T15:20:29Z</time>
      </trkpt>
      <trkpt lat="44.49752" lon="5.11463">
        <ele>480</ele>
        <time>2024-08-15T15:20:36Z</time>
      </trkpt>
      <trkpt lat="44.49928" lon="5.11424">
        <ele>483</ele>
        <time>2024-08-15T15:21:08Z</time>
      </trkpt>
      <trkpt lat="44.49944" lon="5.11421">
        <ele>485</ele>
        <time>2024-08-15T15:21:11Z</time>
      </trkpt>
      <trkpt lat="44.49947" lon="5.11418">
        <ele>485</ele>
        <time>2024-08-15T15:21:12Z</time>
      </trkpt>
      <trkpt lat="44.49959" lon="5.11399">
        <ele>485</ele>
        <time>2024-08-15T15:21:15Z</time>
      </trkpt>
      <trkpt lat="44.50013" lon="5.11286">
        <ele>480</ele>
        <time>2024-08-15T15:21:32Z</time>
      </trkpt>
      <trkpt lat="44.50029" lon="5.11258">
        <ele>478</ele>
        <time>2024-08-15T15:21:37Z</time>
      </trkpt>
      <trkpt lat="44.50103" lon="5.11158">
        <ele>476</ele>
        <time>2024-08-15T15:21:55Z</time>
      </trkpt>
      <trkpt lat="44.50128" lon="5.1113">
        <ele>477</ele>
        <time>2024-08-15T15:22:01Z</time>
      </trkpt>
      <trkpt lat="44.50135" lon="5.11122">
        <ele>477</ele>
        <time>2024-08-15T15:22:02Z</time>
      </trkpt>
      <trkpt lat="44.50219" lon="5.11013">
        <ele>478</ele>
        <time>2024-08-15T15:22:23Z</time>
      </trkpt>
      <trkpt lat="44.50317" lon="5.10892">
        <ele>478</ele>
        <time>2024-08-15T15:22:46Z</time>
      </trkpt>
      <trkpt lat="44.50336" lon="5.10854">
        <ele>479</ele>
        <time>2024-08-15T15:22:52Z</time>
      </trkpt>
      <trkpt lat="44.50429" lon="5.10426">
        <ele>473</ele>
        <time>2024-08-15T15:23:49Z</time>
      </trkpt>
      <trkpt lat="44.50456" lon="5.10267">
        <ele>475</ele>
        <time>2024-08-15T15:24:09Z</time>
      </trkpt>
      <trkpt lat="44.50483" lon="5.1008">
        <ele>480</ele>
        <time>2024-08-15T15:24:34Z</time>
      </trkpt>
      <trkpt lat="44.50494" lon="5.09989">
        <ele>483</ele>
        <time>2024-08-15T15:24:45Z</time>
      </trkpt>
      <trkpt lat="44.50494" lon="5.09953">
        <ele>483</ele>
        <time>2024-08-15T15:24:50Z</time>
      </trkpt>
      <trkpt lat="44.50488" lon="5.09839">
        <ele>481</ele>
        <time>2024-08-15T15:25:04Z</time>
      </trkpt>
      <trkpt lat="44.50491" lon="5.09818">
        <ele>480</ele>
        <time>2024-08-15T15:25:07Z</time>
      </trkpt>
      <trkpt lat="44.50498" lon="5.09806">
        <ele>481</ele>
        <time>2024-08-15T15:25:09Z</time>
      </trkpt>
      <trkpt lat="44.50512" lon="5.09799">
        <ele>482</ele>
        <time>2024-08-15T15:25:12Z</time>
      </trkpt>
      <trkpt lat="44.50577" lon="5.0979">
        <ele>492</ele>
        <time>2024-08-15T15:25:23Z</time>
      </trkpt>
      <trkpt lat="44.50703" lon="5.09785">
        <ele>496</ele>
        <time>2024-08-15T15:25:46Z</time>
      </trkpt>
      <trkpt lat="44.50712" lon="5.09783">
        <ele>496</ele>
        <time>2024-08-15T15:25:47Z</time>
      </trkpt>
      <trkpt lat="44.50718" lon="5.09776">
        <ele>495</ele>
        <time>2024-08-15T15:25:49Z</time>
      </trkpt>
      <trkpt lat="44.50732" lon="5.09781">
        <ele>496</ele>
        <time>2024-08-15T15:25:51Z</time>
      </trkpt>
      <trkpt lat="44.50744" lon="5.09783">
        <ele>497</ele>
        <time>2024-08-15T15:25:53Z</time>
      </trkpt>
      <trkpt lat="44.50802" lon="5.09782">
        <ele>501</ele>
        <time>2024-08-15T15:26:04Z</time>
      </trkpt>
      <trkpt lat="44.50844" lon="5.09778">
        <ele>503</ele>
        <time>2024-08-15T15:26:11Z</time>
      </trkpt>
      <trkpt lat="44.50883" lon="5.09761">
        <ele>502</ele>
        <time>2024-08-15T15:26:19Z</time>
      </trkpt>
      <trkpt lat="44.50898" lon="5.09751">
        <ele>502</ele>
        <time>2024-08-15T15:26:21Z</time>
      </trkpt>
      <trkpt lat="44.50909" lon="5.09737">
        <ele>502</ele>
        <time>2024-08-15T15:26:24Z</time>
      </trkpt>
      <trkpt lat="44.50916" lon="5.09725">
        <ele>502</ele>
        <time>2024-08-15T15:26:26Z</time>
      </trkpt>
      <trkpt lat="44.50974" lon="5.09586">
        <ele>499</ele>
        <time>2024-08-15T15:26:47Z</time>
      </trkpt>
      <trkpt lat="44.50983" lon="5.09546">
        <ele>497</ele>
        <time>2024-08-15T15:26:52Z</time>
      </trkpt>
      <trkpt lat="44.50997" lon="5.09425">
        <ele>492</ele>
        <time>2024-08-15T15:27:07Z</time>
      </trkpt>
      <trkpt lat="44.51023" lon="5.09333">
        <ele>485</ele>
        <time>2024-08-15T15:27:20Z</time>
      </trkpt>
      <trkpt lat="44.51035" lon="5.09256">
        <ele>483</ele>
        <time>2024-08-15T15:27:30Z</time>
      </trkpt>
      <trkpt lat="44.51042" lon="5.09248">
        <ele>481</ele>
        <time>2024-08-15T15:27:32Z</time>
      </trkpt>
      <trkpt lat="44.51048" lon="5.09247">
        <ele>480</ele>
        <time>2024-08-15T15:27:33Z</time>
      </trkpt>
      <trkpt lat="44.51056" lon="5.09251">
        <ele>478</ele>
        <time>2024-08-15T15:27:34Z</time>
      </trkpt>
      <trkpt lat="44.5106" lon="5.09259">
        <ele>477</ele>
        <time>2024-08-15T15:27:35Z</time>
      </trkpt>
      <trkpt lat="44.51068" lon="5.09308">
        <ele>476</ele>
        <time>2024-08-15T15:27:42Z</time>
      </trkpt>
      <trkpt lat="44.51095" lon="5.09429">
        <ele>474</ele>
        <time>2024-08-15T15:27:58Z</time>
      </trkpt>
      <trkpt lat="44.5111" lon="5.09481">
        <ele>473</ele>
        <time>2024-08-15T15:28:05Z</time>
      </trkpt>
      <trkpt lat="44.51135" lon="5.09527">
        <ele>473</ele>
        <time>2024-08-15T15:28:12Z</time>
      </trkpt>
      <trkpt lat="44.51197" lon="5.09604">
        <ele>469</ele>
        <time>2024-08-15T15:28:27Z</time>
      </trkpt>
      <trkpt lat="44.51206" lon="5.09613">
        <ele>468</ele>
        <time>2024-08-15T15:28:29Z</time>
      </trkpt>
      <trkpt lat="44.51214" lon="5.09615">
        <ele>467</ele>
        <time>2024-08-15T15:28:30Z</time>
      </trkpt>
      <trkpt lat="44.51222" lon="5.09611">
        <ele>465</ele>
        <time>2024-08-15T15:28:32Z</time>
      </trkpt>
      <trkpt lat="44.51227" lon="5.09603">
        <ele>464</ele>
        <time>2024-08-15T15:28:33Z</time>
      </trkpt>
      <trkpt lat="44.5123" lon="5.09592">
        <ele>462</ele>
        <time>2024-08-15T15:28:35Z</time>
      </trkpt>
      <trkpt lat="44.51227" lon="5.09548">
        <ele>459</ele>
        <time>2024-08-15T15:28:40Z</time>
      </trkpt>
      <trkpt lat="44.51226" lon="5.09516">
        <ele>457</ele>
        <time>2024-08-15T15:28:44Z</time>
      </trkpt>
      <trkpt lat="44.51227" lon="5.09502">
        <ele>455</ele>
        <time>2024-08-15T15:28:46Z</time>
      </trkpt>
      <trkpt lat="44.51232" lon="5.09474">
        <ele>455</ele>
        <time>2024-08-15T15:28:50Z</time>
      </trkpt>
      <trkpt lat="44.51295" lon="5.09304">
        <ele>448</ele>
        <time>2024-08-15T15:29:14Z</time>
      </trkpt>
      <trkpt lat="44.513" lon="5.09281">
        <ele>447</ele>
        <time>2024-08-15T15:29:17Z</time>
      </trkpt>
      <trkpt lat="44.51323" lon="5.09093">
        <ele>442</ele>
        <time>2024-08-15T15:29:41Z</time>
      </trkpt>
      <trkpt lat="44.5133" lon="5.09062">
        <ele>441</ele>
        <time>2024-08-15T15:29:46Z</time>
      </trkpt>
      <trkpt lat="44.5134" lon="5.09042">
        <ele>441</ele>
        <time>2024-08-15T15:29:49Z</time>
      </trkpt>
      <trkpt lat="44.51352" lon="5.09031">
        <ele>441</ele>
        <time>2024-08-15T15:29:51Z</time>
      </trkpt>
      <trkpt lat="44.51366" lon="5.09024">
        <ele>441</ele>
        <time>2024-08-15T15:29:54Z</time>
      </trkpt>
      <trkpt lat="44.51374" lon="5.09019">
        <ele>441</ele>
        <time>2024-08-15T15:29:55Z</time>
      </trkpt>
      <trkpt lat="44.51395" lon="5.09009">
        <ele>442</ele>
        <time>2024-08-15T15:29:59Z</time>
      </trkpt>
      <trkpt lat="44.5141" lon="5.08997">
        <ele>442</ele>
        <time>2024-08-15T15:30:02Z</time>
      </trkpt>
      <trkpt lat="44.51421" lon="5.08982">
        <ele>441</ele>
        <time>2024-08-15T15:30:05Z</time>
      </trkpt>
      <trkpt lat="44.51468" lon="5.08873">
        <ele>439</ele>
        <time>2024-08-15T15:30:21Z</time>
      </trkpt>
      <trkpt lat="44.5149" lon="5.08838">
        <ele>435</ele>
        <time>2024-08-15T15:30:27Z</time>
      </trkpt>
      <trkpt lat="44.51552" lon="5.0876">
        <ele>432</ele>
        <time>2024-08-15T15:30:42Z</time>
      </trkpt>
      <trkpt lat="44.51564" lon="5.08739">
        <ele>430</ele>
        <time>2024-08-15T15:30:46Z</time>
      </trkpt>
      <trkpt lat="44.51572" lon="5.08715">
        <ele>429</ele>
        <time>2024-08-15T15:30:49Z</time>
      </trkpt>
      <trkpt lat="44.51575" lon="5.08692">
        <ele>428</ele>
        <time>2024-08-15T15:30:52Z</time>
      </trkpt>
      <trkpt lat="44.51582" lon="5.08511">
        <ele>425</ele>
        <time>2024-08-15T15:31:15Z</time>
      </trkpt>
      <trkpt lat="44.51586" lon="5.08485">
        <ele>425</ele>
        <time>2024-08-15T15:31:18Z</time>
      </trkpt>
      <trkpt lat="44.51592" lon="5.0846">
        <ele>424</ele>
        <time>2024-08-15T15:31:22Z</time>
      </trkpt>
      <trkpt lat="44.51605" lon="5.08416">
        <ele>423</ele>
        <time>2024-08-15T15:31:28Z</time>
      </trkpt>
      <trkpt lat="44.51668" lon="5.08236">
        <ele>412</ele>
        <time>2024-08-15T15:31:53Z</time>
      </trkpt>
      <trkpt lat="44.51684" lon="5.08196">
        <ele>414</ele>
        <time>2024-08-15T15:31:59Z</time>
      </trkpt>
      <trkpt lat="44.51694" lon="5.08171">
        <ele>416</ele>
        <time>2024-08-15T15:32:03Z</time>
      </trkpt>
      <trkpt lat="44.51741" lon="5.08061">
        <ele>412</ele>
        <time>2024-08-15T15:32:19Z</time>
      </trkpt>
      <trkpt lat="44.51752" lon="5.08044">
        <ele>410</ele>
        <time>2024-08-15T15:32:22Z</time>
      </trkpt>
      <trkpt lat="44.51776" lon="5.08013">
        <ele>411</ele>
        <time>2024-08-15T15:32:28Z</time>
      </trkpt>
      <trkpt lat="44.51817" lon="5.07966">
        <ele>412</ele>
        <time>2024-08-15T15:32:37Z</time>
      </trkpt>
      <trkpt lat="44.51834" lon="5.07936">
        <ele>411</ele>
        <time>2024-08-15T15:32:42Z</time>
      </trkpt>
      <trkpt lat="44.51838" lon="5.07924">
        <ele>410</ele>
        <time>2024-08-15T15:32:43Z</time>
      </trkpt>
      <trkpt lat="44.51858" lon="5.07855">
        <ele>411</ele>
        <time>2024-08-15T15:32:53Z</time>
      </trkpt>
      <trkpt lat="44.5188" lon="5.07806">
        <ele>413</ele>
        <time>2024-08-15T15:33:00Z</time>
      </trkpt>
      <trkpt lat="44.519" lon="5.07749">
        <ele>415</ele>
        <time>2024-08-15T15:33:08Z</time>
      </trkpt>
      <trkpt lat="44.51937" lon="5.07556">
        <ele>413</ele>
        <time>2024-08-15T15:33:34Z</time>
      </trkpt>
      <trkpt lat="44.51958" lon="5.07466">
        <ele>413</ele>
        <time>2024-08-15T15:33:46Z</time>
      </trkpt>
      <trkpt lat="44.51945" lon="5.07463">
        <ele>410</ele>
        <time>2024-08-15T15:33:48Z</time>
      </trkpt>
      <trkpt lat="44.51915" lon="5.07468">
        <ele>404</ele>
        <time>2024-08-15T15:33:53Z</time>
      </trkpt>
      <trkpt lat="44.51907" lon="5.07465">
        <ele>403</ele>
        <time>2024-08-15T15:33:55Z</time>
      </trkpt>
      <trkpt lat="44.51888" lon="5.07525">
        <ele>403</ele>
        <time>2024-08-15T15:34:03Z</time>
      </trkpt>
      <trkpt lat="44.51865" lon="5.07556">
        <ele>402</ele>
        <time>2024-08-15T15:34:09Z</time>
      </trkpt>
      <trkpt lat="44.51841" lon="5.07599">
        <ele>400</ele>
        <time>2024-08-15T15:34:16Z</time>
      </trkpt>
      <trkpt lat="44.51865" lon="5.07556">
        <ele>402</ele>
        <time>2024-08-15T15:34:23Z</time>
      </trkpt>
      <trkpt lat="44.51888" lon="5.07525">
        <ele>403</ele>
        <time>2024-08-15T15:34:28Z</time>
      </trkpt>
      <trkpt lat="44.51907" lon="5.07465">
        <ele>403</ele>
        <time>2024-08-15T15:34:37Z</time>
      </trkpt>
      <trkpt lat="44.51915" lon="5.07468">
        <ele>404</ele>
        <time>2024-08-15T15:34:38Z</time>
      </trkpt>
      <trkpt lat="44.51945" lon="5.07463">
        <ele>410</ele>
        <time>2024-08-15T15:34:44Z</time>
      </trkpt>
      <trkpt lat="44.51958" lon="5.07466">
        <ele>413</ele>
        <time>2024-08-15T15:34:46Z</time>
      </trkpt>
      <trkpt lat="44.52004" lon="5.07274">
        <ele>406</ele>
        <time>2024-08-15T15:35:12Z</time>
      </trkpt>
      <trkpt lat="44.52022" lon="5.07188">
        <ele>401</ele>
        <time>2024-08-15T15:35:23Z</time>
      </trkpt>
      <trkpt lat="44.52031" lon="5.07162">
        <ele>399</ele>
        <time>2024-08-15T15:35:27Z</time>
      </trkpt>
      <trkpt lat="44.52065" lon="5.07088">
        <ele>397</ele>
        <time>2024-08-15T15:35:38Z</time>
      </trkpt>
      <trkpt lat="44.52109" lon="5.06933">
        <ele>395</ele>
        <time>2024-08-15T15:35:59Z</time>
      </trkpt>
      <trkpt lat="44.52124" lon="5.06895">
        <ele>394</ele>
        <time>2024-08-15T15:36:05Z</time>
      </trkpt>
      <trkpt lat="44.52159" lon="5.06817">
        <ele>393</ele>
        <time>2024-08-15T15:36:16Z</time>
      </trkpt>
      <trkpt lat="44.52169" lon="5.06777">
        <ele>393</ele>
        <time>2024-08-15T15:36:22Z</time>
      </trkpt>
      <trkpt lat="44.5219" lon="5.0667">
        <ele>392</ele>
        <time>2024-08-15T15:36:36Z</time>
      </trkpt>
      <trkpt lat="44.52196" lon="5.06658">
        <ele>392</ele>
        <time>2024-08-15T15:36:38Z</time>
      </trkpt>
      <trkpt lat="44.5222" lon="5.06626">
        <ele>392</ele>
        <time>2024-08-15T15:36:43Z</time>
      </trkpt>
      <trkpt lat="44.5228" lon="5.06577">
        <ele>391</ele>
        <time>2024-08-15T15:36:56Z</time>
      </trkpt>
      <trkpt lat="44.5231" lon="5.06558">
        <ele>390</ele>
        <time>2024-08-15T15:37:02Z</time>
      </trkpt>
      <trkpt lat="44.52324" lon="5.06551">
        <ele>390</ele>
        <time>2024-08-15T15:37:04Z</time>
      </trkpt>
      <trkpt lat="44.5231" lon="5.06536">
        <ele>388</ele>
        <time>2024-08-15T15:37:07Z</time>
      </trkpt>
      <trkpt lat="44.52288" lon="5.06517">
        <ele>386</ele>
        <time>2024-08-15T15:37:12Z</time>
      </trkpt>
      <trkpt lat="44.52284" lon="5.0651">
        <ele>386</ele>
        <time>2024-08-15T15:37:13Z</time>
      </trkpt>
      <trkpt lat="44.52278" lon="5.06485">
        <ele>384</ele>
        <time>2024-08-15T15:37:16Z</time>
      </trkpt>
      <trkpt lat="44.52277" lon="5.06464">
        <ele>383</ele>
        <time>2024-08-15T15:37:19Z</time>
      </trkpt>
      <trkpt lat="44.52281" lon="5.06429">
        <ele>381</ele>
        <time>2024-08-15T15:37:24Z</time>
      </trkpt>
      <trkpt lat="44.52285" lon="5.06413">
        <ele>379</ele>
        <time>2024-08-15T15:37:26Z</time>
      </trkpt>
      <trkpt lat="44.523" lon="5.06383">
        <ele>378</ele>
        <time>2024-08-15T15:37:30Z</time>
      </trkpt>
      <trkpt lat="44.52315" lon="5.06357">
        <ele>377</ele>
        <time>2024-08-15T15:37:35Z</time>
      </trkpt>
      <trkpt lat="44.52331" lon="5.0632">
        <ele>377</ele>
        <time>2024-08-15T15:37:40Z</time>
      </trkpt>
      <trkpt lat="44.52337" lon="5.06319">
        <ele>377</ele>
        <time>2024-08-15T15:37:41Z</time>
      </trkpt>
      <trkpt lat="44.5234" lon="5.06312">
        <ele>377</ele>
        <time>2024-08-15T15:37:42Z</time>
      </trkpt>
      <trkpt lat="44.52339" lon="5.06307">
        <ele>377</ele>
        <time>2024-08-15T15:37:43Z</time>
      </trkpt>
      <trkpt lat="44.52333" lon="5.06303">
        <ele>377</ele>
        <time>2024-08-15T15:37:44Z</time>
      </trkpt>
      <trkpt lat="44.52329" lon="5.06306">
        <ele>377</ele>
        <time>2024-08-15T15:37:45Z</time>
      </trkpt>
      <trkpt lat="44.52312" lon="5.06257">
        <ele>378</ele>
        <time>2024-08-15T15:37:52Z</time>
      </trkpt>
      <trkpt lat="44.52131" lon="5.05731">
        <ele>369</ele>
        <time>2024-08-15T15:39:06Z</time>
      </trkpt>
      <trkpt lat="44.52126" lon="5.05709">
        <ele>369</ele>
        <time>2024-08-15T15:39:09Z</time>
      </trkpt>
      <trkpt lat="44.52128" lon="5.0556">
        <ele>366</ele>
        <time>2024-08-15T15:39:28Z</time>
      </trkpt>
      <trkpt lat="44.52126" lon="5.05499">
        <ele>364</ele>
        <time>2024-08-15T15:39:36Z</time>
      </trkpt>
      <trkpt lat="44.52137" lon="5.05192">
        <ele>355</ele>
        <time>2024-08-15T15:40:15Z</time>
      </trkpt>
      <trkpt lat="44.52157" lon="5.04964">
        <ele>348</ele>
        <time>2024-08-15T15:40:44Z</time>
      </trkpt>
      <trkpt lat="44.52168" lon="5.04873">
        <ele>345</ele>
        <time>2024-08-15T15:40:55Z</time>
      </trkpt>
      <trkpt lat="44.52176" lon="5.04843">
        <ele>344</ele>
        <time>2024-08-15T15:40:59Z</time>
      </trkpt>
      <trkpt lat="44.52181" lon="5.0483">
        <ele>344</ele>
        <time>2024-08-15T15:41:01Z</time>
      </trkpt>
      <trkpt lat="44.52256" lon="5.04718">
        <ele>344</ele>
        <time>2024-08-15T15:41:21Z</time>
      </trkpt>
      <trkpt lat="44.52264" lon="5.04711">
        <ele>344</ele>
        <time>2024-08-15T15:41:22Z</time>
      </trkpt>
      <trkpt lat="44.52273" lon="5.04705">
        <ele>345</ele>
        <time>2024-08-15T15:41:24Z</time>
      </trkpt>
      <trkpt lat="44.52281" lon="5.04702">
        <ele>345</ele>
        <time>2024-08-15T15:41:26Z</time>
      </trkpt>
      <trkpt lat="44.52287" lon="5.04693">
        <ele>345</ele>
        <time>2024-08-15T15:41:27Z</time>
      </trkpt>
      <trkpt lat="44.52288" lon="5.04685">
        <ele>345</ele>
        <time>2024-08-15T15:41:28Z</time>
      </trkpt>
      <trkpt lat="44.52296" lon="5.04662">
        <ele>344</ele>
        <time>2024-08-15T15:41:32Z</time>
      </trkpt>
      <trkpt lat="44.52314" lon="5.04623">
        <ele>342</ele>
        <time>2024-08-15T15:41:37Z</time>
      </trkpt>
      <trkpt lat="44.52325" lon="5.04588">
        <ele>340</ele>
        <time>2024-08-15T15:41:42Z</time>
      </trkpt>
      <trkpt lat="44.52334" lon="5.04541">
        <ele>340</ele>
        <time>2024-08-15T15:41:49Z</time>
      </trkpt>
      <trkpt lat="44.52347" lon="5.04447">
        <ele>339</ele>
        <time>2024-08-15T15:42:01Z</time>
      </trkpt>
      <trkpt lat="44.52378" lon="5.04262">
        <ele>340</ele>
        <time>2024-08-15T15:42:25Z</time>
      </trkpt>
      <trkpt lat="44.52393" lon="5.04201">
        <ele>341</ele>
        <time>2024-08-15T15:42:33Z</time>
      </trkpt>
      <trkpt lat="44.5241" lon="5.04149">
        <ele>342</ele>
        <time>2024-08-15T15:42:40Z</time>
      </trkpt>
      <trkpt lat="44.52514" lon="5.03889">
        <ele>344</ele>
        <time>2024-08-15T15:43:18Z</time>
      </trkpt>
      <trkpt lat="44.52524" lon="5.03855">
        <ele>346</ele>
        <time>2024-08-15T15:43:23Z</time>
      </trkpt>
      <trkpt lat="44.52532" lon="5.0382">
        <ele>346</ele>
        <time>2024-08-15T15:43:27Z</time>
      </trkpt>
      <trkpt lat="44.52553" lon="5.03673">
        <ele>338</ele>
        <time>2024-08-15T15:43:46Z</time>
      </trkpt>
      <trkpt lat="44.5256" lon="5.03568">
        <ele>335</ele>
        <time>2024-08-15T15:44:00Z</time>
      </trkpt>
      <trkpt lat="44.52564" lon="5.03491">
        <ele>334</ele>
        <time>2024-08-15T15:44:10Z</time>
      </trkpt>
      <trkpt lat="44.52564" lon="5.03437">
        <ele>334</ele>
        <time>2024-08-15T15:44:16Z</time>
      </trkpt>
      <trkpt lat="44.52569" lon="5.03357">
        <ele>333</ele>
        <time>2024-08-15T15:44:27Z</time>
      </trkpt>
      <trkpt lat="44.52585" lon="5.03265">
        <ele>331</ele>
        <time>2024-08-15T15:44:39Z</time>
      </trkpt>
      <trkpt lat="44.52596" lon="5.03193">
        <ele>330</ele>
        <time>2024-08-15T15:44:48Z</time>
      </trkpt>
      <trkpt lat="44.52597" lon="5.03186">
        <ele>330</ele>
        <time>2024-08-15T15:44:49Z</time>
      </trkpt>
      <trkpt lat="44.52612" lon="5.031">
        <ele>331</ele>
        <time>2024-08-15T15:45:00Z</time>
      </trkpt>
      <trkpt lat="44.5263" lon="5.03004">
        <ele>331</ele>
        <time>2024-08-15T15:45:13Z</time>
      </trkpt>
      <trkpt lat="44.5267" lon="5.02865">
        <ele>330</ele>
        <time>2024-08-15T15:45:32Z</time>
      </trkpt>
      <trkpt lat="44.52683" lon="5.02834">
        <ele>329</ele>
        <time>2024-08-15T15:45:36Z</time>
      </trkpt>
      <trkpt lat="44.52691" lon="5.02818">
        <ele>329</ele>
        <time>2024-08-15T15:45:39Z</time>
      </trkpt>
      <trkpt lat="44.52702" lon="5.02801">
        <ele>328</ele>
        <time>2024-08-15T15:45:42Z</time>
      </trkpt>
      <trkpt lat="44.52883" lon="5.02574">
        <ele>327</ele>
        <time>2024-08-15T15:46:25Z</time>
      </trkpt>
      <trkpt lat="44.5291" lon="5.02533">
        <ele>327</ele>
        <time>2024-08-15T15:46:32Z</time>
      </trkpt>
      <trkpt lat="44.52934" lon="5.02489">
        <ele>326</ele>
        <time>2024-08-15T15:46:39Z</time>
      </trkpt>
      <trkpt lat="44.52945" lon="5.02455">
        <ele>326</ele>
        <time>2024-08-15T15:46:44Z</time>
      </trkpt>
      <trkpt lat="44.52954" lon="5.02417">
        <ele>325</ele>
        <time>2024-08-15T15:46:49Z</time>
      </trkpt>
      <trkpt lat="44.52958" lon="5.02354">
        <ele>323</ele>
        <time>2024-08-15T15:46:57Z</time>
      </trkpt>
      <trkpt lat="44.52964" lon="5.0211">
        <ele>316</ele>
        <time>2024-08-15T15:47:28Z</time>
      </trkpt>
      <trkpt lat="44.52965" lon="5.02099">
        <ele>316</ele>
        <time>2024-08-15T15:47:29Z</time>
      </trkpt>
      <trkpt lat="44.52963" lon="5.01974">
        <ele>313</ele>
        <time>2024-08-15T15:47:45Z</time>
      </trkpt>
      <trkpt lat="44.52954" lon="5.01681">
        <ele>312</ele>
        <time>2024-08-15T15:48:22Z</time>
      </trkpt>
      <trkpt lat="44.52958" lon="5.0166">
        <ele>312</ele>
        <time>2024-08-15T15:48:25Z</time>
      </trkpt>
      <trkpt lat="44.52985" lon="5.01559">
        <ele>313</ele>
        <time>2024-08-15T15:48:39Z</time>
      </trkpt>
      <trkpt lat="44.52988" lon="5.01548">
        <ele>313</ele>
        <time>2024-08-15T15:48:40Z</time>
      </trkpt>
      <trkpt lat="44.53027" lon="5.0141">
        <ele>315</ele>
        <time>2024-08-15T15:48:59Z</time>
      </trkpt>
      <trkpt lat="44.53047" lon="5.01329">
        <ele>314</ele>
        <time>2024-08-15T15:49:10Z</time>
      </trkpt>
      <trkpt lat="44.53069" lon="5.01253">
        <ele>313</ele>
        <time>2024-08-15T15:49:20Z</time>
      </trkpt>
      <trkpt lat="44.53081" lon="5.01199">
        <ele>311</ele>
        <time>2024-08-15T15:49:27Z</time>
      </trkpt>
      <trkpt lat="44.53101" lon="5.01083">
        <ele>310</ele>
        <time>2024-08-15T15:49:43Z</time>
      </trkpt>
      <trkpt lat="44.53114" lon="5.00982">
        <ele>309</ele>
        <time>2024-08-15T15:49:56Z</time>
      </trkpt>
      <trkpt lat="44.53139" lon="5.0069">
        <ele>304</ele>
        <time>2024-08-15T15:50:33Z</time>
      </trkpt>
      <trkpt lat="44.53143" lon="5.00614">
        <ele>302</ele>
        <time>2024-08-15T15:50:43Z</time>
      </trkpt>
      <trkpt lat="44.53159" lon="5.00453">
        <ele>300</ele>
        <time>2024-08-15T15:51:03Z</time>
      </trkpt>
      <trkpt lat="44.53166" lon="5.00398">
        <ele>299</ele>
        <time>2024-08-15T15:51:10Z</time>
      </trkpt>
      <trkpt lat="44.5319" lon="5.00271">
        <ele>299</ele>
        <time>2024-08-15T15:51:27Z</time>
      </trkpt>
      <trkpt lat="44.53234" lon="5.0008">
        <ele>296</ele>
        <time>2024-08-15T15:51:52Z</time>
      </trkpt>
      <trkpt lat="44.53243" lon="5.00026">
        <ele>295</ele>
        <time>2024-08-15T15:51:59Z</time>
      </trkpt>
      <trkpt lat="44.53248" lon="4.99946">
        <ele>294</ele>
        <time>2024-08-15T15:52:10Z</time>
      </trkpt>
      <trkpt lat="44.53247" lon="4.9989">
        <ele>293</ele>
        <time>2024-08-15T15:52:17Z</time>
      </trkpt>
      <trkpt lat="44.53239" lon="4.99833">
        <ele>292</ele>
        <time>2024-08-15T15:52:24Z</time>
      </trkpt>
      <trkpt lat="44.5323" lon="4.99784">
        <ele>291</ele>
        <time>2024-08-15T15:52:30Z</time>
      </trkpt>
      <trkpt lat="44.53063" lon="4.9916">
        <ele>285</ele>
        <time>2024-08-15T15:53:55Z</time>
      </trkpt>
      <trkpt lat="44.53052" lon="4.99124">
        <ele>287</ele>
        <time>2024-08-15T15:54:00Z</time>
      </trkpt>
      <trkpt lat="44.53023" lon="4.99056">
        <ele>288</ele>
        <time>2024-08-15T15:54:10Z</time>
      </trkpt>
      <trkpt lat="44.53005" lon="4.9902">
        <ele>287</ele>
        <time>2024-08-15T15:54:16Z</time>
      </trkpt>
      <trkpt lat="44.5299" lon="4.98995">
        <ele>286</ele>
        <time>2024-08-15T15:54:20Z</time>
      </trkpt>
      <trkpt lat="44.52971" lon="4.98966">
        <ele>286</ele>
        <time>2024-08-15T15:54:25Z</time>
      </trkpt>
      <trkpt lat="44.52726" lon="4.98649">
        <ele>284</ele>
        <time>2024-08-15T15:55:24Z</time>
      </trkpt>
      <trkpt lat="44.52702" lon="4.98609">
        <ele>283</ele>
        <time>2024-08-15T15:55:31Z</time>
      </trkpt>
      <trkpt lat="44.52683" lon="4.98562">
        <ele>282</ele>
        <time>2024-08-15T15:55:38Z</time>
      </trkpt>
      <trkpt lat="44.52588" lon="4.98252">
        <ele>275</ele>
        <time>2024-08-15T15:56:20Z</time>
      </trkpt>
      <trkpt lat="44.52585" lon="4.98241">
        <ele>275</ele>
        <time>2024-08-15T15:56:22Z</time>
      </trkpt>
      <trkpt lat="44.52578" lon="4.98218">
        <ele>276</ele>
        <time>2024-08-15T15:56:25Z</time>
      </trkpt>
      <trkpt lat="44.52569" lon="4.98165">
        <ele>276</ele>
        <time>2024-08-15T15:56:32Z</time>
      </trkpt>
      <trkpt lat="44.52557" lon="4.98063">
        <ele>274</ele>
        <time>2024-08-15T15:56:45Z</time>
      </trkpt>
      <trkpt lat="44.52555" lon="4.97995">
        <ele>272</ele>
        <time>2024-08-15T15:56:54Z</time>
      </trkpt>
      <trkpt lat="44.52555" lon="4.97823">
        <ele>266</ele>
        <time>2024-08-15T15:57:15Z</time>
      </trkpt>
      <trkpt lat="44.52557" lon="4.97767">
        <ele>265</ele>
        <time>2024-08-15T15:57:23Z</time>
      </trkpt>
      <trkpt lat="44.52569" lon="4.97697">
        <ele>265</ele>
        <time>2024-08-15T15:57:32Z</time>
      </trkpt>
      <trkpt lat="44.52591" lon="4.97627">
        <ele>264</ele>
        <time>2024-08-15T15:57:41Z</time>
      </trkpt>
      <trkpt lat="44.52629" lon="4.9755">
        <ele>264</ele>
        <time>2024-08-15T15:57:53Z</time>
      </trkpt>
      <trkpt lat="44.53049" lon="4.96897">
        <ele>264</ele>
        <time>2024-08-15T15:59:45Z</time>
      </trkpt>
      <trkpt lat="44.53054" lon="4.96887">
        <ele>263</ele>
        <time>2024-08-15T15:59:46Z</time>
      </trkpt>
      <trkpt lat="44.53095" lon="4.96819">
        <ele>265</ele>
        <time>2024-08-15T15:59:58Z</time>
      </trkpt>
      <trkpt lat="44.53118" lon="4.96782">
        <ele>267</ele>
        <time>2024-08-15T16:00:04Z</time>
      </trkpt>
      <trkpt lat="44.53139" lon="4.96756">
        <ele>267</ele>
        <time>2024-08-15T16:00:09Z</time>
      </trkpt>
      <trkpt lat="44.53154" lon="4.9674">
        <ele>266</ele>
        <time>2024-08-15T16:00:12Z</time>
      </trkpt>
      <trkpt lat="44.53178" lon="4.96719">
        <ele>266</ele>
        <time>2024-08-15T16:00:17Z</time>
      </trkpt>
      <trkpt lat="44.53277" lon="4.96665">
        <ele>261</ele>
        <time>2024-08-15T16:00:36Z</time>
      </trkpt>
      <trkpt lat="44.53398" lon="4.96601">
        <ele>259</ele>
        <time>2024-08-15T16:00:59Z</time>
      </trkpt>
      <trkpt lat="44.53416" lon="4.96584">
        <ele>255</ele>
        <time>2024-08-15T16:01:03Z</time>
      </trkpt>
      <trkpt lat="44.53446" lon="4.96546">
        <ele>253</ele>
        <time>2024-08-15T16:01:10Z</time>
      </trkpt>
      <trkpt lat="44.53485" lon="4.96487">
        <ele>249</ele>
        <time>2024-08-15T16:01:20Z</time>
      </trkpt>
      <trkpt lat="44.53511" lon="4.96454">
        <ele>247</ele>
        <time>2024-08-15T16:01:27Z</time>
      </trkpt>
      <trkpt lat="44.53536" lon="4.96433">
        <ele>246</ele>
        <time>2024-08-15T16:01:32Z</time>
      </trkpt>
      <trkpt lat="44.53575" lon="4.96411">
        <ele>245</ele>
        <time>2024-08-15T16:01:39Z</time>
      </trkpt>
      <trkpt lat="44.53657" lon="4.96376">
        <ele>248</ele>
        <time>2024-08-15T16:01:55Z</time>
      </trkpt>
      <trkpt lat="44.53704" lon="4.96346">
        <ele>248</ele>
        <time>2024-08-15T16:02:04Z</time>
      </trkpt>
      <trkpt lat="44.53763" lon="4.96299">
        <ele>249</ele>
        <time>2024-08-15T16:02:16Z</time>
      </trkpt>
      <trkpt lat="44.53781" lon="4.96282">
        <ele>251</ele>
        <time>2024-08-15T16:02:20Z</time>
      </trkpt>
      <trkpt lat="44.53808" lon="4.96251">
        <ele>249</ele>
        <time>2024-08-15T16:02:26Z</time>
      </trkpt>
      <trkpt lat="44.53831" lon="4.96209">
        <ele>246</ele>
        <time>2024-08-15T16:02:33Z</time>
      </trkpt>
      <trkpt lat="44.53843" lon="4.96164">
        <ele>241</ele>
        <time>2024-08-15T16:02:39Z</time>
      </trkpt>
      <trkpt lat="44.53855" lon="4.96096">
        <ele>239</ele>
        <time>2024-08-15T16:02:48Z</time>
      </trkpt>
      <trkpt lat="44.53872" lon="4.96038">
        <ele>238</ele>
        <time>2024-08-15T16:02:56Z</time>
      </trkpt>
      <trkpt lat="44.53886" lon="4.96002">
        <ele>238</ele>
        <time>2024-08-15T16:03:01Z</time>
      </trkpt>
      <trkpt lat="44.53992" lon="4.95829">
        <ele>239</ele>
        <time>2024-08-15T16:03:30Z</time>
      </trkpt>
      <trkpt lat="44.54037" lon="4.95746">
        <ele>241</ele>
        <time>2024-08-15T16:03:43Z</time>
      </trkpt>
      <trkpt lat="44.54053" lon="4.95713">
        <ele>240</ele>
        <time>2024-08-15T16:03:48Z</time>
      </trkpt>
      <trkpt lat="44.54062" lon="4.9569">
        <ele>238</ele>
        <time>2024-08-15T16:03:51Z</time>
      </trkpt>
      <trkpt lat="44.54078" lon="4.95629">
        <ele>235</ele>
        <time>2024-08-15T16:04:00Z</time>
      </trkpt>
      <trkpt lat="44.54089" lon="4.95574">
        <ele>234</ele>
        <time>2024-08-15T16:04:07Z</time>
        <extensions>
          <visugpx:TrkExtension xmlns:visugpx="https://www.visugpx.com/editgpx/">
            <visugpx:node>1</visugpx:node>
            </visugpx:TrkExtension>
        </extensions>
      </trkpt>
    </trkseg>
  </trk>
</gpx>